[[{"header":{"parameterUnit":"m.s-1","parameterCategory":1,"la1":30.6,"la2":28.766,"lo1":-90.7593,"lo2":-88.6598,"dy":0.0162,"dx":0.0183,"nx":116,"ny":114,"refTime":"2024-06-25T18:00:00:Z","depth":0,"parameterNumber":2,"parameterNumberName":"U-component_of_WINDS"},"data":[0.0,0.0,0.0,0.0,0.0,0.0,0.0,0.0,0.0,0.0,0.0,0.0,0.0,0.0,0.0,0.0,0.0,0.0,0.0,0.0,0.0,0.0,0.0,0.0,0.0,0.0,0.0,0.0,0.0,0.0,0.0,0.0,0.0,0.0,0.0,0.0,0.0,0.0,0.0,0.0,0.0,0.0,0.0,0.0,0.0,0.0,0.0,0.0,0.0,0.0,0.0,0.0,0.0,0.0,0.0,0.0,0.0,0.0,0.0,0.0,0.0,0.0,0.0,0.0,0.0,0.0,0.0,0.0,0.0,0.0,0.0,0.0,0.0,0.0,0.0,0.0,0.0,0.0,0.0,0.0,0.0,0.0,0.0,0.0,0.0,0.0,0.0,0.0,0.0,0.0,0.0,0.0,0.0,0.0,0.0,0.0,0.0,0.0,0.0,0.0,0.0,0.0,0.0,0.0,0.0,0.0,0.0,0.0,0.0,0.0,0.0,0.0,0.0,0.0,0.0,0.0,0.0,0.0,0.0,0.0,0.0,0.0,0.0,0.0,0.0,0.0,0.0,0.0,0.0,0.0,0.0,0.0,0.0,0.0,0.0,0.0,0.0,0.0,0.0,0.0,0.0,0.0,0.0,0.0,0.0,0.0,0.0,0.0,0.0,0.0,0.0,0.0,0.0,0.0,0.0,0.0,0.0,0.0,0.0,0.0,0.0,0.0,0.0,0.0,0.0,0.0,0.0,0.0,0.0,0.0,0.0,0.0,0.0,0.0,0.0,0.0,0.0,0.0,0.0,0.0,0.0,0.0,0.0,0.0,0.0,0.0,0.0,0.0,0.0,0.0,0.0,0.0,0.0,0.0,0.0,0.0,0.0,0.0,0.0,0.0,0.0,0.0,0.0,0.0,0.0,0.0,0.0,0.0,0.0,0.0,0.0,0.0,0.0,0.0,0.0,0.0,0.0,0.0,0.0,0.0,0.0,0.0,0.0,0.0,0.0,0.0,0.0,0.0,0.0,0.0,0.0,0.0,0.0,0.0,0.0,0.0,0.0,0.0,0.0,0.0,0.0,0.0,0.0,0.0,0.0,0.0,0.0,0.0,0.0,0.0,0.0,0.0,0.0,0.0,0.0,0.0,0.0,0.0,0.0,0.0,0.0,0.0,0.0,0.0,0.0,0.0,0.0,0.0,0.0,0.0,0.0,0.0,0.0,0.0,0.0,0.0,0.0,0.0,0.0,0.0,0.0,0.0,0.0,0.0,0.0,0.0,0.0,0.0,0.0,0.0,0.0,0.0,0.0,0.0,0.0,0.0,0.0,0.0,0.0,0.0,0.0,0.0,0.0,0.0,0.0,0.0,0.0,0.0,0.0,0.0,0.0,0.0,0.0,0.0,0.0,0.0,0.0,0.0,0.0,0.0,0.0,0.0,0.0,0.0,0.0,0.0,0.0,0.0,0.0,0.0,0.0,0.0,0.0,0.0,0.0,0.0,0.0,0.0,0.0,0.0,0.0,0.0,0.0,0.0,0.0,0.0,0.0,0.0,0.0,0.0,0.0,0.0,0.0,0.0,0.0,0.0,0.0,0.0,0.0,0.0,0.0,0.0,0.0,0.0,0.0,0.0,0.0,0.0,0.0,0.0,0.0,0.0,0.0,0.0,0.0,0.0,0.0,0.0,0.0,0.0,0.0,0.0,0.0,0.0,0.0,0.0,0.0,0.0,0.0,0.0,0.0,0.0,0.0,0.0,0.0,0.0,0.0,0.0,0.0,0.0,0.0,0.0,0.0,0.0,0.0,0.0,0.0,0.0,0.0,0.0,0.0,0.0,0.0,0.0,0.0,0.0,0.0,0.0,0.0,0.0,0.0,0.0,0.0,0.0,0.0,0.0,0.0,0.0,0.0,0.0,0.0,0.0,0.0,0.0,0.0,0.0,0.0,0.0,0.0,0.0,0.0,0.0,0.0,0.0,0.0,0.0,0.0,0.0,0.0,0.0,0.0,0.0,0.0,0.0,0.0,0.0,0.0,0.0,0.0,0.0,0.0,0.0,0.0,0.0,0.0,0.0,0.0,0.0,0.0,0.0,0.0,0.0,0.0,0.0,0.0,0.0,0.0,0.0,0.0,0.0,0.0,0.0,0.0,0.0,0.0,0.0,0.0,0.0,0.0,0.0,0.0,0.0,0.0,0.0,0.0,0.0,0.0,0.0,0.0,0.0,0.0,0.0,0.0,0.0,0.0,0.0,0.0,0.0,0.0,0.0,0.0,0.0,0.0,0.0,0.0,0.0,0.0,0.0,0.0,0.0,0.0,0.0,0.0,0.0,0.0,0.0,0.0,0.0,0.0,0.0,0.0,0.0,0.0,0.0,0.0,0.0,0.0,0.0,0.0,0.0,0.0,0.0,0.0,0.0,0.0,0.0,0.0,0.0,0.0,0.0,0.0,0.0,0.0,0.0,0.0,0.0,0.0,0.0,0.0,0.0,0.0,0.0,0.0,0.0,0.0,0.0,0.0,0.0,0.0,0.0,0.0,0.0,0.0,0.0,0.0,0.0,0.0,0.0,0.0,0.0,0.0,0.0,0.0,0.0,0.0,0.0,0.0,0.0,0.0,0.0,0.0,0.0,0.0,0.0,0.0,0.0,0.0,0.0,0.0,0.0,0.0,0.0,0.0,0.0,0.0,0.0,0.0,0.0,0.0,0.0,0.0,0.0,0.0,0.0,0.0,0.0,0.0,0.0,0.0,0.0,0.0,0.0,0.0,0.0,0.0,0.0,0.0,0.0,0.0,0.0,0.0,0.0,0.0,0.0,0.0,0.0,0.0,0.0,0.0,0.0,0.0,0.0,0.0,0.0,0.0,0.0,0.0,0.0,0.0,0.0,0.0,0.0,0.0,0.0,0.0,0.0,0.0,0.0,0.0,0.0,0.0,0.0,0.0,0.0,0.0,0.0,0.0,0.0,0.0,0.0,0.0,0.0,0.0,0.0,0.0,0.0,0.0,0.0,0.0,0.0,0.0,0.0,0.0,0.0,0.0,0.0,0.0,0.0,0.0,0.0,0.0,0.0,0.0,0.0,0.0,0.0,0.0,0.0,0.0,0.0,0.0,0.0,0.0,0.0,0.0,0.0,0.0,0.0,0.0,0.0,0.0,0.0,0.0,0.0,0.0,0.0,0.0,0.0,0.0,0.0,0.0,0.0,0.0,0.0,0.0,0.0,0.0,0.0,0.0,0.0,0.0,0.0,0.0,0.0,0.0,0.0,0.0,0.0,0.0,0.0,0.0,0.0,0.0,0.0,0.0,0.0,0.0,0.0,0.0,0.0,0.0,0.0,0.0,0.0,0.0,0.0,0.0,0.0,0.0,0.0,0.0,0.0,0.0,0.0,0.0,0.0,0.0,0.0,0.0,0.0,0.0,0.0,0.0,0.0,0.0,0.0,0.0,0.0,0.0,0.0,0.0,0.0,0.0,0.0,0.0,0.0,0.0,0.0,0.0,0.0,0.0,0.0,0.0,0.0,0.0,0.0,0.0,0.0,0.0,0.0,0.0,0.0,0.0,0.0,0.0,0.0,0.0,0.0,0.0,0.0,0.0,0.0,0.0,0.0,0.0,0.0,0.0,0.0,0.0,0.0,0.0,0.0,0.0,0.0,0.0,0.0,0.0,0.0,0.0,0.0,0.0,0.0,0.0,0.0,0.0,0.0,0.0,0.0,0.0,0.0,0.0,0.0,0.0,0.0,0.0,0.0,0.0,0.0,0.0,0.0,0.0,0.0,0.0,0.0,0.0,0.0,0.0,0.0,0.0,0.0,0.0,0.0,0.0,0.0,0.0,0.0,0.0,0.0,0.0,0.0,0.0,0.0,0.0,0.0,0.0,0.0,0.0,0.0,0.0,0.0,0.0,0.0,0.0,0.0,0.0,0.0,0.0,0.0,0.0,0.0,0.0,0.0,0.0,0.0,0.0,0.0,0.0,0.0,0.0,0.0,0.0,0.0,0.0,0.0,0.0,0.0,0.0,0.0,0.0,0.0,0.0,0.0,0.0,0.0,0.0,0.0,0.0,0.0,0.0,0.0,0.0,0.0,0.0,0.0,0.0,0.0,0.0,0.0,0.0,0.0,0.0,0.0,0.0,0.0,0.0,0.0,0.0,0.0,0.0,0.0,0.0,0.0,0.0,0.0,0.0,0.0,0.0,0.0,0.0,0.0,0.0,0.0,0.0,0.0,0.0,0.0,0.0,0.0,0.0,0.0,0.0,0.0,0.0,0.0,0.0,0.0,0.0,0.0,0.0,0.0,0.0,0.0,0.0,0.0,0.0,0.0,0.0,0.0,0.0,0.0,0.0,0.0,0.0,0.0,0.0,0.0,0.0,0.0,0.0,0.0,0.0,0.0,0.0,0.0,0.0,0.0,0.0,0.0,0.0,0.0,0.0,0.0,0.0,0.0,0.0,0.0,0.0,0.0,0.0,0.0,0.0,0.0,0.0,0.0,0.0,0.0,0.0,0.0,0.0,0.0,0.0,0.0,0.0,0.0,0.0,0.0,0.0,0.0,0.0,0.0,0.0,0.0,0.0,0.0,0.0,0.0,0.0,0.0,0.0,0.0,0.0,0.0,0.0,0.0,0.0,0.0,0.0,0.0,0.0,0.0,0.0,0.0,0.0,0.0,0.0,0.0,0.0,0.0,0.0,0.0,0.0,0.0,0.0,0.0,0.0,0.0,0.0,0.0,0.0,0.0,0.0,0.0,0.0,0.0,0.0,0.0,0.0,0.0,0.0,0.0,0.0,0.0,0.0,0.0,0.0,0.0,0.0,0.0,0.0,0.0,0.0,0.0,0.0,0.0,0.0,0.0,0.0,0.0,0.0,0.0,0.0,0.0,0.0,0.0,0.0,0.0,0.0,0.0,0.0,0.0,0.0,0.0,0.0,0.0,0.0,0.0,0.0,0.0,0.0,0.0,0.0,0.0,0.0,0.0,0.0,0.0,0.0,0.0,0.0,0.0,0.0,0.0,0.0,0.0,0.0,0.0,0.0,0.0,0.0,0.0,0.0,0.0,0.0,0.0,0.0,0.0,0.0,0.0,0.0,0.0,0.0,0.0,0.0,0.0,0.0,0.0,0.0,0.0,0.0,0.0,0.0,0.0,0.0,0.0,0.0,0.0,0.0,0.0,0.0,0.0,0.0,0.0,0.0,0.0,0.0,0.0,0.0,0.0,0.0,0.0,0.0,0.0,0.0,0.0,0.0,0.0,0.0,0.0,0.0,0.0,0.0,0.0,0.0,0.0,0.0,0.0,0.0,0.0,0.0,0.0,0.0,0.0,0.0,0.0,0.0,0.0,0.0,0.0,0.0,0.0,0.0,0.0,0.0,0.0,0.0,0.0,0.0,0.0,0.0,0.0,0.0,0.0,0.0,0.0,0.0,0.0,0.0,0.0,0.0,0.0,0.0,0.0,0.0,0.0,0.0,0.0,0.0,0.0,0.0,0.0,0.0,0.0,0.0,0.0,0.0,0.0,0.0,0.0,0.0,0.0,0.0,0.0,0.0,0.0,0.0,0.0,0.0,0.0,0.0,0.0,0.0,0.0,0.0,0.0,0.0,0.0,0.0,0.0,0.0,0.0,0.0,0.0,0.0,0.0,0.0,0.0,0.0,0.0,0.0,0.0,0.0,0.0,0.0,0.0,0.0,0.0,0.0,0.0,0.0,0.0,0.0,0.0,0.0,0.0,0.0,0.0,0.0,0.0,0.0,0.0,0.0,0.0,0.0,0.0,0.0,0.0,0.0,0.0,0.0,0.0,0.0,0.0,0.0,0.0,0.0,0.0,0.0,0.0,0.0,0.0,0.0,0.0,0.0,0.0,0.0,0.0,0.0,0.0,0.0,0.0,0.0,0.0,0.0,0.0,0.0,0.0,0.0,0.0,0.0,0.0,0.0,0.0,0.0,0.0,0.0,0.0,0.0,0.0,0.0,0.0,0.0,0.0,0.0,0.0,0.0,0.0,0.0,0.0,0.0,0.0,0.0,0.0,0.0,0.0,0.0,0.0,0.0,0.0,0.0,0.0,0.0,0.0,0.0,0.0,0.0,0.0,0.0,0.0,0.0,0.0,-0.194,-0.1876,0.0,0.0,0.0,0.0,0.0,0.0,0.0,0.0,0.0,0.0,0.0,0.0,0.0,0.0,0.0,0.0,0.0,0.0,0.0,0.0,0.0,0.0,0.0,-0.3938,-0.4374,-0.4776,-0.4882,-0.4961,-0.499,0.0,0.0,0.0,0.0,0.0,-0.5108,-0.5108,-0.5078,-0.5039,-0.5087,-0.5036,-0.493,-0.4802,-0.4366,-0.3689,0.0,0.0,0.0,0.0,0.0,0.0,0.0,0.0,0.0,0.0,0.0,0.0,0.0,0.0,0.0,0.0,0.0,0.0,0.0,0.0,0.0,0.0,0.0,0.0,0.0,0.0,0.0,0.0,0.0,0.0,0.0,0.0,0.0,0.0,0.0,0.0,0.0,0.0,0.0,0.0,0.0,0.0,0.0,0.0,0.0,0.0,0.0,0.0,0.0,0.0,0.0,0.0,0.0,0.0,0.0,0.0,0.0,0.0,0.0,0.0,0.0,0.0,0.0,0.0,0.0,0.0,0.0,0.0,0.0,0.0,-0.2309,-0.2179,0.0,0.0,0.0,0.0,0.0,0.0,0.0,0.0,0.0,0.0,0.0,0.0,0.0,0.0,0.0,0.0,0.0,0.0,0.0,0.0,0.0,-0.3314,-0.3565,-0.403,-0.4429,-0.4736,-0.4814,-0.4893,-0.497,0.0,0.0,0.0,0.0,-0.5088,-0.5098,-0.5078,-0.5077,-0.5064,-0.5183,-0.5272,-0.5289,-0.5158,0.0,0.0,-0.4134,0.0,0.0,0.0,0.0,0.0,0.0,0.0,0.0,0.0,0.0,0.0,0.0,0.0,0.0,0.0,0.0,0.0,0.0,0.0,0.0,0.0,0.0,0.0,0.0,0.0,0.0,0.0,0.0,0.0,0.0,0.0,0.0,0.0,0.0,0.0,0.0,0.0,0.0,0.0,0.0,0.0,0.0,0.0,0.0,0.0,0.0,0.0,0.0,0.0,0.0,0.0,0.0,0.0,0.0,0.0,0.0,0.0,0.0,0.0,0.0,0.0,0.0,0.0,-0.3497,-0.3497,-0.35,-0.3327,-0.3291,-0.3251,-0.2817,-0.2612,-0.2638,-0.2606,0.0,0.0,0.0,0.0,0.0,0.0,0.0,0.0,0.0,0.0,0.0,0.0,0.0,0.0,0.0,0.0,0.0,0.0,0.0,-0.372,-0.3997,-0.4447,-0.469,-0.4624,-0.4695,-0.4755,-0.4832,0.0,0.0,0.0,-0.5108,-0.5098,-0.5107,-0.5039,-0.5088,-0.5267,-0.5159,-0.5181,-0.5288,0.0,0.0,0.0,-0.5045,-0.4984,0.0,0.0,0.0,0.0,0.0,0.0,0.0,0.0,0.0,0.0,0.0,0.0,0.0,0.0,0.0,0.0,0.0,0.0,0.0,0.0,0.0,0.0,0.0,0.0,0.0,0.0,0.0,0.0,0.0,0.0,0.0,0.0,0.0,0.0,0.0,0.0,0.0,0.0,0.0,0.0,0.0,0.0,-0.351,-0.3774,0.0,0.0,0.0,0.0,0.0,0.0,0.0,0.0,0.0,0.0,0.0,0.0,0.0,-0.3794,-0.4097,-0.3973,-0.402,-0.4345,-0.4345,-0.4345,-0.4345,-0.4041,-0.3953,-0.4005,-0.3578,0.0,-0.2754,-0.2647,0.0,0.0,0.0,0.0,0.0,0.0,0.0,0.0,0.0,0.0,0.0,0.0,0.0,0.0,0.0,0.0,0.0,0.0,0.0,0.0,0.0,-0.4425,-0.4604,-0.4492,-0.4524,-0.4584,0.0,0.0,0.0,-0.5039,-0.5078,-0.5098,-0.5097,-0.5144,-0.5362,-0.5757,-0.5623,0.0,0.0,0.0,0.0,0.0,0.0,0.0,0.0,0.0,0.0,0.0,0.0,0.0,0.0,0.0,0.0,0.0,0.0,0.0,0.0,0.0,0.0,0.0,0.0,0.0,0.0,0.0,0.0,0.0,0.0,0.0,0.0,0.0,0.0,0.0,0.0,0.0,0.0,0.0,0.0,0.0,0.0,0.0,0.0,0.0,0.0,0.0,0.0,-0.3634,-0.3884,-0.4046,-0.4193,-0.4253,0.0,0.0,0.0,0.0,0.0,0.0,0.0,0.0,0.0,-0.4118,-0.4295,-0.4425,-0.4566,-0.4539,-0.4589,-0.4718,-0.4718,-0.4718,-0.4718,-0.4364,-0.4277,-0.4276,-0.368,-0.3304,-0.3107,-0.2888,-0.2815,-0.2754,0.0,0.0,0.0,0.0,-0.3298,-0.3765,0.0,0.0,0.0,0.0,0.0,0.0,0.0,0.0,0.0,0.0,0.0,0.0,-0.4158,-0.437,-0.4495,-0.4427,0.0,0.0,0.0,0.0,0.0,-0.4931,-0.5019,-0.5096,-0.515,-0.5386,-0.5685,0.0,0.0,0.0,0.0,0.0,0.0,0.0,0.0,0.0,0.0,0.0,0.0,0.0,0.0,0.0,0.0,0.0,0.0,0.0,0.0,0.0,0.0,0.0,0.0,0.0,0.0,0.0,0.0,0.0,0.0,0.0,0.0,0.0,0.0,0.0,0.0,0.0,0.0,0.0,0.0,0.0,0.0,0.0,0.0,0.0,0.0,0.0,0.0,0.0,0.0,-0.419,-0.448,-0.4555,-0.4706,-0.4774,0.0,0.0,0.0,0.0,0.0,0.0,-0.4325,-0.4523,-0.4606,-0.4606,-0.4784,-0.4967,-0.5047,-0.504,-0.507,-0.5145,-0.5145,-0.5145,-0.5145,-0.482,-0.469,-0.4626,-0.4054,-0.3801,-0.3714,-0.3143,-0.2873,-0.283,-0.2733,-0.282,-0.3094,-0.3253,-0.3646,-0.41,0.0,0.0,0.0,0.0,0.0,0.0,0.0,0.0,0.0,0.0,0.0,-0.4166,0.0,0.0,0.0,0.0,0.0,0.0,0.0,0.0,0.0,-0.4724,-0.4902,-0.5098,-0.529,-0.5791,0.0,0.0,0.0,0.0,0.0,0.0,0.0,0.0,0.0,0.0,0.0,0.0,0.0,0.0,0.0,0.0,0.0,0.0,0.0,0.0,0.0,0.0,0.0,0.0,0.0,0.0,0.0,0.0,0.0,0.0,0.0,0.0,0.0,0.0,0.0,0.0,0.0,0.0,0.0,0.0,0.0,0.0,0.0,0.0,0.0,0.0,0.0,0.0,0.0,0.0,0.0,0.0,0.0,-0.5614,-0.5814,0.0,0.0,0.0,0.0,-0.4763,-0.4566,-0.4542,-0.478,-0.4834,-0.4894,-0.4894,-0.4882,-0.5043,-0.5391,-0.5401,-0.5481,-0.5755,-0.5755,-0.5755,-0.5755,-0.5548,-0.5477,-0.5405,-0.5042,-0.4828,-0.4509,-0.3219,-0.2653,-0.2636,-0.2627,-0.2797,-0.3031,-0.3208,-0.3744,-0.4391,0.0,0.0,0.0,-0.3178,-0.3079,-0.3135,-0.3539,-0.3679,-0.391,-0.4347,-0.4456,0.0,0.0,0.0,0.0,0.0,0.0,0.0,0.0,0.0,0.0,-0.5088,-0.5187,-0.5509,-0.6065,-0.6077,0.0,0.0,0.0,0.0,0.0,0.0,0.0,0.0,0.0,0.0,0.0,0.0,0.0,0.0,0.0,0.0,0.0,0.0,0.0,0.0,0.0,0.0,0.0,0.0,0.0,0.0,0.0,0.0,0.0,0.0,0.0,0.0,0.0,0.0,0.0,0.0,0.0,0.0,0.0,0.0,0.0,0.0,0.0,0.0,0.0,0.0,0.0,0.0,0.0,0.0,0.0,0.0,0.0,-0.5923,-0.5955,0.0,-0.5516,-0.5228,-0.5014,-0.4938,-0.4805,-0.48,-0.4843,-0.5085,-0.5251,-0.5251,-0.5359,-0.5535,-0.5644,-0.5644,-0.5698,-0.58,-0.58,-0.58,-0.58,-0.5591,-0.5522,-0.545,-0.5153,-0.4934,-0.485,-0.4119,-0.3655,-0.3359,-0.3296,-0.3464,-0.3793,-0.4059,-0.4506,-0.5024,-0.3412,-0.3349,0.0,-0.3213,-0.3103,-0.3231,-0.3807,-0.3959,-0.4154,-0.4584,-0.4738,0.0,0.0,0.0,0.0,0.0,0.0,0.0,0.0,0.0,-0.5306,-0.5392,-0.5653,-0.5985,0.0,0.0,0.0,0.0,0.0,0.0,0.0,0.0,0.0,0.0,0.0,0.0,0.0,0.0,0.0,0.0,0.0,0.0,-0.5429,0.0,0.0,0.0,0.0,0.0,0.0,0.0,0.0,0.0,0.0,0.0,0.0,0.0,0.0,0.0,0.0,0.0,0.0,0.0,0.0,0.0,0.0,0.0,0.0,0.0,0.0,0.0,0.0,0.0,0.0,0.0,0.0,0.0,0.0,0.0,-0.6818,-0.6507,-0.6489,-0.6327,-0.5828,-0.5622,-0.545,-0.5272,-0.5277,-0.5269,-0.5123,-0.5481,-0.5579,-0.5508,-0.5698,-0.5827,-0.5878,-0.5878,-0.5905,-0.5956,-0.5956,-0.5956,-0.5956,-0.5811,-0.5741,-0.5741,-0.5513,-0.5359,-0.5285,-0.5064,-0.4724,-0.4349,-0.4057,-0.4069,-0.4428,-0.4644,-0.5026,-0.5463,-0.3419,-0.3344,-0.3281,-0.3212,-0.3166,-0.3437,-0.4357,-0.4237,-0.429,-0.5001,-0.5026,0.0,0.0,0.0,0.0,0.0,0.0,0.0,0.0,-0.5828,-0.5882,-0.5643,-0.6261,-0.6462,0.0,0.0,0.0,0.0,0.0,0.0,0.0,0.0,0.0,0.0,0.0,0.0,0.0,0.0,0.0,0.0,0.0,0.0,-0.5802,0.0,0.0,0.0,0.0,0.0,0.0,0.0,0.0,0.0,0.0,0.0,0.0,0.0,0.0,0.0,0.0,0.0,0.0,0.0,0.0,0.0,0.0,0.0,0.0,0.0,0.0,0.0,0.0,0.0,0.0,0.0,0.0,0.0,-0.6947,-0.7511,-0.7871,-0.745,-0.7442,-0.725,-0.6671,-0.6315,-0.6017,-0.5783,-0.6037,-0.6028,-0.5631,-0.5933,-0.6029,-0.581,-0.5813,-0.5888,-0.6034,-0.6037,-0.6112,-0.6338,-0.6338,-0.6338,-0.6338,-0.6338,-0.6338,-0.6338,-0.6338,-0.618,-0.5941,-0.5941,-0.5789,-0.5535,-0.4828,-0.4589,-0.4737,-0.4948,-0.524,-0.5532,-0.3427,-0.3344,-0.3289,-0.3271,-0.3545,-0.3934,-0.4496,-0.4665,-0.4842,-0.5144,0.0,0.0,0.0,0.0,0.0,0.0,0.0,0.0,0.0,0.0,-0.6107,-0.6389,-0.6802,0.0,0.0,0.0,0.0,0.0,0.0,0.0,0.0,0.0,0.0,0.0,0.0,0.0,0.0,0.0,0.0,0.0,0.0,0.0,-0.6751,0.0,0.0,0.0,0.0,0.0,0.0,0.0,0.0,0.0,0.0,0.0,0.0,0.0,0.0,0.0,0.0,0.0,0.0,0.0,0.0,0.0,0.0,0.0,0.0,0.0,0.0,0.0,0.0,0.0,0.0,0.0,-0.8202,-0.8391,-0.8024,-0.8187,-0.8277,-0.8057,-0.7762,-0.7435,-0.6988,-0.6818,-0.6707,-0.6655,-0.6744,-0.6592,-0.6169,-0.6223,-0.6184,-0.5966,-0.6078,-0.6156,-0.6196,-0.6196,-0.6217,-0.6338,-0.6338,-0.6338,-0.6338,-0.6338,-0.6338,-0.6338,-0.6338,-0.6261,-0.618,-0.618,-0.618,-0.6018,-0.5478,-0.5445,-0.5597,-0.567,-0.5825,-0.6046,-0.3427,-0.3366,-0.3327,-0.3301,-0.3687,-0.4136,-0.4534,-0.4809,-0.5029,-0.5221,0.0,0.0,0.0,0.0,0.0,0.0,0.0,0.0,-0.5987,-0.631,-0.659,0.0,0.0,0.0,0.0,0.0,0.0,0.0,0.0,0.0,0.0,0.0,0.0,0.0,0.0,0.0,0.0,0.0,0.0,0.0,0.0,0.0,-0.7326,-0.681,-0.6586,-0.6514,-0.6426,-0.649,-0.6596,-0.6576,0.0,0.0,0.0,0.0,0.0,0.0,0.0,0.0,0.0,0.0,0.0,0.0,0.0,0.0,0.0,0.0,0.0,0.0,0.0,0.0,0.0,0.0,0.0,0.0,-0.8842,-0.9034,-0.9092,-0.9023,-0.8909,-0.8681,-0.8421,-0.8101,-0.7782,-0.7792,-0.7768,-0.7554,-0.7535,-0.7279,-0.6626,-0.6559,-0.6421,-0.6125,-0.6213,-0.6338,-0.6338,-0.6338,-0.6291,-0.6349,-0.6349,-0.6383,-0.6444,-0.6444,-0.6444,-0.6444,-0.6444,-0.6444,-0.6441,-0.6376,-0.6349,-0.6342,0.0,0.0,0.0,0.0,-0.618,-0.6247,-0.3424,-0.3395,-0.337,-0.331,-0.3737,-0.4208,-0.4546,-0.4827,-0.5072,-0.5298,0.0,0.0,0.0,0.0,0.0,0.0,0.0,0.0,0.0,0.0,0.0,0.0,0.0,0.0,0.0,0.0,0.0,0.0,0.0,0.0,0.0,0.0,0.0,0.0,0.0,0.0,0.0,0.0,0.0,0.0,0.0,0.0,-0.7684,-0.7458,-0.7369,-0.7341,-0.722,-0.7404,-0.7725,-0.7526,0.0,0.0,0.0,0.0,0.0,0.0,0.0,0.0,0.0,0.0,0.0,0.0,0.0,0.0,0.0,0.0,0.0,0.0,0.0,0.0,0.0,0.0,0.0,0.0,-0.9297,-0.9563,-1.0114,-0.9888,-0.9599,-0.9284,-0.925,-0.9136,-0.8815,-0.897,-0.8902,-0.8406,-0.8461,-0.8065,-0.7096,0.0,0.0,0.0,0.0,-0.6373,-0.6386,-0.639,-0.6373,-0.6498,-0.6498,-0.6569,-0.6702,-0.6702,-0.6702,-0.6702,-0.6702,-0.6702,-0.6692,-0.6556,-0.6498,-0.6481,-0.6322,-0.6338,-0.6338,-0.6338,-0.6338,-0.6338,-0.3417,-0.3353,-0.3319,-0.3301,-0.409,-0.4693,-0.4618,-0.5224,-0.5625,-0.5413,-0.5067,0.0,0.0,0.0,0.0,0.0,0.0,0.0,0.0,0.0,0.0,0.0,0.0,0.0,0.0,0.0,0.0,0.0,0.0,0.0,0.0,0.0,0.0,0.0,0.0,0.0,0.0,0.0,0.0,0.0,0.0,0.0,-0.8219,-0.8004,-0.7885,-0.7795,-0.7706,-0.7819,-0.799,-0.7849,-0.7913,-0.8017,-0.7634,0.0,0.0,0.0,0.0,0.0,0.0,0.0,0.0,0.0,0.0,0.0,0.0,0.0,0.0,0.0,0.0,0.0,0.0,0.0,0.0,-0.9758,-0.9967,-1.018,-1.0477,-1.0483,-1.0432,-1.0242,-0.9994,-0.9872,-1.003,-1.0001,-0.9863,-0.9574,-0.9278,-0.8803,-0.8116,-0.7617,-0.7312,-0.7217,-0.6911,-0.6816,-0.6937,-0.6695,-0.6627,-0.6658,-0.6658,0.0,-0.6702,-0.6702,-0.6702,-0.6702,-0.6702,-0.6702,-0.6698,-0.6668,-0.6658,-0.663,-0.6366,-0.6338,-0.6338,-0.6338,-0.6338,-0.6338,-0.3413,-0.3345,-0.3377,-0.3611,-0.4314,-0.4874,-0.4996,-0.5523,-0.5789,-0.5501,-0.5137,0.0,0.0,0.0,0.0,0.0,0.0,0.0,0.0,0.0,0.0,0.0,0.0,0.0,0.0,0.0,0.0,0.0,0.0,0.0,0.0,0.0,0.0,0.0,0.0,0.0,0.0,0.0,0.0,0.0,0.0,0.0,-0.9047,-0.8595,-0.8427,-0.8371,-0.8194,-0.8341,-0.8602,-0.8472,-0.8479,-0.8469,-0.8334,-0.8103,-0.7766,0.0,0.0,0.0,0.0,0.0,0.0,0.0,0.0,0.0,0.0,0.0,0.0,0.0,0.0,-1.0176,-1.0556,0.0,-1.0212,-1.053,-1.0618,-1.0732,-1.0994,-1.1049,-1.1007,-1.0879,-1.0729,-1.0723,-1.0866,-1.084,-1.0704,-1.0336,-0.9857,-0.9367,-0.8937,-0.8398,-0.809,-0.7955,-0.7724,-0.7605,-0.7443,-0.7278,-0.7156,-0.6982,-0.6982,-0.6936,-0.6919,-0.6919,-0.6919,-0.6919,-0.6919,-0.6919,-0.6915,-0.6844,-0.677,-0.6685,-0.6539,-0.6481,-0.6471,-0.6393,-0.6366,-0.6356,-0.3568,-0.3528,-0.3591,-0.3958,-0.4548,-0.5054,-0.5379,-0.5706,-0.5837,-0.5587,-0.5282,-0.5,-0.4824,-0.4615,-0.4637,0.0,0.0,0.0,0.0,0.0,0.0,0.0,0.0,0.0,0.0,0.0,0.0,0.0,0.0,0.0,0.0,0.0,0.0,0.0,0.0,0.0,0.0,0.0,0.0,0.0,0.0,0.0,-0.9843,-0.9336,-0.9141,-0.9047,-0.8777,-0.8897,-0.9243,-0.9047,-0.8937,-0.8867,-0.8943,-0.8821,-0.8544,-0.8203,-0.8145,0.0,0.0,0.0,0.0,0.0,0.0,0.0,0.0,0.0,-1.0445,-1.0756,-1.0963,-1.1191,-1.1436,-1.1186,-1.1012,-1.1253,-1.1185,-1.1228,-1.1436,-1.151,-1.1467,-1.1388,-1.1404,-1.1462,-1.1513,-1.15,-1.1335,-1.1037,-1.0483,-1.0073,-0.9797,-0.937,-0.9086,-0.8968,-0.8808,-0.8582,-0.8126,-0.8042,-0.7777,-0.7397,-0.74,-0.7288,-0.7139,-0.7139,-0.7139,-0.7139,-0.7143,-0.7143,-0.7132,-0.7191,-0.7069,-0.7038,-0.7035,-0.7038,-0.7014,-0.6664,-0.6515,-0.6502,-0.4117,-0.4144,-0.4089,-0.4089,-0.4879,-0.5505,-0.5488,-0.5774,-0.5936,-0.5793,-0.5522,-0.5301,-0.5156,-0.4962,-0.4938,-0.516,0.0,0.0,0.0,0.0,0.0,0.0,0.0,0.0,0.0,0.0,0.0,0.0,0.0,0.0,0.0,0.0,0.0,0.0,0.0,0.0,0.0,0.0,0.0,0.0,0.0,0.0,-1.019,-1.0415,-1.0246,-0.9804,-0.9313,-0.9434,-0.9743,-0.9173,-0.9199,-0.9412,-0.9306,-0.9145,-0.9014,-0.8821,0.0,-0.8677,-0.8864,-0.9086,-0.9301,-0.9307,-0.9614,-1.0002,0.0,0.0,-1.167,-1.1928,-1.2104,-1.2219,-1.2118,-1.1975,-1.1826,-1.1654,-1.1622,-1.1648,-1.1841,-1.1824,-1.1917,-1.2178,-1.1932,-1.1899,-1.2158,-1.2057,-1.1855,-1.1632,-1.1487,-1.1325,-1.1123,-1.0704,-1.0524,-1.0684,-0.9932,-0.9517,-0.936,-0.8748,-0.8237,-0.7738,-0.7566,-0.7309,-0.7139,-0.7139,-0.7139,-0.7139,-0.7323,-0.7415,-0.7503,-0.7918,-0.8074,-0.8055,-0.8317,-0.84,-0.8273,-0.7111,-0.6675,-0.6671,-0.4386,-0.4894,-0.5267,-0.5176,-0.5402,-0.569,-0.5924,-0.6024,-0.602,-0.5918,-0.5718,-0.553,-0.5453,-0.5185,-0.5121,-0.5347,-0.5589,0.0,0.0,0.0,0.0,0.0,0.0,0.0,0.0,0.0,0.0,0.0,0.0,0.0,0.0,0.0,0.0,0.0,0.0,0.0,0.0,0.0,0.0,0.0,0.0,0.0,-1.104,-1.083,-1.0795,-1.0711,-1.0132,-0.9983,0.0,0.0,-0.9704,-0.9853,-0.9765,-0.9761,-0.9782,-0.9744,-0.9906,0.0,-1.0393,-1.0401,0.0,0.0,-1.0895,-1.1237,-1.1545,-1.2064,-1.252,-1.2756,-1.2893,-1.2998,-1.2966,-1.303,-1.2957,0.0,-1.266,-1.2634,-1.2662,-1.2487,-1.2383,-1.2439,-1.2271,-1.2171,-1.2291,-1.215,-1.2081,-1.2188,-1.1916,-1.1883,-1.2123,-1.1839,-1.1769,-1.1776,-1.1346,-1.0883,-1.0376,-0.9854,-0.9248,-0.8644,-0.8472,-0.8116,-0.7757,-0.7757,-0.7757,-0.7757,-0.7848,-0.8025,-0.8372,-0.8548,-0.8719,-0.8803,-0.889,-0.8978,-0.8856,-0.7924,-0.7674,-0.7659,-0.4733,-0.5473,-0.6108,-0.6143,-0.6001,-0.5994,-0.63,-0.6248,-0.6141,-0.6099,-0.5911,-0.5737,-0.5633,-0.5387,-0.5264,-0.5395,-0.5693,-0.6019,0.0,0.0,0.0,0.0,0.0,0.0,0.0,0.0,0.0,0.0,0.0,0.0,0.0,0.0,0.0,0.0,0.0,0.0,0.0,0.0,0.0,0.0,0.0,0.0,-1.1683,-1.1186,-1.121,-1.1325,-1.048,-1.0197,0.0,0.0,-0.9983,-1.0079,-1.0196,-1.0312,-1.0419,-1.0538,-1.0922,-1.14,-1.1618,0.0,0.0,-1.1826,-1.2104,-1.2362,-1.26,-1.2968,-1.3291,-1.3513,-1.3633,-1.3705,-1.364,-1.3766,-1.3822,-1.347,-1.3484,-1.3472,-1.3361,-1.3046,-1.2826,-1.2673,-1.2526,-1.2378,-1.2305,-1.215,-1.2208,-1.2593,-1.237,-1.2463,-1.2959,-1.2806,-1.2769,-1.2784,-1.2357,-1.1929,-1.1413,-1.0809,-1.0207,-0.9607,-0.9257,-0.8903,-0.8456,-0.8456,-0.8456,-0.846,-0.8636,-0.8894,-0.9152,-0.9414,-0.9671,-0.9758,-0.9927,-1.0014,-0.9913,-0.9515,-0.8952,-0.8512,-0.528,-0.5768,-0.624,-0.6707,-0.6659,-0.6552,-0.6495,-0.6379,-0.6296,-0.629,-0.6117,-0.5918,-0.5711,-0.5568,-0.5407,-0.5234,-0.5702,-0.6036,-0.6099,0.0,0.0,0.0,0.0,0.0,0.0,0.0,0.0,0.0,0.0,0.0,0.0,0.0,0.0,0.0,0.0,0.0,0.0,0.0,0.0,0.0,0.0,0.0,-1.1882,-1.1674,-1.1544,-1.131,-1.0058,0.0,0.0,0.0,-0.9846,-1.0061,-1.0479,-1.0649,0.0,-1.1146,-1.1624,0.0,0.0,0.0,-1.2552,-1.2969,-1.3141,-1.336,-1.3754,-1.3968,-1.4146,-1.4427,-1.4451,-1.4401,-1.4061,-1.4074,-1.4069,-1.3851,-1.387,-1.3941,-1.3787,-1.363,-1.3346,-1.2973,-1.2673,-1.2526,0.0,-1.2298,-1.2425,-1.2802,-1.3026,-1.3247,-1.3546,-1.3658,-1.3639,-1.3652,-1.3045,-1.2619,-1.2363,-1.1413,-1.0722,-1.0294,-0.9777,-0.9423,-0.9148,-0.9148,-0.9148,-0.9235,-0.968,-0.9859,-0.9946,-1.0809,-1.1241,-1.1322,-1.1752,-1.1929,-1.1929,-1.1918,-1.0702,-0.9139,-0.609,-0.6532,-0.6845,-0.6868,-0.6757,-0.6668,-0.6633,-0.6483,-0.6378,-0.6425,-0.6284,0.0,0.0,0.0,0.0,0.0,-0.5782,-0.6065,-0.6421,-0.685,0.0,0.0,0.0,0.0,0.0,0.0,0.0,0.0,0.0,0.0,0.0,0.0,0.0,0.0,0.0,0.0,0.0,0.0,0.0,0.0,0.0,0.0,-1.1599,-1.1402,-1.1219,-1.0994,0.0,0.0,0.0,0.0,0.0,0.0,-1.0908,0.0,0.0,-1.2711,0.0,-1.2992,0.0,0.0,-1.3446,-1.3876,-1.3979,-1.4082,-1.4359,-1.4578,-1.4742,-1.4815,-1.4724,-1.4582,-1.4468,-1.47,-1.4869,-1.4773,-1.491,-1.4965,-1.4791,-1.4274,-1.3702,-1.3193,-1.282,0.0,0.0,0.0,0.0,-1.3019,-1.3153,-1.342,-1.3908,-1.3944,-1.3997,-1.3997,-1.3561,-1.3307,-1.3052,-1.2448,-1.2015,-1.1671,-1.1068,-1.0717,-1.0539,-1.0284,-1.0279,-1.0626,-1.0717,-1.1068,-1.1585,-1.1929,-1.21,-1.2272,-1.2357,-1.2448,-1.2448,-1.2448,-1.2095,-1.1488,-0.6615,-0.6998,-0.7203,-0.7009,-0.6858,0.0,0.0,0.0,0.0,0.0,0.0,0.0,0.0,0.0,0.0,0.0,0.0,-0.6154,-0.6413,0.0,0.0,0.0,0.0,0.0,0.0,0.0,0.0,0.0,0.0,0.0,0.0,0.0,0.0,0.0,0.0,0.0,0.0,0.0,0.0,0.0,0.0,0.0,-1.1374,-1.1186,-1.1005,0.0,0.0,0.0,0.0,0.0,0.0,0.0,0.0,0.0,0.0,-1.3718,-1.3788,-1.3748,-1.4204,-1.416,-1.4107,-1.4535,-1.4639,-1.4706,-1.4845,-1.4964,-1.5042,-1.5032,-1.4853,-1.4706,-1.4706,-1.5015,-1.5274,-1.536,-1.556,-1.5636,-1.5553,-1.4919,-1.432,-1.3866,-1.3364,-1.3035,0.0,0.0,0.0,-1.318,-1.3307,-1.3581,-1.4062,-1.4088,-1.4088,-1.4088,-1.3828,-1.3652,-1.3476,-1.3052,-1.2705,-1.2534,-1.2015,-1.1843,-1.1757,-1.1499,-1.1499,-1.1843,-1.1929,-1.2192,-1.2619,-1.2796,-1.296,-1.3045,-1.3137,-1.3222,-1.3222,-1.3222,-1.3222,-1.3137,-0.6915,-0.7171,-0.736,0.0,0.0,0.0,0.0,0.0,0.0,0.0,0.0,0.0,0.0,0.0,0.0,0.0,0.0,0.0,0.0,0.0,0.0,0.0,0.0,0.0,0.0,0.0,0.0,0.0,0.0,0.0,0.0,0.0,0.0,0.0,0.0,0.0,0.0,0.0,0.0,0.0,0.0,0.0,-1.1126,-1.0999,0.0,0.0,0.0,0.0,0.0,0.0,0.0,0.0,0.0,0.0,0.0,0.0,-1.4258,-1.4307,-1.4865,-1.4778,-1.4554,-1.4963,-1.5166,-1.5205,-1.5186,-1.5088,-1.5064,-1.5164,-1.4912,-1.4704,-1.4704,0.0,-1.5292,-1.5609,-1.5817,-1.5945,-1.6061,-1.5638,-1.5145,0.0,0.0,0.0,0.0,0.0,0.0,-1.3233,0.0,-1.3774,-1.4075,-1.4088,-1.4088,-1.4088,-1.3822,-1.3737,-1.3737,-1.3313,-1.3052,-1.279,-1.279,-1.279,-1.279,-1.2705,-1.2705,-1.279,-1.3052,-1.3143,-1.3137,-1.3568,-1.3737,-1.3737,-1.3997,-1.4088,-1.4088,-1.4088,-1.4088,-1.4004,0.0,0.0,0.0,0.0,0.0,0.0,0.0,0.0,0.0,0.0,0.0,0.0,0.0,0.0,0.0,0.0,0.0,0.0,0.0,0.0,0.0,0.0,0.0,0.0,0.0,0.0,0.0,0.0,0.0,0.0,0.0,0.0,0.0,0.0,0.0,0.0,0.0,0.0,0.0,0.0,0.0,0.0,-1.0179,0.0,0.0,0.0,0.0,0.0,0.0,0.0,0.0,0.0,0.0,0.0,-1.4744,0.0,0.0,-1.5399,-1.5685,-1.5436,-1.5245,-1.5741,-1.5674,-1.5477,-1.5143,-1.5199,-1.5294,-1.5172,-1.4934,-1.4811,-1.4982,0.0,0.0,-1.5502,-1.5792,0.0,-1.6138,-1.6122,0.0,-1.5372,0.0,-1.4749,-1.4435,-1.4186,0.0,0.0,-1.3675,-1.3774,-1.4075,-1.4088,-1.4088,-1.4088,-1.4004,-1.4004,-1.4004,-1.3913,-1.3828,-1.3737,-1.3561,-1.3476,-1.3476,-1.3307,-1.3307,-1.3476,-1.3483,-1.3652,-1.3828,-1.3997,-1.4004,-1.3997,-1.4088,-1.4088,-1.4088,-1.4088,-1.4088,-1.4088,0.0,0.0,0.0,0.0,0.0,0.0,0.0,0.0,0.0,0.0,0.0,0.0,0.0,0.0,0.0,0.0,0.0,0.0,0.0,0.0,0.0,0.0,0.0,0.0,0.0,0.0,0.0,0.0,0.0,0.0,0.0,0.0,0.0,0.0,0.0,0.0,0.0,0.0,0.0,0.0,0.0,0.0,0.0,0.0,0.0,0.0,0.0,0.0,0.0,0.0,0.0,-1.3493,-1.4522,-1.4994,-1.5224,-1.582,0.0,-1.6297,-1.6413,-1.6386,-1.6297,-1.6236,-1.5989,-1.5678,-1.5173,-1.4874,-1.4717,-1.4679,-1.4424,0.0,-1.4603,-1.4635,0.0,0.0,0.0,0.0,-1.6449,-1.6632,-1.6753,0.0,-1.631,0.0,-1.5786,-1.5345,-1.4885,0.0,-1.4083,-1.3908,-1.4082,-1.4088,-1.4088,-1.4088,-1.4088,-1.4088,-1.4088,-1.4088,-1.4088,-1.4088,-1.3913,-1.3913,-1.3913,-1.3743,-1.3737,-1.3913,-1.3913,-1.3997,-1.4088,-1.4088,-1.4088,-1.4088,-1.4088,-1.4088,-1.4088,-1.4088,-1.4088,-1.4088,0.0,0.0,0.0,0.0,0.0,0.0,0.0,0.0,0.0,0.0,0.0,0.0,0.0,0.0,0.0,0.0,0.0,0.0,0.0,0.0,0.0,0.0,0.0,0.0,0.0,0.0,0.0,0.0,0.0,0.0,0.0,0.0,0.0,0.0,0.0,0.0,0.0,0.0,0.0,0.0,0.0,0.0,0.0,0.0,0.0,0.0,0.0,0.0,0.0,0.0,-1.4099,-1.4373,-1.5005,-1.538,-1.5686,-1.6547,-1.6863,-1.6999,-1.7124,-1.7358,-1.7379,-1.6678,-1.6276,-1.5877,-1.5245,-1.45,-1.3982,-1.4106,0.0,-1.3553,-1.3984,-1.4183,-1.4568,-1.5384,0.0,-1.6182,-1.6617,-1.7204,-1.7642,-1.7832,-1.774,-1.7584,-1.7488,-1.6706,-1.5899,-1.5249,-1.4587,-1.4166,-1.4088,-1.4088,-1.4088,-1.4088,-1.4088,-1.4088,-1.4088,-1.4088,-1.4088,-1.4088,-1.4088,-1.4088,-1.4088,-1.4088,-1.4088,-1.4088,-1.4088,-1.4088,-1.4088,-1.4088,-1.4088,-1.4088,-1.4088,-1.4088,-1.4088,-1.4088,-1.4088,-1.4088,0.0,0.0,0.0,0.0,0.0,0.0,0.0,-0.7605,-0.7437,0.0,0.0,0.0,0.0,0.0,0.0,0.0,0.0,0.0,0.0,0.0,0.0,0.0,0.0,0.0,0.0,0.0,0.0,0.0,0.0,0.0,0.0,0.0,0.0,0.0,0.0,0.0,0.0,0.0,0.0,0.0,0.0,0.0,0.0,0.0,0.0,0.0,0.0,0.0,0.0,0.0,-1.4085,-1.415,-1.551,-1.6228,-1.66,-1.7013,-1.7533,-1.798,-1.8126,-1.8015,-1.7863,-1.7738,-1.7151,-1.6322,-1.5068,-1.4677,0.0,0.0,0.0,-1.4033,-1.4034,-1.4186,0.0,-1.4434,0.0,0.0,0.0,0.0,-1.7796,0.0,0.0,0.0,0.0,0.0,0.0,0.0,-1.4985,-1.4489,-1.4088,-1.4088,-1.4088,-1.4088,-1.4088,-1.4088,-1.4088,-1.4088,-1.4088,-1.4088,-1.4088,-1.4088,-1.4088,-1.4088,-1.4088,-1.4088,-1.4088,-1.4088,-1.4088,-1.4088,-1.4088,-1.4088,-1.4088,-1.4088,-1.4088,-1.4088,-1.4088,-1.4088,0.0,0.0,0.0,0.0,0.0,0.0,0.0,-0.7965,-0.7781,-0.7576,-0.7393,-0.7155,-0.6891,-0.6824,0.0,0.0,0.0,0.0,0.0,0.0,0.0,0.0,0.0,0.0,0.0,0.0,0.0,0.0,0.0,0.0,0.0,0.0,0.0,0.0,0.0,0.0,0.0,0.0,0.0,0.0,0.0,0.0,0.0,0.0,0.0,0.0,0.0,0.0,0.0,0.0,-1.3914,-1.4311,-1.5804,-1.6501,-1.6904,-1.7426,-1.8147,-1.8805,-1.8952,-1.8906,-1.8726,-1.8445,-1.7608,-1.6493,-1.5256,0.0,0.0,0.0,0.0,-1.3541,-1.3676,0.0,0.0,0.0,0.0,0.0,0.0,0.0,0.0,0.0,0.0,0.0,0.0,0.0,0.0,-1.6147,-1.5477,-1.4817,-1.4321,-1.4166,-1.4088,-1.4088,-1.4088,-1.4088,-1.4088,-1.4088,-1.4088,-1.4088,-1.4088,-1.4088,-1.4088,-1.4088,-1.4088,-1.4088,-1.4088,-1.4088,-1.4088,-1.4088,-1.4088,-1.4088,-1.4088,-1.4088,-1.4088,-1.4088,-1.4088,-1.4088,0.0,0.0,0.0,0.0,0.0,0.0,0.0,-0.8361,-0.8151,-0.7952,-0.7854,-0.765,-0.7237,-0.7091,-0.6993,0.0,0.0,0.0,0.0,0.0,0.0,0.0,0.0,0.0,0.0,0.0,0.0,0.0,0.0,0.0,0.0,0.0,0.0,0.0,0.0,0.0,0.0,0.0,0.0,0.0,0.0,0.0,0.0,0.0,0.0,0.0,0.0,0.0,0.0,0.0,-1.3831,-1.4492,-1.5831,-1.6476,-1.6954,-1.7852,-1.8655,-1.9344,-1.9622,-1.9656,-1.9538,-1.9022,-1.8014,-1.6802,-1.5609,-1.4511,0.0,0.0,-1.2889,-1.2871,-1.3132,0.0,0.0,0.0,0.0,0.0,0.0,0.0,0.0,0.0,0.0,0.0,0.0,0.0,0.0,-1.6796,-1.5974,-1.5144,-1.4405,-1.4166,-1.4088,-1.4088,-1.4088,-1.4088,-1.4088,-1.4088,-1.4088,-1.4088,-1.4088,-1.4088,-1.4088,-1.4088,-1.4088,-1.4088,-1.4088,-1.4088,-1.4088,-1.4088,-1.4088,-1.4088,-1.4088,-1.4088,-1.4088,-1.4088,-1.4088,-1.4088,0.0,0.0,0.0,0.0,0.0,0.0,0.0,-0.8767,-0.8575,-0.8374,-0.8227,-0.8063,-0.7854,-0.7546,-0.7329,0.0,0.0,0.0,0.0,0.0,0.0,0.0,0.0,0.0,0.0,0.0,0.0,0.0,0.0,0.0,0.0,0.0,0.0,0.0,0.0,0.0,0.0,0.0,0.0,0.0,0.0,0.0,0.0,0.0,0.0,0.0,0.0,0.0,0.0,0.0,0.0,-1.4239,-1.5451,-1.6213,-1.6929,-1.8385,0.0,0.0,-1.9842,-2.0044,-2.004,-1.9568,-1.8625,-1.7435,-1.6075,0.0,0.0,-1.258,-1.2419,-1.2439,-1.239,-1.2974,0.0,0.0,0.0,0.0,0.0,0.0,0.0,0.0,0.0,0.0,0.0,0.0,0.0,-1.7917,-1.646,-1.5242,-1.4166,-1.4088,-1.4088,-1.4088,-1.4088,-1.4088,-1.4088,-1.4088,-1.4088,-1.4088,-1.4088,-1.4088,-1.4088,-1.4088,-1.4088,-1.4088,-1.4088,-1.4088,-1.4088,-1.4088,-1.4088,-1.4088,-1.4088,-1.4088,-1.4088,-1.4088,-1.4088,-1.4088,0.0,0.0,0.0,0.0,0.0,0.0,-0.9196,-0.9047,-0.8868,-0.8667,-0.8571,-0.8418,-0.8224,-0.8049,-0.7825,-0.7561,0.0,0.0,0.0,0.0,0.0,0.0,0.0,0.0,0.0,0.0,0.0,0.0,0.0,0.0,0.0,0.0,0.0,0.0,0.0,0.0,0.0,0.0,0.0,0.0,0.0,0.0,0.0,0.0,0.0,0.0,0.0,0.0,0.0,0.0,0.0,0.0,-1.4911,-1.5373,0.0,0.0,-1.8686,-1.9585,-1.9895,-1.9929,-1.9878,-1.9414,-1.857,-1.7412,-1.576,0.0,-1.3519,-1.251,-1.2352,-1.2384,-1.2319,-1.2994,-1.3662,0.0,0.0,0.0,0.0,0.0,0.0,0.0,0.0,0.0,0.0,0.0,-1.8904,-1.7764,-1.6714,-1.5733,-1.4908,-1.4489,-1.4243,-1.4088,-1.4088,-1.4088,-1.4088,-1.4088,-1.4088,-1.4088,-1.4088,-1.4088,-1.4088,-1.4088,-1.4088,-1.4088,-1.4088,-1.4088,-1.4088,-1.4088,-1.4088,-1.4088,-1.4088,-1.4088,-1.4088,-1.4088,-1.4088,-1.4088,0.0,0.0,0.0,0.0,0.0,-0.9516,-0.9385,-0.9265,-0.9126,-0.894,-0.8841,-0.8726,-0.853,-0.846,-0.829,-0.7993,-0.7867,0.0,0.0,0.0,0.0,0.0,0.0,0.0,0.0,0.0,0.0,0.0,0.0,0.0,0.0,0.0,0.0,0.0,0.0,0.0,0.0,0.0,0.0,0.0,0.0,0.0,0.0,0.0,0.0,0.0,0.0,0.0,0.0,0.0,0.0,0.0,0.0,0.0,0.0,0.0,-1.8266,-1.9172,-1.9551,-1.9608,-1.9422,-1.9144,-1.84,-1.7355,0.0,0.0,-1.3747,-1.2663,-1.2436,-1.2404,-1.2384,-1.301,-1.3668,0.0,-1.4528,-1.5246,-1.649,0.0,0.0,0.0,0.0,0.0,0.0,0.0,-1.9152,-1.7844,-1.7123,-1.6468,-1.5643,-1.5061,-1.4566,-1.4166,-1.4166,-1.4088,-1.4088,-1.4088,-1.4088,-1.4088,-1.4088,-1.4088,-1.4088,-1.4088,-1.4088,-1.4088,-1.4088,-1.4088,-1.4088,-1.4088,-1.4088,-1.4088,-1.4088,-1.4088,-1.4088,-1.4088,-1.4088,-1.4088,0.0,0.0,0.0,0.0,0.0,0.0,-0.9517,-0.943,-0.9347,-0.9222,-0.9075,-0.8946,-0.8818,-0.8743,-0.8672,-0.8587,-0.829,0.0,0.0,0.0,0.0,0.0,0.0,0.0,0.0,0.0,0.0,0.0,0.0,0.0,0.0,0.0,0.0,0.0,0.0,0.0,0.0,0.0,0.0,0.0,0.0,0.0,-1.14,0.0,0.0,0.0,0.0,0.0,0.0,0.0,0.0,0.0,0.0,0.0,0.0,0.0,-1.7909,-1.7836,-1.8924,-1.8957,-1.8706,-1.8706,-1.819,-1.7427,0.0,-1.5222,-1.4101,-1.3006,-1.2647,-1.25,-1.25,-1.2835,-1.3419,-1.4342,-1.4341,0.0,-1.6567,0.0,0.0,0.0,0.0,0.0,0.0,0.0,-1.9539,-1.8745,-1.8103,0.0,-1.6139,-1.5643,-1.5061,-1.4391,-1.4159,-1.4088,-1.4088,-1.4088,-1.4088,-1.4088,-1.4088,-1.4088,-1.4088,-1.4088,-1.4088,-1.4088,-1.4088,-1.4088,-1.4088,-1.4088,-1.4088,-1.4088,-1.4088,-1.4088,-1.4088,-1.4088,-1.4088,-1.4088,0.0,0.0,0.0,0.0,0.0,0.0,0.0,-0.9508,-0.943,-0.9347,-0.9216,-0.9106,-0.9007,-0.8902,-0.8824,-0.8811,-0.8587,0.0,0.0,0.0,0.0,0.0,0.0,0.0,0.0,0.0,0.0,0.0,0.0,0.0,0.0,0.0,0.0,0.0,0.0,0.0,0.0,0.0,0.0,0.0,0.0,-1.1615,-1.1747,0.0,0.0,0.0,0.0,0.0,0.0,0.0,0.0,0.0,0.0,0.0,0.0,0.0,0.0,0.0,-1.7623,-1.7839,-1.7843,-1.7334,-1.7029,-1.6571,-1.547,-1.428,-1.333,-1.2964,-1.2432,-1.2106,-1.2424,-1.2856,-1.349,-1.4471,0.0,0.0,0.0,0.0,0.0,0.0,0.0,0.0,0.0,0.0,-1.9863,-1.9143,-1.8656,-1.8014,-1.7057,-1.6237,-1.5492,-1.465,-1.4573,-1.4405,-1.4321,-1.4321,-1.4243,-1.4088,-1.4088,-1.4088,-1.4088,-1.4088,-1.4088,-1.4088,-1.4088,-1.4088,-1.4088,-1.4088,-1.4088,-1.4088,-1.4088,-1.4088,-1.4088,-1.4088,-1.4088,-1.4088,0.0,0.0,0.0,0.0,0.0,0.0,0.0,-0.9567,-0.9508,-0.9457,-0.9321,-0.9216,-0.9151,-0.9028,-0.8936,-0.893,-0.8812,0.0,0.0,0.0,0.0,0.0,0.0,0.0,0.0,0.0,0.0,0.0,0.0,0.0,0.0,0.0,0.0,0.0,0.0,0.0,0.0,0.0,0.0,0.0,-1.0825,-1.1369,-1.1723,0.0,0.0,0.0,0.0,0.0,0.0,0.0,0.0,0.0,0.0,0.0,0.0,0.0,-1.4857,-1.5616,0.0,-1.7038,-1.7197,-1.665,-1.6494,-1.6123,-1.4985,-1.4071,-1.3365,-1.2847,-1.2438,-1.2268,-1.2501,-1.3099,-1.3799,-1.4662,-1.499,0.0,0.0,0.0,0.0,0.0,0.0,0.0,0.0,-2.0411,-2.0177,-1.9539,-1.9063,-1.8425,-1.7546,-1.6738,-1.5914,-1.5068,-1.4817,-1.4566,-1.4398,-1.4398,-1.4321,-1.4088,-1.4088,-1.4088,-1.4088,-1.4088,-1.4088,-1.4088,-1.4088,-1.4088,0.0,-1.4088,-1.4088,-1.4088,-1.4088,-1.4088,-1.4088,-1.4088,-1.4088,-1.4088,0.0,0.0,0.0,0.0,0.0,0.0,0.0,-0.9599,-0.9585,-0.9508,-0.9385,-0.9274,-0.9204,-0.9075,-0.9011,-0.9011,0.0,0.0,0.0,0.0,0.0,0.0,0.0,0.0,0.0,0.0,0.0,-1.0716,-1.1401,-1.204,-1.2602,0.0,0.0,0.0,0.0,0.0,0.0,0.0,0.0,0.0,-1.0232,-1.0723,0.0,0.0,0.0,0.0,0.0,0.0,0.0,0.0,0.0,0.0,0.0,0.0,0.0,0.0,0.0,0.0,0.0,-1.638,-1.6624,-1.6521,-1.6376,-1.5958,-1.4814,-1.4387,0.0,-1.2794,-1.2674,-1.2735,-1.2666,-1.3471,-1.4274,-1.4777,0.0,0.0,0.0,0.0,0.0,0.0,0.0,0.0,-2.0605,-2.0566,-2.0411,-1.9942,-1.9311,-1.8594,-1.7781,-1.7057,-1.6402,-1.5733,-1.5068,-1.465,-1.4391,-1.4391,-1.4321,-1.4088,-1.4088,-1.4088,-1.4088,-1.4088,-1.4088,-1.4088,-1.4088,-1.4088,-1.4088,-1.4088,-1.4088,-1.4088,-1.4088,-1.4088,-1.4088,-1.4088,-1.4088,-1.4088,0.0,0.0,0.0,0.0,0.0,0.0,0.0,0.0,0.0,0.0,-0.9421,-0.933,-0.9216,-0.9133,-0.9071,0.0,0.0,0.0,0.0,0.0,0.0,0.0,0.0,0.0,0.0,0.0,0.0,-1.0926,-1.1705,-1.2689,-1.3856,-1.3041,0.0,0.0,0.0,0.0,0.0,0.0,0.0,0.0,-1.0288,-1.0656,0.0,0.0,0.0,0.0,-1.0926,-1.14,0.0,0.0,0.0,0.0,0.0,0.0,0.0,0.0,-1.3407,-1.3844,-1.4154,0.0,-1.5272,-1.5589,-1.561,-1.5329,0.0,-1.3813,-1.3375,0.0,0.0,-1.2537,-1.3167,-1.369,-1.4163,0.0,0.0,0.0,0.0,0.0,0.0,0.0,0.0,0.0,-2.0605,-2.0489,-2.0264,-1.9942,-1.9311,-1.8674,-1.7951,-1.7139,-1.6402,-1.5733,-1.5242,-1.4915,-1.465,-1.465,-1.4489,-1.4088,-1.4088,-1.4088,-1.4088,-1.4088,-1.4088,-1.4088,-1.4088,-1.4088,-1.4088,-1.4088,-1.4088,-1.4088,-1.4088,-1.4088,-1.4088,-1.4088,-1.4088,-1.4088,0.0,0.0,0.0,0.0,0.0,0.0,0.0,0.0,0.0,0.0,0.0,0.0,0.0,0.0,0.0,0.0,0.0,0.0,0.0,0.0,0.0,0.0,0.0,0.0,0.0,0.0,0.0,0.0,0.0,-1.3769,0.0,0.0,0.0,0.0,0.0,0.0,0.0,0.0,0.0,-0.9644,-0.9737,0.0,0.0,0.0,0.0,0.0,-1.0314,-1.0679,0.0,-1.1855,-1.234,-1.2706,0.0,0.0,0.0,0.0,-1.3277,-1.3583,-1.3994,-1.4481,-1.4923,-1.5102,-1.5301,-1.5213,-1.4514,0.0,0.0,0.0,0.0,0.0,-1.336,0.0,0.0,0.0,0.0,0.0,0.0,0.0,0.0,0.0,0.0,-2.0411,0.0,-2.042,-2.0186,-1.9942,-1.9311,-1.8683,-1.804,-1.7302,-1.6484,-1.5733,-1.5409,-1.4985,-1.4566,-1.4566,-1.4405,-1.4088,-1.4088,-1.4088,-1.4088,-1.4088,-1.4088,-1.4088,-1.4088,-1.4088,-1.4088,-1.4088,-1.4088,-1.4088,-1.4088,-1.4088,-1.4088,-1.4088,-1.4088,-1.4088,0.0,0.0,0.0,0.0,0.0,0.0,0.0,0.0,0.0,0.0,0.0,0.0,0.0,0.0,0.0,0.0,0.0,0.0,0.0,0.0,0.0,0.0,0.0,0.0,0.0,0.0,0.0,0.0,0.0,0.0,0.0,0.0,-1.4418,0.0,0.0,0.0,0.0,0.0,0.0,-0.962,-0.9055,0.0,0.0,0.0,0.0,0.0,0.0,0.0,0.0,-1.1412,-1.1968,-1.2237,-1.2874,0.0,0.0,0.0,0.0,0.0,-1.4299,-1.4758,-1.5006,-1.514,-1.5311,-1.5316,0.0,0.0,0.0,0.0,0.0,0.0,0.0,0.0,0.0,0.0,0.0,0.0,0.0,0.0,0.0,0.0,0.0,0.0,-2.0419,-2.0217,-1.9995,-1.9752,-1.9127,-1.8505,-1.794,-1.7349,-1.6561,-1.5659,-1.5455,-1.5068,-1.4398,-1.4398,-1.4321,-1.4088,-1.4088,-1.4088,-1.4088,-1.4088,-1.4088,-1.4088,-1.4088,-1.4088,-1.4088,-1.4088,-1.4088,-1.4088,-1.4088,-1.4088,-1.4088,-1.4088,-1.4088,-1.4088,0.0,0.0,0.0,0.0,0.0,0.0,0.0,0.0,0.0,0.0,0.0,0.0,0.0,0.0,0.0,0.0,0.0,0.0,0.0,0.0,0.0,0.0,0.0,0.0,0.0,0.0,0.0,0.0,0.0,0.0,-1.6042,-1.54,-1.395,0.0,0.0,0.0,0.0,0.0,0.0,-0.9026,-0.8998,0.0,0.0,0.0,0.0,0.0,0.0,0.0,0.0,-1.0258,-1.12,-1.2298,-1.24,0.0,0.0,0.0,0.0,0.0,-1.3956,-1.4225,-1.4679,-1.6068,-1.5906,-1.533,0.0,0.0,0.0,0.0,0.0,0.0,0.0,0.0,0.0,0.0,0.0,0.0,0.0,0.0,0.0,0.0,0.0,-1.9862,-1.9556,-1.9178,-1.8955,-1.8881,-1.8143,-1.7623,-1.7301,-1.6834,-1.6293,-1.5564,-1.527,-1.4908,-1.4398,-1.4398,-1.4321,-1.4088,-1.4088,-1.4088,-1.4088,-1.4088,-1.4088,-1.4088,-1.4088,-1.4088,-1.4088,-1.4088,-1.4088,-1.4088,-1.4088,-1.4088,-1.4088,-1.4088,-1.4088,-1.4088,0.0,0.0,0.0,0.0,0.0,0.0,0.0,0.0,0.0,0.0,0.0,0.0,0.0,0.0,0.0,0.0,0.0,0.0,0.0,0.0,0.0,0.0,0.0,0.0,0.0,0.0,0.0,0.0,0.0,-1.6181,-1.6489,-1.521,-1.3525,-1.154,0.0,0.0,0.0,0.0,0.0,-0.9067,0.0,0.0,0.0,0.0,0.0,0.0,0.0,0.0,0.0,0.0,-1.0842,-1.1829,-1.2192,0.0,0.0,0.0,0.0,0.0,-1.4263,-1.4313,-1.4603,-1.6545,-1.643,-1.5831,0.0,0.0,0.0,0.0,0.0,0.0,0.0,0.0,0.0,0.0,0.0,0.0,0.0,0.0,0.0,0.0,0.0,-1.932,-1.9268,-1.8995,-1.8848,-1.8848,-1.8184,-1.7737,-1.7486,-1.6826,-1.6223,-1.5599,-1.512,-1.464,-1.4237,-1.3994,-1.4001,-1.4088,-1.4088,-1.4088,-1.4088,-1.4088,-1.4088,-1.4088,-1.4088,-1.4088,-1.4088,-1.4088,-1.4088,-1.4088,-1.4088,-1.4088,-1.4088,-1.4088,-1.4088,-1.4088,0.0,0.0,0.0,0.0,0.0,0.0,0.0,0.0,0.0,0.0,0.0,0.0,0.0,0.0,0.0,0.0,0.0,0.0,0.0,0.0,0.0,0.0,0.0,0.0,0.0,0.0,-1.3509,-1.4591,-1.5864,-1.646,-1.6438,-1.4873,-1.326,0.0,0.0,0.0,0.0,0.0,-0.9239,-0.9239,0.0,0.0,0.0,0.0,0.0,0.0,0.0,0.0,0.0,0.0,0.0,0.0,0.0,0.0,0.0,-1.3328,-1.3294,-1.342,-1.4398,-1.4402,-1.4618,-1.6583,0.0,0.0,0.0,0.0,0.0,0.0,0.0,0.0,0.0,0.0,0.0,0.0,0.0,0.0,0.0,-1.841,-1.8534,-1.8725,-1.8755,-1.8824,-1.8955,-1.8841,-1.8706,-1.8706,-1.8199,-1.7825,-1.7578,-1.6928,-1.6372,-1.5843,-1.5234,-1.4824,-1.4365,-1.3974,-1.3815,-1.3958,-1.3881,-1.3881,-1.3881,-1.3881,-1.3881,-1.3881,-1.3881,-1.3881,-1.3881,-1.3881,-1.3881,-1.3881,-1.3881,-1.3881,-1.3881,-1.3881,-1.3881,-1.3881,0.0,0.0,0.0,0.0,0.0,0.0,0.0,0.0,0.0,0.0,0.0,0.0,0.0,0.0,0.0,0.0,0.0,0.0,0.0,0.0,0.0,0.0,0.0,0.0,0.0,-1.2699,-1.3944,-1.5504,-1.5691,-1.5771,-1.5753,-1.4694,-1.3359,-1.1844,0.0,0.0,0.0,0.0,0.0,-0.9375,-0.9312,0.0,0.0,0.0,0.0,0.0,0.0,0.0,0.0,0.0,0.0,0.0,0.0,0.0,-1.2497,-1.3109,-1.3261,-1.3307,-1.3815,-1.412,-1.4646,-1.6083,0.0,0.0,0.0,0.0,0.0,0.0,0.0,0.0,0.0,0.0,0.0,0.0,0.0,0.0,-1.791,0.0,-1.8492,-1.8377,-1.8319,-1.8261,-1.8096,-1.788,-1.7802,-1.7802,-1.7458,-1.726,-1.726,-1.6974,-1.6736,-1.6444,-1.6029,-1.5597,-1.5219,-1.4606,-1.408,-1.3564,-1.3346,-1.3273,-1.3273,-1.3273,-1.3273,-1.3273,-1.3273,-1.3273,-1.3273,-1.3273,-1.3273,-1.3273,-1.3273,-1.3273,-1.3273,-1.3273,-1.3273,-1.3273,0.0,0.0,0.0,0.0,0.0,0.0,0.0,0.0,0.0,0.0,0.0,0.0,0.0,0.0,0.0,0.0,0.0,0.0,0.0,0.0,0.0,0.0,0.0,-1.1535,-1.201,-1.3322,-1.4566,-1.5717,-1.5784,-1.5826,-1.5789,-1.3812,0.0,0.0,0.0,0.0,0.0,0.0,0.0,-0.9457,-0.943,-0.9385,0.0,0.0,0.0,0.0,0.0,0.0,0.0,0.0,-0.9753,-1.0354,-1.0578,-1.1418,-1.2406,-1.2569,-1.2857,-1.3297,-1.4058,-1.4155,-1.4511,-1.6369,0.0,0.0,0.0,0.0,0.0,0.0,0.0,0.0,0.0,0.0,0.0,0.0,0.0,0.0,-1.8065,-1.818,-1.8144,-1.8144,-1.8144,-1.8076,-1.8008,-1.793,-1.7862,-1.7862,-1.7647,-1.7501,-1.7501,-1.7237,-1.6979,-1.6776,-1.6258,-1.5755,-1.5406,-1.4735,-1.4141,-1.3686,-1.348,-1.3351,-1.3351,-1.3286,-1.3213,-1.3213,-1.3213,-1.3213,-1.3213,-1.3213,-1.3213,-1.3213,-1.3213,-1.3213,-1.3213,-1.3213,-1.3213,-1.3213,0.0,0.0,0.0,0.0,0.0,0.0,0.0,0.0,0.0,0.0,0.0,0.0,0.0,0.0,0.0,0.0,0.0,0.0,0.0,0.0,0.0,0.0,0.0,-1.1159,-1.17,-1.3065,-1.4444,-1.5829,-1.5878,-1.5778,-1.5481,0.0,0.0,0.0,0.0,0.0,0.0,0.0,0.0,0.0,-0.9535,-0.9501,0.0,0.0,0.0,0.0,0.0,0.0,0.0,0.0,-0.9723,-1.0115,-1.026,-1.0941,-1.1781,-1.208,-1.2423,-1.2908,-1.3848,-1.3983,-1.4303,0.0,0.0,0.0,0.0,0.0,0.0,0.0,0.0,0.0,0.0,0.0,0.0,0.0,0.0,-1.7523,-1.815,-1.8076,-1.8008,-1.8008,-1.8008,-1.8008,-1.8008,-1.8008,-1.8008,-1.8008,-1.7862,-1.7784,-1.7784,-1.751,-1.7304,-1.7176,-1.6673,-1.6193,-1.585,-1.5125,-1.4553,-1.4057,-1.3766,-1.3439,-1.3215,-1.2997,-1.2926,-1.2926,-1.2926,-1.2926,-1.2926,-1.2926,-1.2926,-1.2926,-1.2926,-1.2926,-1.2926,-1.2926,-1.2926,-1.2926,0.0,0.0,0.0,0.0,0.0,0.0,0.0,0.0,0.0,0.0,0.0,0.0,0.0,0.0,0.0,0.0,0.0,0.0,0.0,0.0,0.0,0.0,0.0,-1.0884,-1.0909,-1.1751,-1.3402,-1.5881,-1.587,-1.5471,-1.4651,-1.2909,0.0,0.0,0.0,0.0,0.0,0.0,0.0,0.0,-0.9599,-0.955,-0.9508,0.0,0.0,0.0,0.0,0.0,0.0,0.0,-0.9448,-0.95,-1.0105,-1.025,-1.0448,-1.1714,-1.1992,-1.2085,-1.2968,-1.3504,0.0,0.0,0.0,0.0,0.0,0.0,0.0,0.0,0.0,0.0,0.0,0.0,0.0,-1.7554,-1.7346,-1.7416,-1.7958,-1.8008,-1.8008,-1.8008,-1.8008,-1.8008,-1.8008,-1.8008,-1.8008,-1.8008,-1.8008,-1.8008,-1.8008,-1.7784,-1.7706,-1.7706,-1.7373,-1.7019,-1.6603,-1.6044,-1.5409,-1.4569,-1.4049,-1.3397,-1.2599,-1.2378,-1.2305,-1.2305,-1.2305,-1.2305,-1.2305,-1.2305,-1.2305,-1.2305,-1.2305,-1.2305,-1.2305,-1.2305,-1.2305,-1.2305,0.0,0.0,0.0,0.0,0.0,0.0,0.0,0.0,0.0,0.0,0.0,0.0,0.0,0.0,0.0,0.0,0.0,0.0,0.0,0.0,0.0,0.0,0.0,0.0,0.0,0.0,-1.2707,-1.3441,-1.4007,-1.3849,0.0,0.0,0.0,-1.204,0.0,0.0,0.0,0.0,0.0,0.0,0.0,-0.9581,-0.9565,0.0,0.0,0.0,0.0,0.0,0.0,0.0,0.0,0.0,-0.9626,-0.9939,-1.0405,-1.1059,-1.1794,-1.2537,-1.3266,-1.4036,0.0,0.0,0.0,0.0,0.0,0.0,0.0,0.0,0.0,0.0,0.0,0.0,0.0,-1.7266,-1.7159,-1.7278,-1.7891,-1.8008,-1.8008,-1.8008,-1.8008,-1.8008,-1.8008,-1.8008,-1.8008,-1.8008,-1.8008,-1.8008,-1.8008,-1.794,-1.793,-1.793,-1.7647,-1.7373,-1.7028,-1.6473,-1.5771,-1.4991,-1.441,-1.376,-1.3046,-1.2826,-1.2673,-1.2526,-1.2526,-1.2452,-1.2305,-1.2305,-1.2305,-1.2305,-1.2305,-1.2305,-1.2305,-1.2305,-1.2305,-1.2305,0.0,0.0,0.0,0.0,0.0,0.0,0.0,0.0,0.0,0.0,0.0,0.0,0.0,0.0,0.0,0.0,0.0,0.0,0.0,0.0,0.0,0.0,0.0,0.0,0.0,-1.145,-1.1775,0.0,0.0,0.0,0.0,0.0,0.0,-1.2096,0.0,-1.0911,0.0,0.0,0.0,0.0,-0.9665,-0.9638,-0.9638,0.0,0.0,0.0,0.0,0.0,0.0,0.0,0.0,0.0,-0.9457,-0.9844,-1.0418,-1.0818,-1.1711,-1.2704,-1.3321,0.0,0.0,0.0,0.0,0.0,0.0,0.0,0.0,0.0,0.0,0.0,0.0,0.0,0.0,-1.691,-1.6837,-1.6898,-1.7402,-1.75,-1.75,-1.75,-1.75,-1.75,-1.75,-1.75,-1.75,-1.75,-1.75,-1.75,-1.75,-1.75,-1.7578,-1.7754,-1.761,-1.7543,-1.7373,-1.689,-1.6263,-1.548,-1.4991,-1.4418,-1.363,-1.3193,-1.29,-1.2673,-1.2526,-1.2378,-1.2305,-1.2305,-1.2305,-1.2305,-1.2305,-1.2305,-1.2305,-1.2305,-1.2305,-1.2305,0.0,0.0,-1.0284,-1.0201,0.0,0.0,0.0,0.0,0.0,0.0,0.0,-1.001,0.0,0.0,0.0,-0.99,0.0,0.0,0.0,0.0,0.0,0.0,0.0,0.0,0.0,0.0,0.0,0.0,0.0,0.0,0.0,0.0,-1.2304,-1.2271,0.0,-1.1075,0.0,0.0,0.0,0.0,-0.9698,-0.9698,-0.9698,-0.9698,0.0,0.0,0.0,0.0,0.0,0.0,0.0,0.0,-0.9536,-0.9877,-1.0392,-1.0873,-1.1712,-1.2612,0.0,0.0,0.0,0.0,0.0,0.0,0.0,0.0,0.0,0.0,0.0,0.0,0.0,0.0,-1.6555,-1.6487,-1.6377,-1.6404,-1.667,-1.6665,-1.6665,-1.6665,-1.6665,-1.6665,-1.6665,-1.6665,-1.6665,-1.6665,-1.6665,-1.6665,-1.6665,-1.6665,-1.6914,-1.7314,-1.7324,-1.7434,-1.7591,-1.726,-1.6711,-1.5939,-1.5641,-1.5163,-1.4386,-1.3615,-1.3119,-1.29,-1.2526,-1.2378,-1.2378,-1.2378,-1.2378,-1.2378,-1.2305,-1.2305,-1.2305,-1.2305,-1.2305,-1.2305,0.0,0.0,-1.0284,-1.0201,0.0,0.0,0.0,0.0,0.0,-1.01,-1.003,-1.0006,-1.001,-0.9933,0.0,-0.99,-0.9842,0.0,0.0,0.0,0.0,0.0,0.0,0.0,0.0,0.0,0.0,0.0,0.0,0.0,0.0,0.0,0.0,-1.3122,0.0,-1.2436,0.0,0.0,0.0,-0.9698,-0.9698,-0.9698,-0.9698,-0.9698,-0.9698,0.0,0.0,0.0,0.0,0.0,0.0,0.0,-0.9587,-0.9601,-0.9804,-1.0787,-1.1645,-1.2515,0.0,0.0,0.0,0.0,0.0,0.0,0.0,0.0,0.0,0.0,0.0,0.0,0.0,-1.64,-1.6257,-1.6297,-1.6246,-1.6282,-1.667,-1.6665,-1.6665,-1.6665,-1.6665,-1.6665,-1.6665,-1.6665,-1.6665,-1.6665,-1.6665,-1.6665,-1.6665,-1.6665,-1.6777,-1.6865,-1.6875,-1.6776,-1.6651,-1.6476,-1.6095,-1.5503,-1.5595,-1.5326,-1.4739,-1.4157,-1.363,-1.3119,-1.2673,-1.2673,-1.2973,-1.2826,-1.2893,-1.2973,-1.2673,-1.2526,-1.2526,-1.2378,-1.2305,-1.2305,0.0,0.0,0.0,0.0,0.0,0.0,0.0,0.0,-1.0093,-1.01,-1.0077,-1.0039,-0.9996,-0.9963,0.0,0.0,-0.9843,-0.9808,0.0,0.0,0.0,0.0,0.0,0.0,0.0,0.0,0.0,0.0,0.0,0.0,0.0,0.0,0.0,-1.3439,0.0,-1.2888,0.0,0.0,0.0,-0.9698,-0.9698,-0.9698,-0.9698,-0.9698,-0.9698,-0.9698,-0.9698,0.0,0.0,0.0,0.0,0.0,0.0,0.0,-1.0049,-1.0487,-1.1482,-1.2571,0.0,0.0,0.0,0.0,0.0,0.0,0.0,0.0,0.0,0.0,0.0,0.0,0.0,-1.6637,-1.6368,-1.6254,-1.6059,-1.5959,-1.6074,-1.6103,-1.6103,-1.6103,-1.6103,-1.6103,-1.6103,-1.6103,-1.6103,-1.6103,-1.6103,-1.6103,-1.6103,-1.6103,-1.6191,-1.6406,-1.6416,-1.6451,-1.6529,-1.6402,-1.6083,-1.5633,-1.5704,-1.534,-1.4572,-1.4324,-1.392,-1.3499,-1.3258,-1.3251,-1.3477,-1.3404,-1.3339,-1.3273,-1.29,-1.2673,-1.2599,-1.2378,-1.2305,-1.2305,0.0,0.0,0.0,0.0,0.0,0.0,0.0,0.0,0.0,-1.0104,-1.011,-1.0073,-1.0025,-1.0017,-0.9973,0.0,0.0,0.0,-0.981,0.0,0.0,0.0,0.0,0.0,0.0,0.0,0.0,0.0,0.0,0.0,0.0,0.0,0.0,-1.4128,0.0,0.0,0.0,0.0,-1.0553,-0.9698,-0.9698,-0.9672,-0.9672,-0.9691,-0.9691,-0.9672,-0.9672,-0.9698,-0.9698,-0.9698,0.0,0.0,0.0,0.0,-1.0367,-1.0187,-1.1289,-1.2614,0.0,0.0,0.0,0.0,0.0,0.0,0.0,0.0,0.0,0.0,0.0,0.0,-1.7379,-1.7043,-1.6694,-1.6285,-1.5951,-1.572,-1.5526,-1.5468,-1.5478,-1.5478,-1.541,-1.541,-1.541,-1.541,-1.541,-1.541,-1.541,-1.541,-1.541,-1.541,-1.5576,-1.5998,-1.5947,-1.6133,-1.6441,-1.6297,-1.6109,-1.5804,-1.5688,-1.523,-1.4527,-1.4458,-1.4277,-1.3924,-1.3954,-1.3977,-1.4122,-1.4042,-1.3912,-1.3702,-1.3258,-1.2966,-1.2746,-1.2599,-1.2526,-1.2452,0.0,0.0,0.0,0.0,0.0,0.0,0.0,0.0,0.0,0.0,-1.0104,-1.011,-1.0092,-1.0029,-0.9987,-0.9997,-0.9919,-0.9882,0.0,0.0,0.0,0.0,0.0,0.0,0.0,0.0,0.0,0.0,0.0,0.0,0.0,0.0,0.0,0.0,0.0,0.0,0.0,0.0,0.0,-0.9698,-0.9638,-0.9605,-0.9605,-0.9607,-0.9607,-0.9605,-0.9605,-0.9638,-0.9698,-0.9698,-0.9698,0.0,0.0,0.0,0.0,-1.0157,-1.1107,0.0,0.0,0.0,0.0,0.0,0.0,0.0,0.0,0.0,0.0,0.0,0.0,0.0,-1.7523,-1.719,-1.6909,-1.6751,-1.6353,-1.6056,-1.5999,-1.5836,-1.5672,-1.5672,-1.5536,-1.541,-1.541,-1.541,-1.541,-1.541,-1.541,-1.541,-1.541,-1.541,-1.5439,-1.5498,-1.5498,-1.5527,-1.5586,-1.5527,-1.5478,-1.526,-1.5327,-1.5349,-1.5413,-1.5269,-1.4841,-1.4351,-1.4411,-1.476,-1.5284,-1.4911,-1.476,-1.4689,-1.4122,-1.3848,-1.3645,-1.3419,-1.32,-1.3046,0.0,0.0,0.0,0.0,0.0,0.0,0.0,0.0,0.0,0.0,0.0,-1.01,-1.0101,-1.0035,-1.0,-0.9995,-0.9973,0.0,0.0,0.0,0.0,0.0,0.0,0.0,0.0,0.0,0.0,0.0,0.0,0.0,0.0,-1.5696,-1.6586,0.0,0.0,0.0,0.0,0.0,0.0,-1.0306,-1.0283,-1.0257,-1.0276,0.0,-1.0884,-1.0839,-1.0385,-1.023,-1.0193,-0.9795,-0.9638,-0.9638,-0.9605,0.0,0.0,0.0,0.0,0.0,0.0,0.0,0.0,0.0,0.0,0.0,0.0,0.0,0.0,0.0,0.0,-1.7855,-1.8078,-1.7897,-1.7623,-1.7245,-1.6909,-1.6627,-1.64,-1.6181,-1.6009,-1.5951,-1.572,-1.5546,-1.5546,-1.5478,-1.541,-1.541,-1.541,-1.541,-1.541,-1.541,-1.541,-1.541,-1.541,-1.541,-1.541,-1.541,-1.5303,-1.5215,-1.5031,-1.5018,-1.5124,-1.5114,-1.4983,-1.4764,-1.4917,-1.5129,-1.529,-1.536,-1.516,-1.4907,-1.4617,-1.4346,-1.4065,-1.392,-1.3775,-1.3695,0.0,0.0,0.0,0.0,0.0,0.0,0.0,0.0,0.0,0.0,0.0,-1.0097,-1.0095,0.0,0.0,0.0,-1.0036,0.0,0.0,0.0,0.0,0.0,0.0,0.0,0.0,0.0,0.0,0.0,0.0,0.0,-1.4726,-1.6064,-1.698,0.0,-1.6515,0.0,0.0,0.0,0.0,-1.1123,-1.1304,-1.1318,-1.135,-1.2106,-1.2418,-1.2322,0.0,0.0,0.0,0.0,-0.9899,-0.9871,0.0,0.0,0.0,0.0,0.0,0.0,0.0,0.0,0.0,0.0,0.0,0.0,0.0,0.0,0.0,0.0,0.0,-1.8019,-1.8382,-1.8319,-1.8093,-1.7662,-1.749,-1.7346,-1.7011,-1.674,-1.6457,-1.6332,-1.6066,-1.5846,-1.5788,-1.5604,-1.5478,-1.5478,-1.541,-1.541,-1.541,-1.541,-1.541,-1.541,-1.541,-1.541,-1.541,-1.541,-1.5362,-1.5264,-1.501,-1.4883,-1.4893,-1.5023,-1.5084,-1.5115,-1.5331,-1.5431,-1.5393,-1.5671,-1.5516,-1.5232,-1.5158,-1.5035,-1.4832,-1.4689,-1.4625,-1.4482,0.0,0.0,0.0,0.0,0.0,0.0,0.0,0.0,0.0,0.0,0.0,-1.0106,-1.0094,-1.0089,-1.0091,-1.0092,-1.0092,0.0,0.0,0.0,0.0,0.0,0.0,0.0,0.0,0.0,0.0,0.0,0.0,0.0,-1.3885,-1.4657,-1.6201,-1.8292,-1.7368,-1.6448,-1.5527,0.0,0.0,0.0,-1.2706,-1.2903,-1.2859,-1.3538,-1.3842,-1.3782,0.0,0.0,0.0,0.0,0.0,0.0,0.0,-0.9657,-0.9581,0.0,0.0,0.0,0.0,0.0,0.0,0.0,0.0,0.0,0.0,0.0,0.0,0.0,-1.8601,-1.838,-1.8147,-1.803,-1.7922,-1.7871,-1.8007,-1.8038,-1.8038,-1.7512,-1.7078,-1.6955,-1.657,-1.6239,-1.6114,-1.5836,-1.5672,-1.5672,-1.5536,-1.541,-1.541,-1.541,-1.541,-1.541,-1.541,-1.541,-1.541,-1.541,-1.541,-1.541,-1.5352,-1.5352,-1.5352,-1.5371,-1.54,-1.541,-1.5726,-1.5955,-1.6102,-1.5983,-1.6011,-1.6093,-1.5977,-1.6064,-1.6237,-1.6167,-1.5965,-1.5692,0.0,0.0,0.0,0.0,0.0,0.0,0.0,0.0,0.0,0.0,0.0,0.0,0.0,-1.0101,-1.0104,-1.0091,-1.01,0.0,0.0,0.0,0.0,0.0,0.0,0.0,0.0,0.0,0.0,0.0,0.0,-1.2219,-1.3809,-1.4543,-1.5845,-1.7528,-1.6645,-1.6306,-1.6321,-1.4198,0.0,0.0,-1.3726,-1.4284,0.0,-1.5746,-1.6308,-1.6551,0.0,0.0,0.0,0.0,0.0,0.0,-1.044,-1.0002,-0.9583,-0.9525,0.0,0.0,0.0,0.0,0.0,0.0,0.0,0.0,0.0,0.0,0.0,0.0,-1.7942,-1.7709,-1.739,-1.7666,-1.7885,-1.7762,-1.7757,-1.7713,-1.7498,-1.7427,-1.7368,-1.7196,-1.6994,-1.6797,-1.6673,-1.6343,-1.6066,-1.5941,-1.572,-1.5604,-1.5604,-1.5478,-1.541,-1.541,-1.541,-1.541,-1.541,-1.541,-1.541,-1.541,-1.541,-1.541,-1.541,-1.541,-1.541,-1.543,-1.5504,-1.5587,-1.5565,-1.5761,-1.5773,-1.5643,-1.6158,-1.6309,-1.6338,-1.6591,-1.6612,-1.6482,0.0,0.0,0.0,-1.029,0.0,-1.0305,-1.0297,-1.024,-1.02,-1.0205,0.0,0.0,0.0,0.0,-1.0097,-1.0089,-1.0097,0.0,0.0,0.0,0.0,0.0,0.0,0.0,0.0,0.0,0.0,0.0,0.0,0.0,0.0,0.0,-1.4466,-1.5859,-1.5255,-1.5563,0.0,0.0,0.0,-1.4736,0.0,0.0,-1.6991,0.0,-1.8469,-1.863,0.0,0.0,0.0,0.0,0.0,0.0,-1.1548,-1.0812,-0.9939,-0.9623,0.0,0.0,0.0,0.0,0.0,0.0,0.0,0.0,0.0,0.0,0.0,0.0,-1.7543,-1.7249,-1.716,-1.7434,-1.7643,-1.7575,-1.7652,-1.7666,-1.7448,-1.7464,-1.7475,-1.735,-1.713,-1.697,-1.6851,-1.6373,-1.6053,-1.5932,-1.5665,-1.5451,-1.5395,-1.5216,-1.5103,-1.5047,-1.5127,-1.5205,-1.5205,-1.5342,-1.541,-1.541,-1.541,-1.541,-1.541,-1.541,-1.541,-1.541,-1.541,-1.5362,-1.5283,-1.5563,-1.5635,-1.5643,-1.6182,-1.6365,-1.6496,-1.6899,-1.7048,-1.6989,-1.0208,-1.0207,-1.0214,-1.0283,-1.0293,-1.029,-1.0306,-1.0235,-1.0199,-1.0207,0.0,0.0,0.0,0.0,0.0,-1.0133,-1.0113,-1.0094,-1.0094,-1.0094,0.0,0.0,0.0,0.0,0.0,0.0,0.0,0.0,0.0,0.0,0.0,0.0,-1.2012,0.0,-1.3392,-1.4191,-1.5558,0.0,-1.4904,-1.5664,0.0,-1.7893,-1.8506,0.0,0.0,0.0,-1.9217,-1.862,0.0,-1.6565,0.0,0.0,0.0,-1.2003,-1.0676,-0.9899,-1.0185,0.0,0.0,0.0,0.0,0.0,0.0,0.0,0.0,0.0,0.0,0.0,-1.7469,-1.7235,-1.7612,-1.7297,-1.7098,-1.7352,-1.7697,-1.7939,-1.7939,-1.7738,-1.7509,-1.7315,-1.6936,-1.6662,-1.6539,-1.6047,-1.565,-1.5526,-1.5289,-1.5018,-1.4756,-1.4724,-1.4576,-1.4301,-1.4606,-1.4766,-1.4766,-1.5186,-1.5391,-1.5391,-1.54,-1.541,-1.541,-1.541,-1.541,-1.541,-1.541,-1.541,-1.541,-1.541,-1.5664,-1.6105,-1.6115,-1.6328,-1.6768,-1.7197,-1.7288,-1.7129,-1.0196,-1.0202,-1.0228,-1.0295,-1.0305,-1.0292,-1.0292,-1.0287,-1.0276,0.0,0.0,0.0,-1.1131,-1.1077,-1.103,-1.1041,-1.0464,-1.0094,-1.0094,-1.0094,-1.0094,-1.0094,-1.0094,-1.0094,0.0,0.0,0.0,0.0,0.0,0.0,0.0,0.0,0.0,0.0,-1.2573,-1.2771,-1.3231,-1.4118,0.0,0.0,-1.7268,-1.8469,0.0,0.0,0.0,0.0,0.0,-1.9899,-1.9224,0.0,-1.6935,-1.5052,0.0,0.0,0.0,-1.1397,-1.1507,0.0,-1.2561,0.0,0.0,0.0,0.0,0.0,0.0,0.0,0.0,-1.688,-1.7323,-1.759,-1.7394,-1.7463,-1.7528,-1.7408,-1.7191,-1.7043,-1.7043,-1.7182,-1.7291,-1.7233,-1.7291,-1.7265,-1.7083,-1.67,-1.635,0.0,-1.5793,-1.5496,-1.5433,-1.5081,-1.4777,-1.4576,-1.4473,-1.4424,-1.4424,-1.4802,-1.4961,-1.4961,-1.5264,-1.541,-1.541,-1.541,-1.541,-1.541,-1.541,-1.541,-1.541,-1.541,-1.5488,-1.5625,-1.5998,-1.6143,-1.6309,-1.6748,-1.685,-1.686,-1.0186,-1.0205,-1.0212,-1.0247,-1.0552,-1.0815,-1.084,-1.1131,-1.134,0.0,0.0,0.0,0.0,-1.1964,-1.1804,-1.143,-1.0944,-1.0483,-1.0113,-1.0094,-1.0094,-1.0094,-1.0094,-1.0094,0.0,0.0,0.0,0.0,0.0,0.0,0.0,0.0,0.0,0.0,0.0,-1.1727,-1.1798,-1.3338,0.0,0.0,-1.7521,0.0,0.0,-2.1204,-2.159,0.0,0.0,0.0,-2.0154,-1.9993,-1.8579,0.0,0.0,-1.3679,-1.2912,-1.295,-1.2774,0.0,0.0,0.0,0.0,0.0,0.0,0.0,-1.5251,-1.578,0.0,0.0,-1.7086,-1.7543,-1.744,-1.7436,-1.7509,-1.7577,-1.7237,-1.6924,-1.685,-1.6997,-1.7081,-1.7005,-1.7086,-1.7076,-1.6912,-1.6586,-1.6362,-1.6219,-1.5873,-1.5594,-1.5448,-1.4956,-1.4608,-1.4518,-1.4348,-1.4242,-1.4148,-1.4415,-1.4566,-1.4521,-1.4941,-1.5146,-1.5156,-1.5332,-1.541,-1.541,-1.541,-1.541,-1.541,-1.541,-1.541,-1.5439,-1.5693,-1.5791,-1.585,-1.6289,-1.6455,-1.6484,0.0,-1.0196,-1.0238,-1.0332,-1.0994,-1.1553,-1.1717,-1.2343,-1.2808,0.0,-1.2953,-1.3121,0.0,-1.3094,-1.2675,-1.1891,-1.156,-1.1079,-1.0306,-1.0152,-1.0094,-1.0094,-1.0094,-1.0094,-1.0098,0.0,0.0,0.0,0.0,0.0,0.0,0.0,0.0,0.0,-1.0645,-1.0927,-1.0978,-1.2511,-1.4027,-1.555,-1.7737,-1.9237,0.0,0.0,-2.1764,-2.1433,-2.1573,-2.1282,-2.0865,-2.1042,-1.9925,0.0,0.0,-1.5566,-1.4455,-1.4521,-1.4089,0.0,-1.5444,-1.5755,0.0,0.0,-1.5826,0.0,-1.481,-1.5456,-1.6334,0.0,-1.6913,-1.7315,-1.7636,-1.7382,-1.733,-1.7819,-1.7638,-1.738,-1.7149,-1.7073,-1.7002,-1.6803,-1.6663,-1.6522,-1.6479,-1.6219,-1.6001,-1.5881,-1.5736,-1.5501,-1.5153,-1.4743,-1.4419,-1.4269,-1.4306,-1.4192,-1.3902,-1.418,-1.4222,-1.4116,-1.4557,-1.4792,-1.4851,-1.5176,-1.5371,-1.541,-1.541,-1.541,-1.541,-1.541,-1.541,-1.541,-1.541,-1.541,-1.5459,-1.585,-1.5986,-1.6045,-1.0117,-1.017,-1.0425,-1.1122,-1.1395,-1.1747,-1.2451,-1.2694,-1.2793,-1.2806,-1.3978,0.0,0.0,0.0,-1.4645,-1.4464,-1.2579,-1.1329,-1.1156,-1.0483,-1.0094,-1.0094,-1.0094,-1.0098,-1.011,-1.011,0.0,0.0,0.0,0.0,0.0,0.0,0.0,0.0,-1.0086,-1.0126,-1.0206,-1.1698,0.0,-1.4774,-1.7489,0.0,-2.0338,-2.1596,-2.1853,-2.1573,-2.1708,-2.1685,-2.1558,-2.121,-2.0169,-1.8901,0.0,-1.6976,-1.5985,-1.6061,-1.6085,-1.6306,-1.7268,-1.7049,-1.6678,-1.7245,-1.6888,0.0,-1.5871,-1.6278,-1.6703,0.0,-1.7215,-1.7866,-1.7663,-1.7851,-1.8005,-1.7839,-1.8168,-1.8281,-1.7853,-1.7557,-1.7352,-1.7282,-1.7031,-1.6918,-1.6876,-1.6607,-1.6392,-1.6349,-1.6076,-1.5812,-1.5501,-1.5266,-1.4994,-1.4766,-1.4403,-1.4137,-1.3968,-1.421,-1.4236,-1.4135,-1.4518,-1.4814,-1.4962,-1.5041,-1.5212,-1.541,-1.541,-1.541,-1.541,-1.541,-1.541,-1.541,-1.541,-1.541,-1.542,-1.5508,-1.5537,-1.5557,-1.011,-1.0136,-1.0443,-1.1338,-1.1865,-1.2435,-1.3318,-1.3823,-1.4258,-1.4682,0.0,0.0,0.0,0.0,0.0,0.0,-1.399,-1.2706,-1.1427,-1.0966,-1.0547,-1.0125,-1.0098,-1.0106,-1.0094,-1.0136,-1.0163,0.0,0.0,0.0,0.0,0.0,0.0,0.0,0.0,-1.0772,-1.1246,0.0,-1.3917,-1.5126,-1.763,0.0,-2.0436,-2.1732,-2.2044,-2.1768,-2.1827,-2.1915,-2.1969,-2.1771,-2.1036,0.0,-1.9912,-1.8972,-1.8089,0.0,-1.8609,-1.8683,-1.9515,-1.9492,-1.9141,-1.8661,0.0,0.0,0.0,-1.6817,-1.7163,-1.6912,-1.7538,-1.7954,-1.7272,-1.7631,-1.7877,-1.7567,-1.7966,-1.8315,-1.8199,-1.8214,-1.808,-1.7774,-1.7585,-1.7434,-1.7282,-1.706,-1.6892,-1.6778,-1.6436,-1.6207,-1.6076,-1.58,-1.5534,-1.5266,-1.4903,-1.4593,-1.4302,-1.4339,-1.4253,-1.4049,-1.4407,-1.4604,-1.4639,-1.5029,-1.5239,-1.5345,-1.5611,-1.571,-1.5662,-1.571,-1.5652,-1.5546,-1.542,-1.541,-1.541,-1.541,-1.541,-1.541,-1.009,-1.0113,-1.0456,-1.1538,-1.2326,-1.315,-1.4186,-1.509,-1.6074,0.0,0.0,0.0,0.0,0.0,0.0,0.0,0.0,-1.4379,-1.2183,-1.1939,-1.1499,-1.0616,-1.0425,-1.0344,-1.0348,-1.0243,-1.0192,0.0,0.0,0.0,0.0,0.0,0.0,0.0,0.0,0.0,0.0,0.0,0.0,-1.5918,0.0,-1.9398,-2.0563,-2.19,-2.2231,-2.1957,-2.1974,-2.2077,-2.2242,-2.2282,-2.1841,-2.1284,-2.1413,-2.0679,0.0,0.0,0.0,-2.0626,0.0,-2.1698,-2.1368,-1.9983,0.0,-1.8939,0.0,0.0,0.0,-1.7648,-1.7995,0.0,0.0,0.0,0.0,0.0,0.0,0.0,0.0,-1.8303,0.0,-1.8026,-1.7876,-1.7752,-1.7558,-1.7383,-1.714,-1.6749,-1.6561,-1.6443,-1.6413,-1.6201,-1.6001,-1.5724,-1.5501,-1.5187,-1.48,-1.4651,-1.4455,-1.4212,-1.4419,-1.4507,-1.4424,-1.5049,-1.5331,-1.5361,-1.5884,-1.6099,-1.6087,-1.6181,-1.6066,-1.5788,-1.5536,-1.541,-1.541,-1.541,-1.541,-1.541,-1.0094,-1.0159,-1.0698,-1.2289,-1.2698,-1.3347,-1.4998,-1.5982,-1.7402,0.0,0.0,0.0,0.0,0.0,0.0,0.0,0.0,0.0,-1.4735,0.0,-1.3223,-1.2357,-1.1637,-1.1254,-1.1247,-1.0563,-1.0206,-1.0193,0.0,0.0,0.0,0.0,-1.0536,-1.1321,-1.1988,0.0,0.0,0.0,-1.5945,0.0,-1.8181,-1.948,0.0,-2.1917,-2.2304,-2.2163,-2.2168,-2.2225,-2.2282,0.0,-2.1813,-2.1206,0.0,-2.0897,-2.0523,-2.074,0.0,0.0,0.0,0.0,0.0,0.0,-2.0734,-2.0007,-1.9049,0.0,-1.8892,-1.8752,0.0,0.0,0.0,0.0,0.0,0.0,0.0,0.0,-1.6492,-1.6946,-1.7373,-1.7566,-1.7364,-1.734,-1.7636,-1.7219,-1.6594,-1.5721,-1.6062,-1.6241,-1.6064,-1.63,-1.6349,-1.6144,-1.5881,-1.5647,-1.5501,-1.5424,-1.5244,-1.4971,-1.5028,-1.4998,-1.4936,-1.4995,-1.5337,-1.5921,-1.5974,-1.6293,-1.6705,-1.6581,-1.641,-1.6181,-1.5788,-1.5546,-1.541,-1.541,-1.541,-1.541,-1.0113,-1.0147,-1.0724,-1.2405,-1.2759,-1.3392,-1.5129,-1.7005,-1.8767,0.0,0.0,0.0,0.0,0.0,0.0,0.0,0.0,-1.8324,0.0,0.0,0.0,-1.3385,-1.3015,-1.2396,-1.1423,-1.1077,-1.0666,-1.0209,-1.0196,0.0,0.0,0.0,-1.0804,-1.2083,-1.2783,0.0,-1.5047,0.0,-1.727,0.0,0.0,0.0,0.0,-2.1575,-2.2041,-2.2254,-2.2254,-2.2282,-2.231,0.0,-2.209,0.0,0.0,0.0,0.0,-2.1913,0.0,0.0,0.0,0.0,0.0,0.0,0.0,0.0,-1.951,-1.9235,-1.9198,0.0,0.0,0.0,0.0,0.0,0.0,0.0,-1.7029,0.0,0.0,0.0,-1.6518,0.0,0.0,0.0,-1.7602,-1.722,-1.678,-1.628,-1.6531,-1.6611,-1.6349,-1.6638,-1.665,-1.6392,-1.6262,-1.6088,-1.5812,-1.5812,-1.5691,-1.5525,-1.5424,-1.5291,-1.5174,-1.5384,-1.5548,-1.5694,-1.6409,-1.6784,-1.6896,-1.7236,-1.7078,-1.6524,-1.6181,-1.5836,-1.5546,-1.542,-1.541,-1.541,-1.0815,0.0,0.0,-1.2784,-1.3125,-1.3912,-1.612,-1.828,-2.013,-2.1391,0.0,0.0,-2.3512,-2.3179,0.0,0.0,-2.157,-2.0565,0.0,0.0,-1.7254,-1.5255,-1.4788,-1.3909,-1.2478,-1.2217,-1.1578,-1.0528,-1.0536,0.0,0.0,0.0,0.0,-1.2617,0.0,-1.4963,-1.6761,0.0,-1.8922,-1.9097,-2.0526,-2.1078,-2.1115,-2.1599,-2.1993,-2.231,-2.231,-2.231,-2.231,-2.231,-2.231,0.0,-2.231,-2.2432,-2.2605,0.0,0.0,0.0,-2.3567,0.0,0.0,0.0,0.0,-2.1223,-1.965,-1.9295,-1.9363,-1.9588,0.0,0.0,0.0,0.0,0.0,0.0,0.0,-1.6767,0.0,-1.5623,0.0,0.0,0.0,0.0,0.0,-1.6542,-1.6358,-1.6225,-1.6522,-1.6674,-1.655,-1.6956,-1.7031,-1.6693,-1.665,-1.6479,-1.6175,-1.6175,-1.6088,-1.5957,-1.5869,-1.5724,-1.5501,-1.5764,-1.5822,-1.5782,-1.6723,-1.7145,-1.7276,-1.7695,-1.7555,-1.7088,-1.6627,-1.6239,-1.5778,-1.5468,-1.541,-1.541,-1.2629,-1.1986,0.0,0.0,-1.4053,-1.5219,-1.8646,-1.9961,-2.1457,-2.3954,0.0,0.0,0.0,0.0,0.0,0.0,0.0,-2.1875,-2.0947,0.0,-1.9473,-1.8678,-1.7137,-1.5925,-1.5094,-1.4242,-1.3012,-1.1362,-1.1354,-1.0922,0.0,0.0,0.0,0.0,0.0,-1.6158,-1.8416,-1.9977,-2.0952,-2.1479,-2.1348,-2.1448,-2.1722,0.0,-2.2388,-2.231,-2.231,0.0,0.0,-2.231,-2.231,-2.231,-2.231,0.0,0.0,0.0,0.0,0.0,0.0,-2.3522,-2.3322,-2.1718,-2.1421,-2.1098,-1.9567,-1.9246,-1.951,-2.0301,-2.0466,-2.0704,0.0,0.0,0.0,0.0,0.0,0.0,0.0,0.0,0.0,0.0,0.0,0.0,0.0,-1.4821,-1.4878,0.0,-1.5453,-1.607,-1.6387,-1.7204,-1.7516,-1.7199,-1.7002,-1.6803,-1.6675,-1.6534,-1.6436,-1.6392,-1.6392,-1.6262,-1.6001,-1.6013,-1.6215,-1.6584,-1.6608,-1.7207,-1.8154,-1.7836,-1.7762,-1.7788,-1.7234,-1.6616,-1.6056,-1.5584,-1.541,-1.541,0.0,0.0,0.0,0.0,0.0,-1.6135,-1.9628,-2.0859,-2.2314,0.0,-2.5673,0.0,0.0,-2.6515,-2.6148,0.0,0.0,-2.4241,-2.3363,-2.2628,0.0,-2.0388,-1.9836,-1.8669,-1.6766,-1.5902,-1.4693,-1.3046,-1.2522,-1.2103,0.0,0.0,0.0,0.0,0.0,-1.6829,0.0,0.0,0.0,0.0,0.0,-2.2225,-2.2635,0.0,-2.2515,-2.2366,-2.2366,-2.2338,-2.231,-2.231,-2.231,-2.231,-2.231,-2.2394,-2.2487,-2.2569,-2.279,-2.3028,-2.3095,-2.3313,-2.3249,-2.2218,-2.1644,-2.1096,-2.0082,-1.9532,-1.9451,-2.0273,-2.0438,-2.0693,-2.1533,0.0,0.0,0.0,0.0,0.0,0.0,0.0,0.0,0.0,0.0,0.0,0.0,0.0,-1.5058,-1.5257,-1.5615,0.0,-1.6827,-1.7269,-1.7525,-1.7544,-1.7337,-1.7099,-1.6846,-1.6718,-1.6577,-1.6479,-1.6479,-1.6392,-1.6262,-1.6262,-1.6286,-1.6349,-1.6782,-1.7358,-1.7958,-1.8111,-1.8142,-1.8116,-1.7567,-1.7022,-1.6467,-1.5836,-1.5536,-1.541,-1.5231,0.0,0.0,0.0,0.0,-1.8117,-2.0664,-2.2262,0.0,0.0,-2.6779,0.0,-2.7678,0.0,-2.7277,0.0,-2.6525,-2.5837,-2.4979,-2.4241,0.0,-2.1977,-2.1708,-2.0729,-1.8868,-1.8041,-1.6682,-1.48,-1.3981,-1.3281,0.0,0.0,0.0,0.0,0.0,0.0,-1.9168,0.0,-2.1763,0.0,0.0,-2.2972,0.0,0.0,-2.2685,-2.2432,0.0,-2.2366,-2.231,-2.231,-2.231,-2.231,-2.231,-2.2338,-2.2405,-2.246,-2.2605,-2.2816,-2.2842,-2.3045,-2.3047,-2.2316,-2.1868,-2.1444,-2.0731,-2.0228,-2.0173,-2.1007,-2.1189,-2.1443,-2.2263,0.0,0.0,0.0,0.0,0.0,0.0,-1.4794,0.0,0.0,0.0,0.0,0.0,0.0,-1.4709,-1.5374,-1.5562,0.0,0.0,-1.7597,-1.7801,-1.8014,-1.7774,-1.7419,-1.7099,-1.6888,-1.6705,-1.6565,-1.6565,-1.6522,-1.6436,-1.6436,-1.6392,-1.6331,-1.6766,-1.7352,-1.7943,-1.8191,-1.835,-1.8506,-1.8073,-1.7523,-1.6976,-1.6124,-1.572,-1.5536,-1.7798,0.0,0.0,0.0,-1.8923,0.0,0.0,0.0,-2.6008,0.0,-2.7602,-2.7981,-2.7742,-2.7552,-2.7344,-2.7139,-2.7009,-2.6637,-2.5876,-2.5128,0.0,0.0,-2.2867,-2.2128,-2.1372,-2.0508,-1.8916,-1.6582,-1.5683,-1.4442,0.0,0.0,0.0,0.0,-1.5654,0.0,-2.0002,-2.1466,-2.2959,-2.4266,-2.3878,-2.3598,-2.3407,-2.3265,-2.2902,-2.2515,-2.2432,-2.2349,-2.231,-2.231,-2.231,-2.231,-2.231,-2.2338,-2.2394,-2.2394,-2.2487,-2.2579,-2.2579,-2.2738,-2.272,-2.2021,-2.2025,-2.2016,-2.1375,-2.1263,-2.1522,-2.2395,-2.2596,-2.2851,-2.3731,0.0,0.0,0.0,0.0,0.0,0.0,0.0,0.0,0.0,0.0,0.0,0.0,0.0,-1.3884,-1.4965,-1.5264,0.0,0.0,-1.8186,-1.8397,-1.8598,-1.8252,-1.7841,-1.7446,-1.717,-1.6918,-1.6718,-1.6718,-1.6633,-1.6522,-1.6522,-1.6522,-1.6522,-1.6522,-1.7162,-1.8204,-1.8037,-1.8375,-1.8987,-1.8721,-1.8182,-1.7412,-1.6446,-1.5951,-1.573,-1.7786,-1.8887,-1.9954,0.0,-2.0543,-2.1094,0.0,0.0,0.0,0.0,-2.847,-2.9061,-2.95,-2.9319,-2.9078,-2.8876,-2.8201,0.0,0.0,0.0,0.0,-2.6077,-2.5308,-2.4532,-2.3731,-2.1828,-2.0281,-1.9153,-1.7099,0.0,-1.5503,0.0,0.0,0.0,0.0,0.0,-2.0072,-2.1561,-2.2975,-2.4209,-2.4056,-2.3855,-2.3602,0.0,-2.3144,-2.2825,-2.2649,-2.2432,-2.231,-2.231,-2.231,-2.231,-2.231,-2.231,-2.2338,-2.2338,-2.2394,-2.246,-2.246,-2.2569,-2.2634,-2.2479,-2.2188,-2.1867,-2.1743,-2.1361,-2.1253,-2.2056,-2.2238,-2.2509,-2.3428,-2.2342,0.0,0.0,0.0,0.0,0.0,0.0,0.0,-1.5435,0.0,0.0,0.0,-1.3806,-1.3937,-1.4538,-1.4994,0.0,-1.6898,-1.7807,-1.8341,-1.8446,-1.8611,-1.8461,-1.8003,-1.7693,-1.7352,-1.7086,-1.6918,-1.6803,-1.6633,-1.6534,-1.6522,-1.6522,-1.6522,-1.7162,-1.8204,-1.8037,-1.8536,-1.9263,-1.8987,-1.8494,-1.7831,-1.6842,-1.6343,-1.6124,-1.9438,0.0,0.0,-2.2275,0.0,0.0,-2.4085,-2.5684,0.0,-2.8508,-2.9289,0.0,-3.0132,-2.9931,-2.9717,-2.9569,-2.9024,0.0,-2.8161,0.0,0.0,-2.7065,-2.6598,-2.6014,-2.5217,-2.322,0.0,-2.0623,0.0,0.0,-1.6484,0.0,0.0,0.0,0.0,-1.8486,0.0,-2.2313,-2.3626,-2.419,-2.417,-2.3996,0.0,-2.3594,-2.3555,-2.3543,-2.3301,-2.2843,-2.2338,-2.231,-2.231,-2.231,-2.231,-2.231,-2.231,-2.231,-2.2338,-2.2366,-2.2366,-2.2432,-2.2515,-2.2569,-2.2358,-2.2158,-2.2233,-2.1976,-2.1879,-2.2341,-2.2476,-2.2664,-2.3265,-2.2171,0.0,0.0,0.0,0.0,0.0,0.0,0.0,0.0,-1.584,0.0,-1.4673,-1.4175,-1.4073,-1.4538,-1.4763,-1.5503,0.0,-1.7713,-1.833,-1.88,-1.9108,-1.8997,-1.8464,-1.8121,-1.7787,-1.7434,-1.7212,-1.7015,-1.6761,-1.6663,-1.6565,-1.6522,-1.6522,-1.7162,-1.8204,-1.8097,-1.8635,-1.946,-1.9198,-1.8869,-1.8471,-1.7722,-1.7123,-1.657,-2.1903,0.0,0.0,0.0,0.0,0.0,0.0,-2.7496,0.0,-2.9232,0.0,-3.0502,-3.0316,-3.0114,-2.9937,-2.9814,-2.9645,-2.9194,-2.8445,-2.8446,-2.8166,-2.7474,-2.7324,-2.6926,-2.618,-2.4601,-2.3026,-2.1481,-1.9054,-1.7442,0.0,0.0,0.0,0.0,0.0,0.0,0.0,-2.3408,-2.4479,-2.4229,-2.432,-2.422,-2.3997,-2.4017,-2.4241,-2.4476,-2.4261,-2.3557,-2.2711,-2.2626,-2.2598,-2.2598,-2.2598,-2.2598,-2.2581,-2.2479,-2.2446,-2.2429,-2.2344,-2.2338,-2.2394,-2.2394,-2.2487,-2.2579,-2.2632,-2.2712,-2.279,-2.2842,-2.2876,-2.2995,-2.3126,-2.2043,0.0,0.0,0.0,0.0,0.0,0.0,0.0,0.0,0.0,0.0,-1.545,-1.4476,-1.4058,-1.4514,-1.4452,-1.5174,0.0,0.0,-1.8403,-1.9248,-1.9604,-1.953,-1.8974,-1.8592,-1.8226,-1.7787,-1.7584,-1.7267,-1.696,-1.6803,-1.6675,-1.6522,-1.6522,-1.7162,-1.8204,-1.8204,-1.8746,-1.9604,-1.9396,-1.9291,-1.9186,-1.8827,-1.8104,-1.7234,-2.3585,0.0,0.0,0.0,0.0,-2.7487,-2.9589,-2.9499,-2.9246,-2.9361,-3.0655,-3.1502,-3.1347,-3.115,-3.1001,-3.0926,-3.0147,0.0,0.0,0.0,0.0,-2.9158,-2.8575,-2.7857,-2.701,-2.5532,-2.3979,-2.2369,-1.9941,-1.8328,0.0,0.0,0.0,0.0,0.0,0.0,-2.2178,-2.4007,0.0,-2.4429,-2.5023,-2.5184,-2.5095,-2.5583,-2.5703,-2.5569,-2.5262,-2.4819,-2.4347,-2.4224,-2.4164,-2.4103,-2.4103,-2.4103,-2.4015,-2.3376,-2.3207,-2.3071,-2.2479,-2.231,-2.231,-2.231,-2.2394,-2.2432,-2.246,-2.2515,-2.2569,-2.2569,-2.2579,-2.2659,-2.2919,-2.2025,-2.0946,0.0,0.0,0.0,0.0,0.0,0.0,0.0,0.0,-1.637,-1.5646,-1.4129,-1.3163,-1.3143,-1.3628,-1.4293,0.0,0.0,-1.8693,0.0,-1.9939,-2.0189,-1.9812,-1.925,-1.8784,-1.8422,-1.7962,-1.757,-1.7321,-1.7015,-1.6791,-1.6675,-1.6534,-1.7162,-1.8204,-1.8204,-1.8832,-1.9759,-1.9695,-1.9656,-1.95,-1.9303,-1.8987,-1.8548,0.0,0.0,0.0,0.0,0.0,0.0,0.0,-3.1148,-3.1404,-3.1327,-3.199,-3.242,-3.2288,-3.2166,-3.2034,-3.1977,-3.1502,-3.1002,-3.0551,-3.0534,-3.0311,-2.9841,-2.9474,-2.89,-2.8085,-2.6534,-2.5137,-2.3951,-2.1041,-1.9431,0.0,0.0,0.0,0.0,0.0,-2.0948,0.0,0.0,0.0,-2.515,-2.5837,-2.6031,-2.596,-2.6217,-2.6439,-2.6608,-2.6356,-2.63,-2.6202,-2.5111,-2.4658,-2.4537,-2.4537,-2.4537,-2.4438,-2.4052,-2.3951,-2.3883,-2.3528,-2.3427,-2.3342,-2.297,-2.2897,-2.2824,-2.2451,-2.2377,-2.2394,-2.2394,-2.2432,-2.2432,-2.238,-2.21,-2.1668,-2.1025,-2.1059,0.0,0.0,0.0,-2.0209,0.0,0.0,0.0,0.0,0.0,0.0,0.0,0.0,0.0,0.0,0.0,-1.8119,0.0,0.0,-2.017,-2.022,-1.969,-1.925,-1.886,-1.8383,-1.7962,-1.7529,-1.7212,-1.6918,-1.6675,-1.6565,-1.7162,-1.8242,-1.8807,-1.9334,-1.9798,-1.9798,-1.9759,-1.9708,-1.9565,-1.9356,-1.9105,0.0,-2.7962,0.0,0.0,-2.9921,-3.0991,-3.1546,-3.2736,-3.3464,-3.317,-3.3256,-3.3307,-3.3192,-3.3121,-3.3067,-3.2996,-3.2779,-3.2352,-3.1657,-3.1619,-3.1203,-3.0327,-3.0323,-2.988,-2.8935,-2.7644,-2.6393,-2.5222,-2.2411,-2.0776,0.0,0.0,-1.8087,-1.8369,0.0,0.0,0.0,0.0,-2.6024,-2.6077,-2.6709,-2.6898,-2.6805,-2.6885,-2.7227,-2.7603,-2.7471,-2.7638,-2.7653,-2.6127,-2.539,-2.5149,-2.5135,-2.5074,-2.4995,-2.4825,-2.4791,-2.4757,-2.4588,-2.4506,-2.4371,-2.3765,-2.3511,-2.3241,-2.2682,-2.2412,-2.231,-2.231,-2.2394,-2.2407,-2.2192,-2.2282,-2.226,-2.1823,-2.1935,0.0,0.0,0.0,0.0,0.0,0.0,0.0,-1.6899,0.0,0.0,0.0,0.0,0.0,-1.4711,-1.5978,-1.7586,0.0,-1.9848,-2.0115,-2.0579,-2.003,-1.9603,-1.9236,-1.8822,-1.8319,-1.7828,-1.7475,-1.7115,-1.6761,-1.662,-1.7162,-1.8292,-1.9359,-1.9798,-1.9798,-1.9798,-1.9798,-1.9798,-1.9656,-1.9565,-1.9368,0.0,0.0,0.0,0.0,0.0,-3.1679,-3.3978,-3.4423,-3.4179,-3.3294,-3.378,-3.4168,-3.4084,-3.4077,-3.4051,-3.3958,-3.3231,-3.2747,-3.267,-3.2588,-3.2172,-3.1312,-3.1322,-3.0609,-2.9021,-2.8893,-2.7681,-2.5282,-2.4245,-2.2562,-2.0292,-1.9319,-1.93,-2.015,-2.2661,0.0,-2.5115,-2.5853,-2.6506,-2.7112,-2.766,-2.783,-2.7812,-2.8457,-2.8675,-2.8652,-2.8504,-2.836,-2.821,-2.7968,-2.7473,-2.6943,-2.6879,-2.68,-2.6633,-2.5982,-2.576,-2.5593,-2.4815,-2.4598,-2.455,-2.4421,-2.3883,-2.3376,-2.3308,-2.2784,-2.231,-2.231,-2.2515,-2.2747,-2.294,-2.2678,-2.244,-2.2585,-2.2757,-2.263,0.0,0.0,-2.1382,-2.0594,0.0,0.0,0.0,-1.5435,0.0,0.0,-1.3058,-1.3285,-1.3976,-1.5816,-1.7864,-1.9976,-2.0179,-2.0534,-2.1103,-2.041,-1.996,-1.9717,-1.9176,-1.8697,-1.8226,-1.7828,-1.7393,-1.696,-1.6761,-1.7264,-1.8292,-1.9359,-1.9798,-1.9798,-1.9798,-1.9798,-1.9798,-1.9798,-1.9708,-1.9565,0.0,0.0,0.0,0.0,0.0,0.0,-3.4517,-3.5088,-3.5229,-3.4816,-3.4952,-3.5056,-3.4995,-3.4982,-3.4955,-3.4941,-3.462,-3.4203,-3.3665,-3.3613,-3.3215,-3.2333,-3.2327,-3.1789,-3.0637,-3.0124,-2.9118,-2.7591,-2.5736,-2.4293,-2.3265,-2.1908,-2.2004,-2.3361,-2.4879,-2.599,-2.6745,-2.7428,-2.7815,-2.8028,-2.8612,-2.8785,-2.8753,-2.8956,-2.8975,-2.8923,-2.881,-2.8687,-2.8518,-2.844,-2.8017,-2.7491,-2.7417,-2.7341,-2.7164,-2.6774,-2.6688,-2.6588,-2.6216,-2.6085,-2.5919,-2.5365,-2.4963,-2.4492,-2.3596,-2.3185,-2.2892,-2.2451,-2.2623,-2.2893,-2.3119,-2.3173,-2.3223,-2.3404,-2.3599,-2.3602,0.0,0.0,0.0,-2.1327,0.0,-1.85,0.0,0.0,0.0,0.0,0.0,-1.3453,-1.4491,-1.5644,-1.7424,-2.0026,-1.9882,-2.0248,-2.1246,-2.0613,-2.017,-1.9904,-1.9413,-1.8912,-1.8461,-1.7988,-1.7578,-1.7288,-1.7523,-1.8025,-1.8756,-1.9497,-1.9798,-1.9798,-1.9798,-1.9798,-1.9798,-1.9798,-1.9656,-1.946,-3.2717,-3.3122,-3.3955,-3.5327,-3.5681,-3.5801,-3.5834,-3.63,-3.6655,-3.6605,-3.65,-3.6198,-3.5591,-3.5509,-3.5501,-3.5501,-3.5507,-3.5238,-3.4622,-3.4584,-3.418,-3.3314,-3.3276,0.0,-3.2064,-3.1448,-3.0602,-2.9486,-2.7678,-2.6418,-2.5649,-2.4466,-2.4543,-2.5707,-2.6581,-2.7393,-2.814,-2.8583,-2.8837,-2.8976,-2.9308,-2.9412,-2.9347,-2.9197,-2.9085,-2.9017,-2.8952,-2.8858,-2.8743,-2.8712,-2.837,-2.7971,-2.7836,-2.7659,-2.7539,-2.7413,-2.7382,-2.7369,-2.7276,-2.7184,-2.6967,-2.6275,-2.5922,-2.5365,-2.4092,-2.3721,-2.3403,-2.2706,-2.279,-2.3052,-2.3277,-2.3535,-2.3774,-2.3937,-2.4094,-2.419,-2.419,-2.3015,0.0,-2.1839,-2.0519,-1.9234,-1.8207,-1.8057,0.0,0.0,0.0,-1.4306,-1.4984,-1.5938,-1.7599,-2.0051,-1.9897,-2.0299,-2.1355,-2.0745,-2.0323,-2.0061,-1.9596,-1.9139,-1.8669,-1.7988,-1.7655,-1.7632,-1.8046,-1.8518,-1.9021,-1.9585,-1.9798,-1.9798,-1.9798,-1.9798,-1.9798,-1.9798,-1.9604,-1.9368,-3.319,-3.4729,-3.6513,-3.8242,-3.8984,-3.916,-3.8632,-3.8506,-3.847,-3.8471,-3.8403,-3.7655,-3.5797,-3.5553,-3.5502,-3.5502,-3.5501,-3.5507,-3.5474,-3.5474,-3.5103,-3.4218,-3.418,-3.3776,-3.2891,-3.2872,-3.2045,-3.0379,-3.034,-2.9063,-2.6582,-2.6563,-2.6563,-2.6621,-2.7505,-2.8341,-2.9063,-2.8964,-2.9308,-2.9958,-2.9697,-2.957,-2.9472,-2.9286,-2.9175,-2.9108,-2.9017,-2.897,-2.8905,-2.8905,-2.8791,-2.8619,-2.8309,-2.8073,-2.7897,-2.7897,-2.7858,-2.776,-2.763,-2.7496,-2.7324,-2.7149,-2.6536,-2.5781,-2.4991,-2.431,-2.3707,-2.3127,-2.3095,-2.3295,-2.354,-2.3714,-2.3858,-2.4074,-2.4151,-2.419,-2.419,-2.3511,0.0,-2.1894,-2.1015,-1.9861,-1.8262,-1.8108,0.0,0.0,-1.6583,-1.6038,-1.5055,-1.6945,-1.8726,-2.0142,-2.0515,-2.0936,-2.1477,-2.0828,-2.0426,-2.0304,-1.9827,-1.9339,-1.886,-1.7868,-1.7584,-1.7924,-1.8092,-1.8518,-1.9021,-1.9585,-1.9798,-1.9798,-1.9798,-1.9798,-1.9798,-1.9798,-1.9604,-1.9368,-3.735,-3.7922,-3.8493,-3.9043,-3.9297,-3.9219,-3.8671,-3.8589,-3.8541,-3.8509,-3.8473,-3.8228,-3.758,-3.6871,-3.6219,-3.563,-3.5534,-3.5495,-3.5507,-3.5493,-3.5391,-3.5103,-3.5084,-3.468,-3.3814,-3.3795,-3.3237,-3.2102,-3.1545,-3.0256,-2.8313,-2.8909,-2.8871,-2.8332,-2.9217,-3.004,-3.0803,-3.0772,-3.1164,-3.1764,-3.1002,-3.0618,-3.0434,-2.9599,-2.9246,-2.9237,-2.9062,-2.8994,-2.8952,-2.8952,-2.8905,-2.8815,-2.8718,-2.85,-2.8291,-2.8246,-2.8183,-2.8119,-2.7933,-2.7789,-2.763,-2.7478,-2.7243,-2.6801,-2.6068,-2.499,-2.3998,-2.3454,-2.3412,-2.3526,-2.3692,-2.3855,-2.3976,-2.4074,-2.4151,-2.419,-2.419,-2.3511,-2.2905,-2.2648,-2.1896,-2.118,-2.0666,-2.0545,0.0,0.0,0.0,-1.9001,-1.7523,-1.7925,-1.9041,-2.0952,-2.0854,-2.0994,-2.1507,-2.0974,-2.0561,-2.0304,-1.9884,-1.9325,-1.8669,-1.7988,-1.8062,-1.8721,-1.8444,-1.8864,-1.9687,-1.9787,-1.9798,-1.9798,-1.9798,-1.9798,-1.9798,-1.9798,-1.9708,-1.9512,-3.9335,-3.9765,-4.0078,-4.0078,-4.0078,-3.9961,-3.9628,-3.9569,-3.9527,-3.9481,-3.9484,-3.9345,-3.897,-3.8362,-3.7482,-3.6226,-3.606,-3.5888,-3.556,-3.5495,-3.5501,-3.5501,-3.5507,-3.5257,-3.4699,-3.468,-3.4257,-3.3391,-3.2564,-3.1583,-3.0544,-3.1083,-3.1044,-3.0544,-3.1102,-3.1628,-3.2097,-3.2096,-3.2344,-3.2709,-3.2022,-3.1644,-3.1465,-3.0657,-3.0325,-3.0256,-3.0079,-2.9968,-2.9921,-2.9921,-2.9898,-2.985,-2.985,-2.971,-2.945,-2.8732,-2.8492,-2.8414,-2.8237,-2.8101,-2.7979,-2.7824,-2.7795,-2.7584,-2.6848,-2.5578,-2.4426,-2.4131,-2.388,-2.375,-2.3896,-2.3976,-2.4074,-2.4132,-2.417,-2.419,-2.419,-2.3768,-2.3345,-2.3052,-2.2556,-2.2116,-2.1839,-2.1697,-2.1388,0.0,0.0,-2.0782,-1.9962,-1.9613,-2.0037,-2.137,-2.1267,-2.1317,-2.1554,-2.1071,-2.0695,-2.0373,-1.9833,-1.9325,-1.8798,-1.8436,-1.8638,-1.9269,-1.9006,-1.9338,-2.008,-1.9914,-1.9862,-1.9798,-1.9798,-1.9798,-1.9798,-1.9798,-1.9708,-1.9617,-3.9512,-4.043,-4.1191,-4.1191,-4.1191,-4.1191,-4.1191,-4.1152,-4.1112,-4.1112,-4.1105,-4.0784,-3.9989,-3.9891,-3.9156,-3.7346,-3.7072,-3.6636,-3.5825,-3.5707,-3.5663,-3.5592,-3.5592,-3.5565,-3.5507,-3.5507,-3.5103,-3.4295,-3.3487,-3.3045,-3.2987,-3.2987,-3.2968,-3.2891,-3.2891,-3.2929,-3.2987,-3.2987,-3.3031,-3.3056,-3.2798,-3.2651,-3.2568,-3.2241,-3.2025,-3.1893,-3.1764,-3.1626,-3.1531,-3.1507,-3.1458,-3.1409,-3.1384,-3.1384,-3.1066,-2.9387,-2.8834,-2.8767,-2.8562,-2.8432,-2.83,-2.8182,-2.8191,-2.804,-2.7363,-2.6105,-2.5073,-2.5027,-2.4475,-2.401,-2.4074,-2.4094,-2.4132,-2.419,-2.419,-2.419,-2.419,-2.419,-2.3914,-2.318,-2.3088,-2.2795,-2.2041,-2.1916,-2.1844,-2.1771,0.0,-2.1607,-2.2157,-2.1781,-2.1567,-2.149,-2.1765,-2.184,-2.1724,-2.1182,-2.0778,-2.0494,-1.9762,-1.9317,-1.9188,-1.9164,-1.936,-1.9741,-1.982,-1.9989,-2.0233,-2.0093,-1.9926,-1.9798,-1.9798,-1.9798,-1.9798,-1.9798,-1.9708,-1.9617,-4.0701,-4.0937,-4.1132,-4.1191,-4.1191,-4.1191,-4.1191,-4.1191,-4.1172,-4.1172,-4.1131,-4.1011,-4.0811,-4.0798,-4.0348,-3.9229,-3.8412,-3.7861,-3.7605,-3.7564,-3.727,-3.6612,-3.6581,-3.6215,-3.5509,-3.5489,-3.5399,-3.5199,-3.4988,-3.4545,-3.3891,-3.3891,-3.3545,-3.2891,-3.2891,-3.3276,-3.3891,-3.3891,-3.4282,-3.4807,-3.4002,-3.3658,-3.3538,-3.2599,-3.2203,-3.2086,-3.1918,-3.1808,-3.1718,-3.1602,-3.1531,-3.1458,-3.1409,-3.1384,-3.1201,-3.0161,-2.9801,-2.9625,-2.8925,-2.8687,-2.8587,-2.851,-2.8484,-2.8319,-2.7604,-2.7139,-2.6568,-2.5458,-2.5077,-2.4807,-2.428,-2.417,-2.417,-2.4208,-2.419,-2.419,-2.419,-2.419,-2.4135,-2.3933,-2.3914,-2.3841,-2.3639,-2.3583,-2.347,-2.3353,-2.3148,-2.2999,-2.2941,-2.2615,-2.2357,-2.2241,-2.2181,-2.2036,-2.1797,-2.1448,-2.0974,-2.0339,-1.9869,-1.9775,-2.0073,-1.9735,-2.0035,-2.0882,-2.0427,-2.0425,-2.061,-2.0271,-2.008,-1.9926,-1.9862,-1.9798,-1.9798,-1.9798,-1.9798,-1.9759,-4.1082,-4.1107,-4.1111,-4.1152,-4.1172,-4.1191,-4.1191,-4.1191,-4.1191,-4.1191,-4.1172,-4.1132,-4.111,-4.1105,-4.0904,-4.0444,-3.9505,-3.877,-3.8322,-3.8267,-3.8035,-3.7549,-3.7517,-3.7065,-3.6161,-3.6144,-3.5933,-3.5495,-3.5495,-3.5251,-3.4795,-3.4795,-3.4545,-3.4083,-3.4083,-3.4353,-3.4795,-3.4795,-3.5064,-3.5455,-3.4865,-3.4615,-3.4512,-3.3875,-3.3562,-3.345,-3.3274,-3.3128,-3.3015,-3.2878,-3.2784,-3.2687,-3.2612,-3.2587,-3.2422,-3.1581,-3.1017,-3.0509,-2.9631,-2.9363,-2.9247,-2.8852,-2.8737,-2.8634,-2.8268,-2.7908,-2.7309,-2.6148,-2.5599,-2.5106,-2.4337,-2.419,-2.419,-2.419,-2.419,-2.419,-2.419,-2.419,-2.419,-2.419,-2.419,-2.419,-2.419,-2.417,-2.4094,-2.3955,-2.3771,-2.3531,-2.3265,-2.2944,-2.2659,-2.2515,-2.231,-2.2094,-2.1899,-2.1493,-2.1039,-2.0426,-2.035,-2.037,-2.0531,-2.075,-2.1097,-2.1508,-2.1246,-2.1063,-2.097,-2.0472,-2.0182,-1.999,-1.9862,-1.9798,-1.9798,-1.9798,-1.9798,-1.9798,-4.1078,-4.1097,-4.1107,-4.1091,-4.1152,-4.1172,-4.1172,-4.1191,-4.1191,-4.1191,-4.1191,-4.1172,-4.1112,-4.1112,-4.111,-4.1123,-4.0391,-3.9594,-3.8867,-3.876,-3.8657,-3.8513,-3.8452,-3.8006,-3.7133,-3.7108,-3.6721,-3.5907,-3.5779,-3.5714,-3.5713,-3.5578,-3.5488,-3.5488,-3.5507,-3.5493,-3.5493,-3.5493,-3.5493,-3.5493,-3.5427,-3.5364,-3.5315,-3.5242,-3.5143,-3.5038,-3.4889,-3.4732,-3.4561,-3.4409,-3.4269,-3.4173,-3.4074,-3.4049,-3.3894,-3.3135,-3.2403,-3.1599,-3.0564,-3.021,-2.9917,-2.913,-2.8929,-2.8929,-2.8994,-2.8484,-2.775,-2.6961,-2.6135,-2.5348,-2.452,-2.4281,-2.419,-2.419,-2.419,-2.419,-2.419,-2.419,-2.419,-2.419,-2.419,-2.419,-2.419,-2.419,-2.4151,-2.4016,-2.3816,-2.3602,-2.336,-2.2977,-2.2712,-2.2515,-2.231,-2.2152,-2.1998,-2.1493,-2.1023,-2.063,-2.0931,-2.1015,-2.094,-2.1828,-2.2177,-2.2018,-2.2052,-2.1793,-2.1229,-2.0723,-2.0334,-2.0042,-1.9862,-1.9811,-1.9798,-1.9798,-1.9798,-1.9798,-4.1003,-4.1058,-4.1099,-4.111,-4.1112,-4.1112,-4.1112,-4.1152,-4.1191,-4.1191,-4.1191,-4.1191,-4.1191,-4.1172,-4.1172,-4.1171,-4.0992,-4.0826,-4.0699,-4.0671,-4.0301,-3.9526,-3.9474,-3.9038,-3.811,-3.8035,-3.7934,-3.7788,-3.7035,-3.669,-3.6658,-3.5875,-3.5502,-3.5502,-3.5501,-3.5493,-3.5493,-3.5493,-3.5493,-3.5493,-3.5427,-3.5379,-3.5383,-3.5308,-3.5261,-3.5229,-3.511,-3.5001,-3.4889,-3.4708,-3.4602,-3.4495,-3.4316,-3.4245,-3.4184,-3.3951,-3.3796,-3.3321,-3.1654,-3.0705,-2.9984,-2.9195,-2.8975,-2.8994,-2.8994,-2.8883,-2.8594,-2.7769,-2.6961,-2.6172,-2.5366,-2.4649,-2.419,-2.419,-2.419,-2.419,-2.419,-2.419,-2.419,-2.419,-2.419,-2.419,-2.419,-2.419,-2.417,-2.4094,-2.3855,-2.3646,-2.3481,-2.3052,-2.2738,-2.2579,-2.2377,-2.218,-2.1928,-2.1554,-2.1198,-2.0877,-2.1163,-2.1489,-2.1834,-2.2364,-2.2712,-2.2892,-2.2603,-2.2184,-2.1664,-2.1131,-2.0686,-2.0321,-2.008,-1.9926,-1.9798,-1.9798,-1.9798,-1.9798,-4.0937,-4.1039,-4.1105,-4.1097,-4.1107,-4.1111,-4.1152,-4.1172,-4.1191,-4.1191,-4.1191,-4.1191,-4.1191,-4.1191,-4.1191,-4.1191,-4.1172,-4.1151,-4.1144,-4.1116,-4.0909,-4.0465,-4.0452,-4.0017,-3.9064,-3.8548,-3.8302,-3.8249,-3.7851,-3.7646,-3.7591,-3.7158,-3.696,-3.6954,-3.6922,-3.6631,-3.6188,-3.6161,-3.5911,-3.5493,-3.546,-3.546,-3.5446,-3.5417,-3.5388,-3.5339,-3.5242,-3.5157,-3.5072,-3.4927,-3.4811,-3.4732,-3.4567,-3.4524,-3.4502,-3.4409,-3.3881,-3.316,-3.2323,-3.117,-3.0118,-2.9751,-2.9305,-2.8994,-2.8994,-2.8994,-2.8778,-2.797,-2.7493,-2.6869,-2.5642,-2.5109,-2.4685,-2.4263,-2.419,-2.419,-2.419,-2.419,-2.419,-2.419,-2.419,-2.419,-2.419,-2.419,-2.417,-2.4094,-2.3917,-2.3732,-2.3571,-2.3175,-2.2876,-2.2712,-2.2432,-2.2209,-2.2049,-2.1751,-2.1479,-2.1166,-2.1818,-2.2201,-2.2256,-2.3097,-2.3426,-2.3319,-2.2994,-2.254,-2.1996,-2.1423,-2.097,-2.061,-2.0321,-2.008,-1.9926,-1.9926,-1.9862,-1.9798,-4.0858,-4.0954,-4.1045,-4.1052,-4.1085,-4.1123,-4.117,-4.1191,-4.1191,-4.1191,-4.1191,-4.1191,-4.1191,-4.1191,-4.1191,-4.1191,-4.1191,-4.1191,-4.1191,-4.1149,-4.1123,-4.1103,-4.1111,-4.0758,-4.0028,-3.936,-3.9006,-3.8953,-3.8723,-3.8594,-3.854,-3.8334,-3.8214,-3.823,-3.8144,-3.7739,-3.7109,-3.7049,-3.6675,-3.6098,-3.6084,-3.6084,-3.6084,-3.6084,-3.5921,-3.5701,-3.5652,-3.5458,-3.5226,-3.5108,-3.5038,-3.4982,-3.4832,-3.4793,-3.4773,-3.4691,-3.3938,-3.3087,-3.2828,-3.1667,-3.0502,-3.027,-2.9627,-2.9017,-2.9017,-2.9017,-2.8856,-2.8276,-2.8,-2.7463,-2.6252,-2.5866,-2.5441,-2.4631,-2.4503,-2.441,-2.4226,-2.419,-2.419,-2.419,-2.419,-2.419,-2.419,-2.419,-2.417,-2.4132,-2.3996,-2.3834,-2.366,-2.3319,-2.3028,-2.279,-2.2487,-2.2282,-2.2214,-2.1945,-2.1721,-2.1464,-2.2463,-2.2791,-2.2521,-2.3671,-2.3994,-2.3553,-2.3319,-2.2859,-2.2263,-2.1841,-2.1361,-2.0957,-2.066,-2.0372,-2.0131,-2.008,-1.9978,-1.9862,-4.0759,-4.0815,-4.0843,-4.0897,-4.1026,-4.1109,-4.1111,-4.1168,-4.1191,-4.1191,-4.1191,-4.1191,-4.1191,-4.1191,-4.1191,-4.1191,-4.1191,-4.1191,-4.1191,-4.1191,-4.1152,-4.1091,-4.1103,-4.1077,-4.0996,-4.0925,-4.0894,-4.089,-4.0017,-3.9585,-3.9565,-3.8696,-3.8296,-3.8278,-3.8214,-3.8168,-3.8092,-3.8028,-3.7963,-3.7891,-3.7829,-3.7815,-3.7815,-3.7815,-3.7315,-3.6608,-3.6599,-3.607,-3.5364,-3.5293,-3.5261,-3.5245,-3.5105,-3.507,-3.5053,-3.4927,-3.4674,-3.4233,-3.317,-3.2242,-3.1385,-3.0512,-2.9697,-2.9089,-2.9089,-2.9089,-2.9112,-2.9185,-2.8556,-2.798,-2.7911,-2.7202,-2.6328,-2.5518,-2.5349,-2.5054,-2.43,-2.419,-2.419,-2.419,-2.419,-2.419,-2.419,-2.419,-2.419,-2.419,-2.4016,-2.3876,-2.3795,-2.3481,-2.3119,-2.2712,-2.2515,-2.2338,-2.2214,-2.2061,-2.1882,-2.1711,-2.2883,-2.3221,-2.2802,-2.4006,-2.4302,-2.3754,-2.3538,-2.3172,-2.2663,-2.2402,-2.2044,-2.1506,-2.1229,-2.0921,-2.056,-2.0422,-2.0233,-1.999,-4.0598,-4.0612,-4.0654,-4.08,-4.0877,-4.0926,-4.0979,-4.1061,-4.114,-4.114,-4.1142,-4.1146,-4.1131,-4.1132,-4.1152,-4.1191,-4.1191,-4.1191,-4.1191,-4.1191,-4.1191,-4.1152,-4.1151,-4.1149,-4.1108,-4.1105,-4.1099,-4.1091,-4.073,-4.0563,-4.0569,-4.0162,-3.9974,-3.9964,-3.9908,-3.9557,-3.9071,-3.8999,-3.8627,-3.8105,-3.8064,-3.8036,-3.8007,-3.8007,-3.7796,-3.7507,-3.7512,-3.7286,-3.694,-3.6362,-3.6174,-3.6063,-3.5407,-3.5219,-3.5203,-3.5124,-3.5,-3.4794,-3.4275,-3.3365,-3.2362,-3.15,-3.0658,-2.9894,-2.9357,-2.9267,-2.9289,-2.9349,-2.9089,-2.8697,-2.8196,-2.7781,-2.7237,-2.6385,-2.6195,-2.6043,-2.5731,-2.5254,-2.4924,-2.4924,-2.4502,-2.419,-2.419,-2.419,-2.419,-2.419,-2.4094,-2.3996,-2.3917,-2.366,-2.3319,-2.297,-2.2842,-2.2632,-2.2338,-2.222,-2.2341,-2.2632,-2.339,-2.3813,-2.3951,-2.4738,-2.4775,-2.4162,-2.4051,-2.3653,-2.3083,-2.2904,-2.254,-2.2091,-2.1902,-2.1506,-2.1068,-2.0934,-2.0723,-2.0472,-4.1316,-4.1739,-4.2152,-4.2276,-4.1421,-4.0739,-4.0837,-4.1849,-4.2412,-4.1944,-4.2041,-4.2073,-4.1902,-4.1652,-4.1538,-4.1561,-4.1326,-4.1171,-4.1171,-4.1191,-4.1191,-4.1191,-4.1191,-4.1172,-4.1132,-4.1132,-4.113,-4.1126,-4.1105,-4.1099,-4.1091,-4.1051,-4.1037,-4.1037,-4.096,-4.0602,-4.0023,-3.9954,-3.9538,-3.8955,-3.8917,-3.8896,-3.8854,-3.8854,-3.8667,-3.8407,-3.8407,-3.8234,-3.7911,-3.7305,-3.7098,-3.6944,-3.6032,-3.5556,-3.5315,-3.5289,-3.5226,-3.5141,-3.5054,-3.4396,-3.3513,-3.2598,-3.1526,-3.0553,-2.9956,-2.964,-2.9474,-2.9551,-2.9513,-2.9325,-2.8745,-2.8515,-2.813,-2.7294,-2.7043,-2.6888,-2.6649,-2.6117,-2.5768,-2.5768,-2.5291,-2.485,-2.4593,-2.4575,-2.4465,-2.4208,-2.4151,-2.4074,-2.3976,-2.4024,-2.3907,-2.3625,-2.3774,-2.3711,-2.3292,-2.292,-2.2902,-2.3278,-2.4044,-2.4513,-2.4713,-2.5264,-2.5208,-2.4599,-2.4492,-2.412,-2.3523,-2.3436,-2.3127,-2.2692,-2.254,-2.217,-2.1712,-2.1568,-2.1313,-2.0957,-4.3124,-4.4451,-4.5586,-4.5586,-4.2777,-4.0607,-4.0817,-4.3653,-4.5279,-4.381,-4.4063,-4.4182,-4.366,-4.2896,-4.2419,-4.2405,-4.1624,-4.1123,-4.1111,-4.1171,-4.1191,-4.1191,-4.1191,-4.1191,-4.1191,-4.1191,-4.1191,-4.1191,-4.1132,-4.1092,-4.1091,-4.1103,-4.1097,-4.1108,-4.1037,-4.1,-4.0986,-4.0849,-4.0789,-4.0787,-4.0718,-4.07,-4.07,-4.07,-4.0119,-3.9316,-3.9316,-3.8748,-3.8027,-3.8007,-3.8007,-3.7853,-3.6988,-3.6113,-3.5412,-3.5412,-3.5354,-3.5312,-3.5312,-3.5209,-3.4826,-3.3692,-3.2143,-3.0922,-3.0903,-3.0227,-2.9662,-2.9855,-2.9805,-2.9717,-2.979,-2.9532,-2.9031,-2.8248,-2.7932,-2.753,-2.6741,-2.6612,-2.6612,-2.6612,-2.6612,-2.6282,-2.5495,-2.5421,-2.509,-2.4281,-2.4169,-2.4054,-2.3935,-2.4617,-2.4924,-2.4723,-2.5433,-2.564,-2.5312,-2.4167,-2.3539,-2.3427,-2.482,-2.5313,-2.4956,-2.5589,-2.5605,-2.5107,-2.4895,-2.4517,-2.412,-2.4009,-2.3711,-2.3275,-2.3172,-2.2814,-2.237,-2.2278,-2.1841,-2.1423,-4.4701,-4.5259,-4.5586,-4.5586,-4.4759,-4.4102,-4.4152,-4.5063,-4.5322,-4.4167,-4.3831,-4.3653,-4.3533,-4.3312,-4.3187,-4.3231,-4.3006,-4.2607,-4.2053,-4.1455,-4.1125,-4.1125,-4.1171,-4.1191,-4.1191,-4.1191,-4.1191,-4.1191,-4.1172,-4.1172,-4.1172,-4.1111,-4.1108,-4.1107,-4.1074,-4.1074,-4.1052,-4.0974,-4.0918,-4.0869,-4.0859,-4.0818,-4.0761,-4.0776,-4.0597,-4.0352,-4.0301,-4.0119,-3.9797,-3.9124,-3.8917,-3.8652,-3.7161,-3.6512,-3.619,-3.5633,-3.5465,-3.5432,-3.5383,-3.5335,-3.5063,-3.4008,-3.3349,-3.2631,-3.1455,-3.0983,-3.0639,-3.0136,-2.994,-2.9822,-2.9789,-2.9608,-2.9319,-2.8996,-2.8852,-2.8691,-2.8452,-2.7935,-2.7564,-2.7521,-2.7006,-2.6544,-2.6264,-2.6245,-2.6135,-2.5897,-2.5858,-2.5816,-2.5734,-2.5932,-2.5976,-2.5823,-2.5942,-2.5942,-2.5793,-2.5038,-2.4827,-2.5244,-2.5516,-2.583,-2.6168,-2.6214,-2.6046,-2.5659,-2.5513,-2.5153,-2.4679,-2.4614,-2.4287,-2.3867,-2.3653,-2.3348,-2.2994,-2.2768,-2.2526,-2.2282,-4.5451,-4.5586,-4.5586,-4.5586,-4.5586,-4.5586,-4.5586,-4.5654,-4.548,-4.486,-4.4524,-4.4381,-4.4433,-4.4141,-4.3964,-4.4031,-4.374,-4.3353,-4.2876,-4.203,-4.1592,-4.1615,-4.1318,-4.1169,-4.1152,-4.1191,-4.1191,-4.1191,-4.1191,-4.1191,-4.1191,-4.1152,-4.1132,-4.1132,-4.1108,-4.1101,-4.1108,-4.1051,-4.1022,-4.0974,-4.0953,-4.0921,-4.0878,-4.0878,-4.0849,-4.0826,-4.0792,-4.0757,-4.0649,-4.0056,-3.9609,-3.9109,-3.806,-3.7257,-3.6603,-3.6122,-3.5757,-3.5493,-3.546,-3.5446,-3.5297,-3.4672,-3.4194,-3.3611,-3.2603,-3.2092,-3.1615,-3.0858,-3.0579,-3.0335,-2.9983,-2.9736,-2.9551,-2.9435,-2.9353,-2.9328,-2.9328,-2.888,-2.8524,-2.85,-2.8038,-2.7592,-2.7237,-2.7179,-2.705,-2.6716,-2.6657,-2.6615,-2.6594,-2.6845,-2.6966,-2.6859,-2.7053,-2.714,-2.7036,-2.6561,-2.626,-2.6122,-2.6185,-2.6367,-2.6691,-2.6538,-2.6347,-2.6063,-2.5921,-2.5647,-2.523,-2.5091,-2.4775,-2.4369,-2.4162,-2.3909,-2.361,-2.3421,-2.3275,-2.3113,-4.5586,-4.5586,-4.5586,-4.5586,-4.5586,-4.5586,-4.5586,-4.5657,-4.5687,-4.5696,-4.5757,-4.5819,-4.588,-4.517,-4.4735,-4.478,-4.4053,-4.3596,-4.3596,-4.2857,-4.2432,-4.2485,-4.1741,-4.1328,-4.1323,-4.1249,-4.1191,-4.1191,-4.1191,-4.1191,-4.1191,-4.1191,-4.1191,-4.1191,-4.1132,-4.1111,-4.1107,-4.1097,-4.1108,-4.1094,-4.1027,-4.1008,-4.1,-4.1019,-4.0979,-4.0926,-4.0906,-4.0868,-4.0812,-4.0738,-4.0127,-3.9413,-3.9326,-3.8214,-3.6911,-3.6853,-3.6257,-3.5622,-3.5622,-3.5551,-3.5493,-3.5493,-3.4808,-3.4102,-3.4044,-3.3402,-3.2618,-3.1851,-3.1541,-3.1169,-3.0369,-3.0004,-2.9793,-2.9645,-2.957,-2.9531,-2.9531,-2.9472,-2.9433,-2.9433,-2.9355,-2.9055,-2.8292,-2.8217,-2.7881,-2.71,-2.6964,-2.694,-2.694,-2.7555,-2.7875,-2.7826,-2.845,-2.8737,-2.8637,-2.8362,-2.7634,-2.6446,-2.684,-2.6925,-2.6725,-2.6657,-2.6503,-2.633,-2.6277,-2.6046,-2.5738,-2.553,-2.5224,-2.4855,-2.471,-2.4451,-2.4162,-2.4162,-2.4036,-2.3824,-4.5586,-4.5586,-4.5586,-4.5586,-4.5586,-4.5586,-4.5586,-4.5603,-4.5657,-4.569,-4.5706,-4.5754,-4.581,-4.565,-4.5548,-4.5551,-4.4827,-4.4358,-4.4361,-4.3617,-4.3179,-4.3188,-4.3058,-4.3005,-4.3066,-4.1785,-4.1112,-4.1112,-4.1172,-4.1191,-4.1191,-4.1191,-4.1191,-4.1191,-4.1172,-4.1151,-4.1091,-4.111,-4.1103,-4.1094,-4.1072,-4.1085,-4.1078,-4.1085,-4.1076,-4.1042,-4.1007,-4.0972,-4.0932,-4.0809,-4.0609,-4.0287,-3.9592,-3.9075,-3.8609,-3.7987,-3.7151,-3.6449,-3.6449,-3.5988,-3.5493,-3.5493,-3.5345,-3.5004,-3.4307,-3.3964,-3.3556,-3.2708,-3.2416,-3.2057,-3.1207,-3.0959,-3.065,-2.9937,-2.979,-2.9718,-2.9718,-2.9718,-2.9682,-2.957,-2.9551,-2.9457,-2.9211,-2.9211,-2.9097,-2.8832,-2.8773,-2.8748,-2.8743,-2.8784,-2.8809,-2.8787,-2.8837,-2.8858,-2.8834,-2.8569,-2.8148,-2.7564,-2.7282,-2.7103,-2.7006,-2.6775,-2.6623,-2.6537,-2.6503,-2.6382,-2.6137,-2.5937,-2.5717,-2.546,-2.513,-2.4879,-2.4704,-2.4533,-2.4467,-2.4426,-4.555,-4.5586,-4.5586,-4.5586,-4.5586,-4.5586,-4.5586,-4.5586,-4.5603,-4.564,-4.5657,-4.5673,-4.5687,-4.5703,-4.5719,-4.575,-4.5404,-4.5175,-4.5169,-4.4376,-4.3947,-4.3959,-4.3637,-4.3478,-4.3549,-4.2715,-4.2092,-4.1715,-4.1346,-4.1172,-4.1191,-4.1191,-4.1191,-4.1191,-4.1191,-4.1172,-4.1152,-4.1152,-4.1151,-4.1149,-4.1149,-4.1126,-4.1103,-4.1099,-4.1094,-4.1104,-4.107,-4.1022,-4.0981,-4.0887,-4.0809,-4.0715,-4.0222,-3.9767,-3.9309,-3.8838,-3.8078,-3.7266,-3.6815,-3.6392,-3.5988,-3.5603,-3.5493,-3.5391,-3.493,-3.4773,-3.4462,-3.3599,-3.3336,-3.3012,-3.2176,-3.1619,-3.1153,-3.07,-3.0269,-2.9991,-2.9991,-2.9956,-2.9924,-2.9836,-2.9801,-2.9767,-2.9751,-2.9717,-2.9681,-2.9645,-2.9513,-2.9434,-2.945,-2.9286,-2.92,-2.9197,-2.9085,-2.8998,-2.8998,-2.8718,-2.8474,-2.8237,-2.7672,-2.7355,-2.723,-2.6925,-2.6775,-2.6759,-2.6674,-2.6555,-2.6417,-2.626,-2.6101,-2.5901,-2.5642,-2.5476,-2.5362,-2.5262,-2.5185,-2.5052,-4.5476,-4.555,-4.5586,-4.5586,-4.5586,-4.5586,-4.5586,-4.5586,-4.5586,-4.5586,-4.5586,-4.5586,-4.5586,-4.5586,-4.5622,-4.5693,-4.5738,-4.577,-4.577,-4.5085,-4.4742,-4.4788,-4.4163,-4.3846,-4.3918,-4.3833,-4.3407,-4.2602,-4.1888,-4.156,-4.1621,-4.1621,-4.1543,-4.1406,-4.1406,-4.1328,-4.1191,-4.1191,-4.1191,-4.1191,-4.1191,-4.1172,-4.1112,-4.1112,-4.1129,-4.1123,-4.1101,-4.1065,-4.1003,-4.0948,-4.0941,-4.0897,-4.0848,-4.0308,-3.97,-3.9657,-3.9006,-3.8155,-3.7348,-3.693,-3.6546,-3.5872,-3.5603,-3.5493,-3.5493,-3.5446,-3.5201,-3.4471,-3.4261,-3.3987,-3.3164,-3.2383,-3.18,-3.1647,-3.0958,-3.0442,-3.0442,-3.0247,-3.0138,-3.0123,-3.0075,-3.0041,-3.0041,-2.9984,-2.9956,-2.994,-2.9769,-2.9663,-2.9645,-2.9454,-2.9353,-2.9347,-2.92,-2.9134,-2.913,-2.8863,-2.8712,-2.8637,-2.8035,-2.763,-2.7434,-2.7137,-2.6975,-2.6942,-2.6842,-2.6742,-2.6674,-2.6538,-2.6435,-2.626,-2.6118,-2.6026,-2.5954,-2.597,-2.5844,-2.5717,-4.5399,-4.5458,-4.5513,-4.5513,-4.5568,-4.5586,-4.5586,-4.5586,-4.5586,-4.5586,-4.5586,-4.5586,-4.5586,-4.5586,-4.5603,-4.5603,-4.562,-4.562,-4.562,-4.5558,-4.5533,-4.5552,-4.5495,-4.5504,-4.557,-4.4893,-4.4197,-4.3441,-4.3375,-4.3347,-4.3366,-4.3356,-4.2967,-4.2244,-4.2246,-4.1855,-4.1191,-4.1191,-4.1191,-4.1191,-4.1191,-4.1191,-4.1191,-4.1191,-4.1191,-4.1171,-4.1111,-4.1082,-4.1081,-4.1085,-4.1037,-4.0974,-4.0972,-4.0809,-4.0624,-4.0607,-3.9946,-3.9187,-3.9003,-3.7891,-3.6741,-3.6584,-3.6007,-3.5493,-3.5493,-3.5446,-3.5374,-3.5259,-3.5158,-3.4879,-3.4069,-3.382,-3.3494,-3.2727,-3.1941,-3.1424,-3.1424,-3.0759,-3.0253,-3.0174,-3.0166,-3.0171,-3.0171,-3.0157,-3.0142,-3.0079,-3.0003,-2.9924,-2.9855,-2.9662,-2.9551,-2.9569,-2.9353,-2.9267,-2.9178,-2.904,-2.89,-2.8761,-2.844,-2.8073,-2.7642,-2.7417,-2.7279,-2.7166,-2.7149,-2.7085,-2.7038,-2.6957,-2.6825,-2.6624,-2.6418,-2.6279,-2.6225,-2.617,-2.6134,-2.6099,-4.517,-4.526,-4.5361,-4.5438,-4.5495,-4.5531,-4.5531,-4.5568,-4.5586,-4.5586,-4.5586,-4.5586,-4.5586,-4.5586,-4.5586,-4.5586,-4.5586,-4.5586,-4.5586,-4.564,-4.564,-4.564,-4.5706,-4.577,-4.5791,-4.5479,-4.5173,-4.488,-4.402,-4.3602,-4.3642,-4.3648,-4.3462,-4.3136,-4.3138,-4.2927,-4.2558,-4.2089,-4.1875,-4.1836,-4.1387,-4.1191,-4.1191,-4.1191,-4.1191,-4.1191,-4.1112,-4.1108,-4.1103,-4.1094,-4.1081,-4.1066,-4.1056,-4.0981,-4.0898,-4.0859,-4.0546,-4.0084,-3.956,-3.8878,-3.808,-3.7045,-3.6543,-3.6145,-3.5669,-3.5541,-3.5495,-3.546,-3.5427,-3.5297,-3.4952,-3.4485,-3.4024,-3.364,-3.2872,-3.218,-3.1719,-3.1322,-3.0899,-3.0375,-3.0305,-3.0305,-3.0305,-3.0292,-3.0228,-3.0215,-3.0147,-3.0094,-3.0064,-2.9905,-2.9787,-2.9717,-2.9551,-2.9412,-2.931,-2.9134,-2.9017,-2.8923,-2.8669,-2.837,-2.8017,-2.7701,-2.7539,-2.7491,-2.7417,-2.7355,-2.7324,-2.7247,-2.7184,-2.707,-2.6923,-2.6825,-2.6725,-2.6623,-2.6555,-2.6469]},{"header":{"parameterUnit":"m.s-1","parameterCategory":1,"la1":30.6,"la2":28.766,"lo1":-90.7593,"lo2":-88.6598,"dy":0.0162,"dx":0.0183,"nx":116,"ny":114,"refTime":"2024-06-25T18:00:00:Z","depth":0,"parameterNumber":3,"parameterNumberName":"V-component_of_WINDS"},"data":[0.0,0.0,0.0,0.0,0.0,0.0,0.0,0.0,0.0,0.0,0.0,0.0,0.0,0.0,0.0,0.0,0.0,0.0,0.0,0.0,0.0,0.0,0.0,0.0,0.0,0.0,0.0,0.0,0.0,0.0,0.0,0.0,0.0,0.0,0.0,0.0,0.0,0.0,0.0,0.0,0.0,0.0,0.0,0.0,0.0,0.0,0.0,0.0,0.0,0.0,0.0,0.0,0.0,0.0,0.0,0.0,0.0,0.0,0.0,0.0,0.0,0.0,0.0,0.0,0.0,0.0,0.0,0.0,0.0,0.0,0.0,0.0,0.0,0.0,0.0,0.0,0.0,0.0,0.0,0.0,0.0,0.0,0.0,0.0,0.0,0.0,0.0,0.0,0.0,0.0,0.0,0.0,0.0,0.0,0.0,0.0,0.0,0.0,0.0,0.0,0.0,0.0,0.0,0.0,0.0,0.0,0.0,0.0,0.0,0.0,0.0,0.0,0.0,0.0,0.0,0.0,0.0,0.0,0.0,0.0,0.0,0.0,0.0,0.0,0.0,0.0,0.0,0.0,0.0,0.0,0.0,0.0,0.0,0.0,0.0,0.0,0.0,0.0,0.0,0.0,0.0,0.0,0.0,0.0,0.0,0.0,0.0,0.0,0.0,0.0,0.0,0.0,0.0,0.0,0.0,0.0,0.0,0.0,0.0,0.0,0.0,0.0,0.0,0.0,0.0,0.0,0.0,0.0,0.0,0.0,0.0,0.0,0.0,0.0,0.0,0.0,0.0,0.0,0.0,0.0,0.0,0.0,0.0,0.0,0.0,0.0,0.0,0.0,0.0,0.0,0.0,0.0,0.0,0.0,0.0,0.0,0.0,0.0,0.0,0.0,0.0,0.0,0.0,0.0,0.0,0.0,0.0,0.0,0.0,0.0,0.0,0.0,0.0,0.0,0.0,0.0,0.0,0.0,0.0,0.0,0.0,0.0,0.0,0.0,0.0,0.0,0.0,0.0,0.0,0.0,0.0,0.0,0.0,0.0,0.0,0.0,0.0,0.0,0.0,0.0,0.0,0.0,0.0,0.0,0.0,0.0,0.0,0.0,0.0,0.0,0.0,0.0,0.0,0.0,0.0,0.0,0.0,0.0,0.0,0.0,0.0,0.0,0.0,0.0,0.0,0.0,0.0,0.0,0.0,0.0,0.0,0.0,0.0,0.0,0.0,0.0,0.0,0.0,0.0,0.0,0.0,0.0,0.0,0.0,0.0,0.0,0.0,0.0,0.0,0.0,0.0,0.0,0.0,0.0,0.0,0.0,0.0,0.0,0.0,0.0,0.0,0.0,0.0,0.0,0.0,0.0,0.0,0.0,0.0,0.0,0.0,0.0,0.0,0.0,0.0,0.0,0.0,0.0,0.0,0.0,0.0,0.0,0.0,0.0,0.0,0.0,0.0,0.0,0.0,0.0,0.0,0.0,0.0,0.0,0.0,0.0,0.0,0.0,0.0,0.0,0.0,0.0,0.0,0.0,0.0,0.0,0.0,0.0,0.0,0.0,0.0,0.0,0.0,0.0,0.0,0.0,0.0,0.0,0.0,0.0,0.0,0.0,0.0,0.0,0.0,0.0,0.0,0.0,0.0,0.0,0.0,0.0,0.0,0.0,0.0,0.0,0.0,0.0,0.0,0.0,0.0,0.0,0.0,0.0,0.0,0.0,0.0,0.0,0.0,0.0,0.0,0.0,0.0,0.0,0.0,0.0,0.0,0.0,0.0,0.0,0.0,0.0,0.0,0.0,0.0,0.0,0.0,0.0,0.0,0.0,0.0,0.0,0.0,0.0,0.0,0.0,0.0,0.0,0.0,0.0,0.0,0.0,0.0,0.0,0.0,0.0,0.0,0.0,0.0,0.0,0.0,0.0,0.0,0.0,0.0,0.0,0.0,0.0,0.0,0.0,0.0,0.0,0.0,0.0,0.0,0.0,0.0,0.0,0.0,0.0,0.0,0.0,0.0,0.0,0.0,0.0,0.0,0.0,0.0,0.0,0.0,0.0,0.0,0.0,0.0,0.0,0.0,0.0,0.0,0.0,0.0,0.0,0.0,0.0,0.0,0.0,0.0,0.0,0.0,0.0,0.0,0.0,0.0,0.0,0.0,0.0,0.0,0.0,0.0,0.0,0.0,0.0,0.0,0.0,0.0,0.0,0.0,0.0,0.0,0.0,0.0,0.0,0.0,0.0,0.0,0.0,0.0,0.0,0.0,0.0,0.0,0.0,0.0,0.0,0.0,0.0,0.0,0.0,0.0,0.0,0.0,0.0,0.0,0.0,0.0,0.0,0.0,0.0,0.0,0.0,0.0,0.0,0.0,0.0,0.0,0.0,0.0,0.0,0.0,0.0,0.0,0.0,0.0,0.0,0.0,0.0,0.0,0.0,0.0,0.0,0.0,0.0,0.0,0.0,0.0,0.0,0.0,0.0,0.0,0.0,0.0,0.0,0.0,0.0,0.0,0.0,0.0,0.0,0.0,0.0,0.0,0.0,0.0,0.0,0.0,0.0,0.0,0.0,0.0,0.0,0.0,0.0,0.0,0.0,0.0,0.0,0.0,0.0,0.0,0.0,0.0,0.0,0.0,0.0,0.0,0.0,0.0,0.0,0.0,0.0,0.0,0.0,0.0,0.0,0.0,0.0,0.0,0.0,0.0,0.0,0.0,0.0,0.0,0.0,0.0,0.0,0.0,0.0,0.0,0.0,0.0,0.0,0.0,0.0,0.0,0.0,0.0,0.0,0.0,0.0,0.0,0.0,0.0,0.0,0.0,0.0,0.0,0.0,0.0,0.0,0.0,0.0,0.0,0.0,0.0,0.0,0.0,0.0,0.0,0.0,0.0,0.0,0.0,0.0,0.0,0.0,0.0,0.0,0.0,0.0,0.0,0.0,0.0,0.0,0.0,0.0,0.0,0.0,0.0,0.0,0.0,0.0,0.0,0.0,0.0,0.0,0.0,0.0,0.0,0.0,0.0,0.0,0.0,0.0,0.0,0.0,0.0,0.0,0.0,0.0,0.0,0.0,0.0,0.0,0.0,0.0,0.0,0.0,0.0,0.0,0.0,0.0,0.0,0.0,0.0,0.0,0.0,0.0,0.0,0.0,0.0,0.0,0.0,0.0,0.0,0.0,0.0,0.0,0.0,0.0,0.0,0.0,0.0,0.0,0.0,0.0,0.0,0.0,0.0,0.0,0.0,0.0,0.0,0.0,0.0,0.0,0.0,0.0,0.0,0.0,0.0,0.0,0.0,0.0,0.0,0.0,0.0,0.0,0.0,0.0,0.0,0.0,0.0,0.0,0.0,0.0,0.0,0.0,0.0,0.0,0.0,0.0,0.0,0.0,0.0,0.0,0.0,0.0,0.0,0.0,0.0,0.0,0.0,0.0,0.0,0.0,0.0,0.0,0.0,0.0,0.0,0.0,0.0,0.0,0.0,0.0,0.0,0.0,0.0,0.0,0.0,0.0,0.0,0.0,0.0,0.0,0.0,0.0,0.0,0.0,0.0,0.0,0.0,0.0,0.0,0.0,0.0,0.0,0.0,0.0,0.0,0.0,0.0,0.0,0.0,0.0,0.0,0.0,0.0,0.0,0.0,0.0,0.0,0.0,0.0,0.0,0.0,0.0,0.0,0.0,0.0,0.0,0.0,0.0,0.0,0.0,0.0,0.0,0.0,0.0,0.0,0.0,0.0,0.0,0.0,0.0,0.0,0.0,0.0,0.0,0.0,0.0,0.0,0.0,0.0,0.0,0.0,0.0,0.0,0.0,0.0,0.0,0.0,0.0,0.0,0.0,0.0,0.0,0.0,0.0,0.0,0.0,0.0,0.0,0.0,0.0,0.0,0.0,0.0,0.0,0.0,0.0,0.0,0.0,0.0,0.0,0.0,0.0,0.0,0.0,0.0,0.0,0.0,0.0,0.0,0.0,0.0,0.0,0.0,0.0,0.0,0.0,0.0,0.0,0.0,0.0,0.0,0.0,0.0,0.0,0.0,0.0,0.0,0.0,0.0,0.0,0.0,0.0,0.0,0.0,0.0,0.0,0.0,0.0,0.0,0.0,0.0,0.0,0.0,0.0,0.0,0.0,0.0,0.0,0.0,0.0,0.0,0.0,0.0,0.0,0.0,0.0,0.0,0.0,0.0,0.0,0.0,0.0,0.0,0.0,0.0,0.0,0.0,0.0,0.0,0.0,0.0,0.0,0.0,0.0,0.0,0.0,0.0,0.0,0.0,0.0,0.0,0.0,0.0,0.0,0.0,0.0,0.0,0.0,0.0,0.0,0.0,0.0,0.0,0.0,0.0,0.0,0.0,0.0,0.0,0.0,0.0,0.0,0.0,0.0,0.0,0.0,0.0,0.0,0.0,0.0,0.0,0.0,0.0,0.0,0.0,0.0,0.0,0.0,0.0,0.0,0.0,0.0,0.0,0.0,0.0,0.0,0.0,0.0,0.0,0.0,0.0,0.0,0.0,0.0,0.0,0.0,0.0,0.0,0.0,0.0,0.0,0.0,0.0,0.0,0.0,0.0,0.0,0.0,0.0,0.0,0.0,0.0,0.0,0.0,0.0,0.0,0.0,0.0,0.0,0.0,0.0,0.0,0.0,0.0,0.0,0.0,0.0,0.0,0.0,0.0,0.0,0.0,0.0,0.0,0.0,0.0,0.0,0.0,0.0,0.0,0.0,0.0,0.0,0.0,0.0,0.0,0.0,0.0,0.0,0.0,0.0,0.0,0.0,0.0,0.0,0.0,0.0,0.0,0.0,0.0,0.0,0.0,0.0,0.0,0.0,0.0,0.0,0.0,0.0,0.0,0.0,0.0,0.0,0.0,0.0,0.0,0.0,0.0,0.0,0.0,0.0,0.0,0.0,0.0,0.0,0.0,0.0,0.0,0.0,0.0,0.0,0.0,0.0,0.0,0.0,0.0,0.0,0.0,0.0,0.0,0.0,0.0,0.0,0.0,0.0,0.0,0.0,0.0,0.0,0.0,0.0,0.0,0.0,0.0,0.0,0.0,0.0,0.0,0.0,0.0,0.0,0.0,0.0,0.0,0.0,0.0,0.0,0.0,0.0,0.0,0.0,0.0,0.0,0.0,0.0,0.0,0.0,0.0,0.0,0.0,0.0,0.0,0.0,0.0,0.0,0.0,0.0,0.0,0.0,0.0,0.0,0.0,0.0,0.0,0.0,0.0,0.0,0.0,0.0,0.0,0.0,0.0,0.0,0.0,0.0,0.0,0.0,0.0,0.0,0.0,0.0,0.0,0.0,0.0,0.0,0.0,0.0,0.0,0.0,0.0,0.0,0.0,0.0,0.0,0.0,0.0,0.0,0.0,0.0,0.0,0.0,0.0,0.0,0.0,0.0,0.0,0.0,0.0,0.0,0.0,0.0,0.0,0.0,0.0,0.0,0.0,0.0,0.0,0.0,0.0,0.0,0.0,0.0,0.0,0.0,0.0,0.0,0.0,0.0,0.0,0.0,0.0,0.0,0.0,0.0,0.0,0.0,0.0,0.0,0.0,0.0,0.0,0.0,0.0,0.0,0.0,0.0,0.0,0.0,0.0,0.0,0.0,0.0,0.0,0.0,0.0,0.0,0.0,0.0,0.0,0.0,0.0,0.0,0.0,0.0,0.0,0.0,0.0,0.0,0.0,0.0,0.0,0.0,0.0,0.0,0.0,0.0,0.0,0.0,0.0,0.0,0.0,0.0,0.0,0.0,0.0,0.0,0.0,0.0,0.0,0.0,0.0,0.0,0.0,0.0,0.0,0.0,0.0,0.0,0.0,0.0,0.0,0.0,0.0,0.0,0.0,0.0,0.0,0.0,0.0,0.0,0.0,0.0,0.0,0.0,0.0,0.0,0.0,0.0,0.0,0.0,0.0,0.0,0.0,0.0,0.0,0.0,0.0,0.0,0.0,0.0,0.0,0.0,0.0,0.0,0.0,0.0,0.0,0.0,0.0,0.0,0.0,0.0,0.0,0.0,0.0,0.0,0.0,0.0,0.0,0.0,0.0,0.0,0.0,0.0,0.0,0.0,0.0,0.0,0.0,0.0,0.0,0.0,0.0,-1.5248,-1.4744,0.0,0.0,0.0,0.0,0.0,0.0,0.0,0.0,0.0,0.0,0.0,0.0,0.0,0.0,0.0,0.0,0.0,0.0,0.0,0.0,0.0,0.0,0.0,-0.7484,-0.8226,-0.903,-0.9039,-0.8996,-0.9002,0.0,0.0,0.0,0.0,0.0,-0.8891,-0.8936,-0.8976,-0.8998,-0.9417,-0.9885,-1.0394,-1.0475,-0.9922,-0.8852,0.0,0.0,0.0,0.0,0.0,0.0,0.0,0.0,0.0,0.0,0.0,0.0,0.0,0.0,0.0,0.0,0.0,0.0,0.0,0.0,0.0,0.0,0.0,0.0,0.0,0.0,0.0,0.0,0.0,0.0,0.0,0.0,0.0,0.0,0.0,0.0,0.0,0.0,0.0,0.0,0.0,0.0,0.0,0.0,0.0,0.0,0.0,0.0,0.0,0.0,0.0,0.0,0.0,0.0,0.0,0.0,0.0,0.0,0.0,0.0,0.0,0.0,0.0,0.0,0.0,0.0,0.0,0.0,0.0,0.0,-1.7839,-1.7128,0.0,0.0,0.0,0.0,0.0,0.0,0.0,0.0,0.0,0.0,0.0,0.0,0.0,0.0,0.0,0.0,0.0,0.0,0.0,0.0,0.0,-0.6135,-0.6996,-0.7701,-0.8374,-0.905,-0.9054,-0.9011,-0.9013,0.0,0.0,0.0,0.0,-0.8902,-0.8919,-0.8976,-0.9066,-0.923,-1.0117,-1.1053,-1.1948,-1.2005,0.0,0.0,-1.0042,0.0,0.0,0.0,0.0,0.0,0.0,0.0,0.0,0.0,0.0,0.0,0.0,0.0,0.0,0.0,0.0,0.0,0.0,0.0,0.0,0.0,0.0,0.0,0.0,0.0,0.0,0.0,0.0,0.0,0.0,0.0,0.0,0.0,0.0,0.0,0.0,0.0,0.0,0.0,0.0,0.0,0.0,0.0,0.0,0.0,0.0,0.0,0.0,0.0,0.0,0.0,0.0,0.0,0.0,0.0,0.0,0.0,0.0,0.0,0.0,0.0,0.0,0.0,-2.1178,-2.1178,-2.1197,-2.1937,-2.2357,-2.2422,-2.1043,-2.0183,-1.9707,-1.8844,0.0,0.0,0.0,0.0,0.0,0.0,0.0,0.0,0.0,0.0,0.0,0.0,0.0,0.0,0.0,0.0,0.0,0.0,0.0,-0.6959,-0.7762,-0.8497,-0.9009,-0.9174,-0.9116,-0.9085,-0.9088,0.0,0.0,0.0,-0.8936,-0.8919,-0.8981,-0.8998,-0.9372,-1.0117,-1.1128,-1.2059,-1.2925,0.0,0.0,0.0,-1.218,-1.1463,0.0,0.0,0.0,0.0,0.0,0.0,0.0,0.0,0.0,0.0,0.0,0.0,0.0,0.0,0.0,0.0,0.0,0.0,0.0,0.0,0.0,0.0,0.0,0.0,0.0,0.0,0.0,0.0,0.0,0.0,0.0,0.0,0.0,0.0,0.0,0.0,0.0,0.0,0.0,0.0,0.0,0.0,-1.2241,-1.3161,0.0,0.0,0.0,0.0,0.0,0.0,0.0,0.0,0.0,0.0,0.0,0.0,0.0,-2.0472,-2.2104,-2.2246,-2.309,-2.4639,-2.4639,-2.4639,-2.4639,-2.481,-2.5318,-2.6022,-2.5867,0.0,-2.2429,-2.1557,0.0,0.0,0.0,0.0,0.0,0.0,0.0,0.0,0.0,0.0,0.0,0.0,0.0,0.0,0.0,0.0,0.0,0.0,0.0,0.0,0.0,-0.8684,-0.9184,-0.9261,-0.9224,-0.9194,0.0,0.0,0.0,-0.8998,-0.8976,-0.8964,-0.901,-0.9475,-1.0639,-1.2487,-1.2932,0.0,0.0,0.0,0.0,0.0,0.0,0.0,0.0,0.0,0.0,0.0,0.0,0.0,0.0,0.0,0.0,0.0,0.0,0.0,0.0,0.0,0.0,0.0,0.0,0.0,0.0,0.0,0.0,0.0,0.0,0.0,0.0,0.0,0.0,0.0,0.0,0.0,0.0,0.0,0.0,0.0,0.0,0.0,0.0,0.0,0.0,0.0,0.0,-1.2469,-1.4124,-1.4971,-1.4991,-1.4954,0.0,0.0,0.0,0.0,0.0,0.0,0.0,0.0,0.0,-2.0469,-2.2623,-2.4169,-2.4937,-2.5418,-2.6024,-2.6755,-2.6755,-2.6755,-2.6755,-2.6795,-2.7007,-2.7383,-2.7489,-2.6907,-2.577,-2.44,-2.3346,-2.2429,0.0,0.0,0.0,0.0,-2.1427,-2.25,0.0,0.0,0.0,0.0,0.0,0.0,0.0,0.0,0.0,0.0,0.0,0.0,-0.8294,-0.906,-0.9584,-0.9659,0.0,0.0,0.0,0.0,0.0,-0.9035,-0.9009,-0.91,-0.9338,-1.0627,-1.2262,0.0,0.0,0.0,0.0,0.0,0.0,0.0,0.0,0.0,0.0,0.0,0.0,0.0,0.0,0.0,0.0,0.0,0.0,0.0,0.0,0.0,0.0,0.0,0.0,0.0,0.0,0.0,0.0,0.0,0.0,0.0,0.0,0.0,0.0,0.0,0.0,0.0,0.0,0.0,0.0,0.0,0.0,0.0,0.0,0.0,0.0,0.0,0.0,0.0,0.0,-1.426,-1.5884,-1.6998,-1.7261,-1.7363,0.0,0.0,0.0,0.0,0.0,0.0,-2.1024,-2.2738,-2.3697,-2.3697,-2.581,-2.7127,-2.7569,-2.8225,-2.8756,-2.9179,-2.9179,-2.9179,-2.9179,-2.9195,-2.9196,-2.9206,-2.9311,-2.9364,-2.9198,-2.7064,-2.5719,-2.4839,-2.3533,-2.3385,-2.3902,-2.3901,-2.4397,-2.5176,0.0,0.0,0.0,0.0,0.0,0.0,0.0,0.0,0.0,0.0,0.0,-0.8311,0.0,0.0,0.0,0.0,0.0,0.0,0.0,0.0,0.0,-0.9123,-0.9028,-0.9389,-1.0216,-1.2707,0.0,0.0,0.0,0.0,0.0,0.0,0.0,0.0,0.0,0.0,0.0,0.0,0.0,0.0,0.0,0.0,0.0,0.0,0.0,0.0,0.0,0.0,0.0,0.0,0.0,0.0,0.0,0.0,0.0,0.0,0.0,0.0,0.0,0.0,0.0,0.0,0.0,0.0,0.0,0.0,0.0,0.0,0.0,0.0,0.0,0.0,0.0,0.0,0.0,0.0,0.0,0.0,0.0,-1.942,-2.0277,0.0,0.0,0.0,0.0,-2.105,-2.1952,-2.2834,-2.3762,-2.5463,-2.6406,-2.6406,-2.7341,-2.8602,-3.0186,-3.0244,-3.1083,-3.2641,-3.2641,-3.2641,-3.2641,-3.2716,-3.2728,-3.274,-3.2759,-3.2791,-3.26,-2.9394,-2.7548,-2.6765,-2.6668,-2.6611,-2.6605,-2.6604,-2.7066,-2.7721,0.0,0.0,0.0,-0.4086,-0.4161,-0.4457,-0.5222,-0.5831,-0.6605,-0.7684,-0.8381,0.0,0.0,0.0,0.0,0.0,0.0,0.0,0.0,0.0,0.0,-0.988,-0.9807,-1.0696,-1.2644,-1.365,0.0,0.0,0.0,0.0,0.0,0.0,0.0,0.0,0.0,0.0,0.0,0.0,0.0,0.0,0.0,0.0,0.0,0.0,0.0,0.0,0.0,0.0,0.0,0.0,0.0,0.0,0.0,0.0,0.0,0.0,0.0,0.0,0.0,0.0,0.0,0.0,0.0,0.0,0.0,0.0,0.0,0.0,0.0,0.0,0.0,0.0,0.0,0.0,0.0,0.0,0.0,0.0,0.0,-2.1179,-2.1657,0.0,-2.2759,-2.2646,-2.3095,-2.4547,-2.5011,-2.5589,-2.6455,-2.8118,-2.9041,-2.9041,-3.039,-3.1391,-3.2006,-3.2006,-3.2314,-3.2891,-3.2891,-3.2891,-3.2891,-3.2967,-3.2998,-3.301,-3.2998,-3.3012,-3.2946,-3.1824,-3.0878,-3.0067,-2.9504,-2.9268,-2.9306,-2.9823,-3.0153,-3.0428,-0.384,-0.3921,0.0,-0.4058,-0.4118,-0.4509,-0.5488,-0.6185,-0.6983,-0.8021,-0.9005,0.0,0.0,0.0,0.0,0.0,0.0,0.0,0.0,0.0,-1.1124,-1.0755,-1.1215,-1.2271,0.0,0.0,0.0,0.0,0.0,0.0,0.0,0.0,0.0,0.0,0.0,0.0,0.0,0.0,0.0,0.0,0.0,0.0,-1.3353,0.0,0.0,0.0,0.0,0.0,0.0,0.0,0.0,0.0,0.0,0.0,0.0,0.0,0.0,0.0,0.0,0.0,0.0,0.0,0.0,0.0,0.0,0.0,0.0,0.0,0.0,0.0,0.0,0.0,0.0,0.0,0.0,0.0,0.0,0.0,-2.1299,-2.2882,-2.3597,-2.4247,-2.4994,-2.5101,-2.5638,-2.6811,-2.7466,-2.8084,-2.8687,-3.0309,-3.1244,-3.1237,-3.2314,-3.3045,-3.3333,-3.3333,-3.3487,-3.3776,-3.3776,-3.3776,-3.3776,-3.3821,-3.3853,-3.3853,-3.3851,-3.3836,-3.3848,-3.3881,-3.3615,-3.3035,-3.1891,-3.1437,-3.1507,-3.2028,-3.2188,-3.2216,-0.3781,-0.3847,-0.3927,-0.3984,-0.407,-0.4624,-0.608,-0.6494,-0.7175,-0.8705,-0.9758,0.0,0.0,0.0,0.0,0.0,0.0,0.0,0.0,-1.2862,-1.2472,-1.1698,-1.32,-1.4097,0.0,0.0,0.0,0.0,0.0,0.0,0.0,0.0,0.0,0.0,0.0,0.0,0.0,0.0,0.0,0.0,0.0,0.0,-1.436,0.0,0.0,0.0,0.0,0.0,0.0,0.0,0.0,0.0,0.0,0.0,0.0,0.0,0.0,0.0,0.0,0.0,0.0,0.0,0.0,0.0,0.0,0.0,0.0,0.0,0.0,0.0,0.0,0.0,0.0,0.0,0.0,0.0,-1.8337,-2.1064,-2.3523,-2.4559,-2.6169,-2.7296,-2.7523,-2.7627,-2.7714,-2.7803,-2.9346,-3.0305,-3.0381,-3.2013,-3.2929,-3.2949,-3.2968,-3.3391,-3.4218,-3.4237,-3.4661,-3.5493,-3.5493,-3.5493,-3.5493,-3.5493,-3.5493,-3.5493,-3.5493,-3.5501,-3.5502,-3.5502,-3.5547,-3.5449,-3.3817,-3.318,-3.3179,-3.3109,-3.3084,-3.3056,-0.3773,-0.3847,-0.392,-0.3986,-0.4417,-0.5081,-0.6076,-0.6819,-0.7637,-0.8689,0.0,0.0,0.0,0.0,0.0,0.0,0.0,0.0,0.0,0.0,-1.2949,-1.3247,-1.4262,0.0,0.0,0.0,0.0,0.0,0.0,0.0,0.0,0.0,0.0,0.0,0.0,0.0,0.0,0.0,0.0,0.0,0.0,0.0,-1.7702,0.0,0.0,0.0,0.0,0.0,0.0,0.0,0.0,0.0,0.0,0.0,0.0,0.0,0.0,0.0,0.0,0.0,0.0,0.0,0.0,0.0,0.0,0.0,0.0,0.0,0.0,0.0,0.0,0.0,0.0,0.0,-2.0047,-2.1717,-2.1605,-2.2959,-2.4561,-2.615,-2.685,-2.7509,-2.829,-2.8954,-2.9641,-3.0333,-3.1393,-3.2044,-3.2108,-3.3171,-3.3774,-3.3833,-3.4468,-3.4911,-3.5141,-3.5141,-3.5257,-3.5493,-3.5493,-3.5493,-3.5493,-3.5493,-3.5493,-3.5493,-3.5493,-3.5507,-3.5501,-3.5501,-3.5501,-3.5489,-3.5083,-3.487,-3.4846,-3.4815,-3.4809,-3.4732,-0.3773,-0.3855,-0.3913,-0.3987,-0.4554,-0.527,-0.6072,-0.6933,-0.7819,-0.8689,0.0,0.0,0.0,0.0,0.0,0.0,0.0,0.0,-1.3369,-1.3608,-1.3973,0.0,0.0,0.0,0.0,0.0,0.0,0.0,0.0,0.0,0.0,0.0,0.0,0.0,0.0,0.0,0.0,0.0,0.0,0.0,0.0,0.0,-1.9593,-1.7742,-1.6508,-1.563,-1.4691,-1.3998,-1.345,-1.3046,0.0,0.0,0.0,0.0,0.0,0.0,0.0,0.0,0.0,0.0,0.0,0.0,0.0,0.0,0.0,0.0,0.0,0.0,0.0,0.0,0.0,0.0,0.0,0.0,-2.2022,-2.3687,-2.4812,-2.5481,-2.6244,-2.7326,-2.8203,-2.8967,-2.9559,-3.0404,-3.1156,-3.177,-3.2638,-3.3176,-3.3312,-3.4141,-3.4644,-3.4737,-3.5238,-3.5493,-3.5493,-3.5493,-3.568,-3.6007,-3.6007,-3.6199,-3.6546,-3.6546,-3.6546,-3.6546,-3.6546,-3.6546,-3.6526,-3.6161,-3.6007,-3.5968,0.0,0.0,0.0,0.0,-3.5501,-3.543,-0.3803,-0.3855,-0.3928,-0.3979,-0.4614,-0.5362,-0.6088,-0.6991,-0.7885,-0.8688,0.0,0.0,0.0,0.0,0.0,0.0,0.0,0.0,0.0,0.0,0.0,0.0,0.0,0.0,0.0,0.0,0.0,0.0,0.0,0.0,0.0,0.0,0.0,0.0,0.0,0.0,0.0,0.0,0.0,0.0,0.0,0.0,-2.0689,-1.9815,-1.895,-1.8057,-1.7113,-1.6629,-1.6288,-1.543,0.0,0.0,0.0,0.0,0.0,0.0,0.0,0.0,0.0,0.0,0.0,0.0,0.0,0.0,0.0,0.0,0.0,0.0,0.0,0.0,0.0,0.0,0.0,0.0,-2.3753,-2.5241,-2.76,-2.8117,-2.8278,-2.8363,-2.9788,-3.0843,-3.0997,-3.1806,-3.2373,-3.2505,-3.3317,-3.3918,-3.4114,0.0,0.0,0.0,0.0,-3.5685,-3.5762,-3.5782,-3.6142,-3.6853,-3.6853,-3.7257,-3.8007,-3.8007,-3.8007,-3.8007,-3.8007,-3.8007,-3.795,-3.718,-3.6853,-3.6757,-3.5853,-3.5493,-3.5493,-3.5493,-3.5493,-3.5493,-0.3862,-0.3891,-0.3921,-0.3987,-0.5006,-0.59,-0.6156,-0.7358,-0.8339,-0.8663,-0.9094,0.0,0.0,0.0,0.0,0.0,0.0,0.0,0.0,0.0,0.0,0.0,0.0,0.0,0.0,0.0,0.0,0.0,0.0,0.0,0.0,0.0,0.0,0.0,0.0,0.0,0.0,0.0,0.0,0.0,0.0,0.0,-2.2428,-2.155,-2.0676,-1.979,-1.8836,-1.7983,-1.7135,-1.6272,-1.5784,-1.5401,-1.4588,0.0,0.0,0.0,0.0,0.0,0.0,0.0,0.0,0.0,0.0,0.0,0.0,0.0,0.0,0.0,0.0,0.0,0.0,0.0,0.0,-2.4306,-2.5965,-2.7409,-2.859,-2.9398,-2.9871,-2.9958,-3.0309,-3.0841,-3.157,-3.2459,-3.3032,-3.3116,-3.4031,-3.4661,-3.4808,-3.5081,-3.5545,-3.6281,-3.64,-3.6776,-3.7429,-3.7493,-3.7584,-3.7757,-3.7757,0.0,-3.8007,-3.8007,-3.8007,-3.8007,-3.8007,-3.8007,-3.7988,-3.7815,-3.7757,-3.7603,-3.6103,-3.5493,-3.5493,-3.5493,-3.5493,-3.5493,-0.3891,-0.3899,-0.4025,-0.4439,-0.5328,-0.6155,-0.6629,-0.7672,-0.8463,-0.8677,-0.8897,0.0,0.0,0.0,0.0,0.0,0.0,0.0,0.0,0.0,0.0,0.0,0.0,0.0,0.0,0.0,0.0,0.0,0.0,0.0,0.0,0.0,0.0,0.0,0.0,0.0,0.0,0.0,0.0,0.0,0.0,0.0,-2.3264,-2.2538,-2.1954,-2.1389,-2.0029,-1.9183,-1.8552,-1.7663,-1.7007,-1.6531,-1.6095,-1.5401,-1.4607,0.0,0.0,0.0,0.0,0.0,0.0,0.0,0.0,0.0,0.0,0.0,0.0,0.0,0.0,-2.0635,-2.2382,0.0,-2.4352,-2.6563,-2.7661,-2.8704,-3.0002,-3.0564,-3.087,-3.0936,-3.1381,-3.1816,-3.2242,-3.3115,-3.3692,-3.3807,-3.4376,-3.4958,-3.5514,-3.5665,-3.6117,-3.7026,-3.7135,-3.7379,-3.7849,-3.7881,-3.8143,-3.8612,-3.8612,-3.8839,-3.9238,-3.9238,-3.9238,-3.9238,-3.9238,-3.9238,-3.9219,-3.8815,-3.8392,-3.7911,-3.7084,-3.6757,-3.6699,-3.6257,-3.6103,-3.6045,-0.4015,-0.4076,-0.4279,-0.4888,-0.5666,-0.6411,-0.7074,-0.7853,-0.8454,-0.8645,-0.8834,-0.8974,-0.9026,-0.9157,-0.956,0.0,0.0,0.0,0.0,0.0,0.0,0.0,0.0,0.0,0.0,0.0,0.0,0.0,0.0,0.0,0.0,0.0,0.0,0.0,0.0,0.0,0.0,0.0,0.0,0.0,0.0,0.0,-2.3617,-2.3107,-2.2912,-2.2676,-2.093,-2.0219,-1.9934,-1.8861,-1.8023,-1.7402,-1.7364,-1.6766,-1.5985,-1.5347,-1.5002,0.0,0.0,0.0,0.0,0.0,0.0,0.0,0.0,0.0,-2.0281,-2.1109,-2.1989,-2.3074,-2.4665,-2.5272,-2.6261,-2.8567,-2.9138,-2.9832,-3.1421,-3.1623,-3.1721,-3.1937,-3.2428,-3.2822,-3.2969,-3.3635,-3.4124,-3.4221,-3.4558,-3.5127,-3.5934,-3.623,-3.6785,-3.7718,-3.7776,-3.7928,-3.8228,-3.8246,-3.8659,-3.9429,-3.9448,-3.9807,-4.0489,-4.0489,-4.0489,-4.0489,-4.0508,-4.0508,-4.045,-3.9765,-3.9092,-3.8443,-3.8424,-3.8443,-3.8308,-3.732,-3.6949,-3.6873,-0.4493,-0.4705,-0.483,-0.4982,-0.6052,-0.6952,-0.7088,-0.7803,-0.8361,-0.8508,-0.871,-0.8823,-0.8841,-0.8951,-0.9386,-1.0238,0.0,0.0,0.0,0.0,0.0,0.0,0.0,0.0,0.0,0.0,0.0,0.0,0.0,0.0,0.0,0.0,0.0,0.0,0.0,0.0,0.0,0.0,0.0,0.0,0.0,0.0,-2.3576,-2.3392,-2.3424,-2.3379,-2.1678,-2.0942,-2.0541,-1.9017,-1.8351,-1.8177,-1.8165,-1.7567,-1.6863,-1.6855,0.0,-1.5735,-1.6411,-1.7179,-1.7772,-1.7879,-1.8468,-1.9213,0.0,0.0,-2.2659,-2.3537,-2.441,-2.5332,-2.6437,-2.7378,-2.8376,-2.9584,-3.0476,-3.1364,-3.2313,-3.2485,-3.2742,-3.3458,-3.3007,-3.2915,-3.3632,-3.3813,-3.3947,-3.4023,-3.4835,-3.538,-3.5546,-3.6429,-3.7314,-3.8202,-3.8404,-3.8892,-3.9753,-3.9872,-4.004,-4.0279,-4.0332,-4.0419,-4.0489,-4.0489,-4.0489,-4.0489,-4.0495,-4.0499,-4.0482,-4.0264,-4.0133,-4.0038,-3.9984,-3.9947,-3.9774,-3.837,-3.7853,-3.7834,-0.4562,-0.5317,-0.5927,-0.6033,-0.6583,-0.7154,-0.7616,-0.8031,-0.8325,-0.8374,-0.8558,-0.8681,-0.8684,-0.8846,-0.9287,-1.0164,-1.1028,0.0,0.0,0.0,0.0,0.0,0.0,0.0,0.0,0.0,0.0,0.0,0.0,0.0,0.0,0.0,0.0,0.0,0.0,0.0,0.0,0.0,0.0,0.0,0.0,0.0,-2.3146,-2.2706,-2.2506,-2.233,-2.1242,-2.0469,0.0,0.0,-1.8155,-1.8053,-1.8078,-1.7791,-1.7467,-1.7488,-1.7509,0.0,-1.8558,-1.9155,0.0,0.0,-2.0818,-2.1586,-2.2416,-2.3423,-2.4441,-2.5307,-2.5719,-2.6212,-2.7183,-2.8103,-2.9101,0.0,-3.1138,-3.2074,-3.2985,-3.3177,-3.3341,-3.3716,-3.3486,-3.344,-3.377,-3.3842,-3.4115,-3.4658,-3.5103,-3.5773,-3.6764,-3.7266,-3.7902,-3.882,-3.8927,-3.9242,-3.9762,-3.9895,-4.0059,-4.0234,-4.0291,-4.0344,-4.0375,-4.0375,-4.0375,-4.0375,-4.0377,-4.0342,-4.0252,-4.0215,-4.0158,-4.012,-4.0101,-4.0081,-3.9948,-3.8948,-3.858,-3.8503,-0.4796,-0.5792,-0.6695,-0.7004,-0.7152,-0.7435,-0.7991,-0.818,-0.8261,-0.8243,-0.8403,-0.8546,-0.8592,-0.8748,-0.9117,-0.9783,-1.082,-1.2341,0.0,0.0,0.0,0.0,0.0,0.0,0.0,0.0,0.0,0.0,0.0,0.0,0.0,0.0,0.0,0.0,0.0,0.0,0.0,0.0,0.0,0.0,0.0,0.0,-2.2807,-2.2073,-2.1534,-2.1076,-2.024,-1.9485,0.0,0.0,-1.7555,-1.7545,-1.7749,-1.7772,-1.7777,-1.7979,-1.8728,-1.9647,-2.0535,0.0,0.0,-2.2358,-2.3006,-2.3621,-2.4465,-2.5045,-2.5669,-2.6521,-2.6613,-2.6753,-2.7507,-2.8381,-2.9306,-3.0433,-3.1386,-3.2324,-3.3277,-3.3549,-3.3633,-3.3671,-3.3726,-3.378,-3.3807,-3.3842,-3.4236,-3.5073,-3.5422,-3.6196,-3.7636,-3.7998,-3.8442,-3.9055,-3.9192,-3.9324,-3.9477,-3.9647,-3.9826,-4.0015,-4.0098,-4.0158,-4.0214,-4.0214,-4.0214,-4.0233,-4.0196,-4.012,-4.0041,-3.9981,-3.9899,-3.9878,-3.9816,-3.9794,-3.9759,-3.9254,-3.9166,-3.9204,-0.5326,-0.6078,-0.6839,-0.7548,-0.7797,-0.7913,-0.7985,-0.8128,-0.8168,-0.8123,-0.8229,-0.8374,-0.8587,-0.8657,-0.8781,-0.8931,-1.0394,-1.172,-1.2715,0.0,0.0,0.0,0.0,0.0,0.0,0.0,0.0,0.0,0.0,0.0,0.0,0.0,0.0,0.0,0.0,0.0,0.0,0.0,0.0,0.0,0.0,0.0,-2.2704,-2.1841,-2.0934,-1.9991,-1.8719,0.0,0.0,0.0,-1.655,-1.6581,-1.7355,-1.7549,0.0,-1.8458,-1.9833,0.0,0.0,0.0,-2.3984,-2.478,-2.4977,-2.5126,-2.5868,-2.5997,-2.6189,-2.6992,-2.7178,-2.7227,-2.7448,-2.8229,-2.9167,-3.0219,-3.1153,-3.2061,-3.3082,-3.3316,-3.3452,-3.3577,-3.3671,-3.3726,0.0,-3.3788,-3.4137,-3.4935,-3.5789,-3.6644,-3.747,-3.8302,-3.8785,-3.8822,-3.8989,-3.9129,-3.921,-3.9477,-3.967,-3.9804,-3.9954,-4.0019,-4.0022,-4.0022,-4.0022,-4.0002,-3.9937,-3.9914,-3.9892,-3.9647,-3.9526,-3.9483,-3.9357,-3.9324,-3.9324,-3.9287,-3.9595,-3.9984,-0.5754,-0.6532,-0.7182,-0.7561,-0.7739,-0.7841,-0.787,-0.797,-0.8054,-0.8041,-0.8152,0.0,0.0,0.0,0.0,0.0,-0.9719,-1.0997,-1.2467,-1.3891,0.0,0.0,0.0,0.0,0.0,0.0,0.0,0.0,0.0,0.0,0.0,0.0,0.0,0.0,0.0,0.0,0.0,0.0,0.0,0.0,0.0,0.0,-2.0926,-2.0051,-1.9142,-1.8117,0.0,0.0,0.0,0.0,0.0,0.0,-1.6248,0.0,0.0,-1.9295,0.0,-2.1838,0.0,0.0,-2.4636,-2.5425,-2.5613,-2.5802,-2.6585,-2.671,-2.6732,-2.7004,-2.6563,-2.6173,-2.6236,-2.6933,-2.7818,-2.8838,-3.0234,-3.1553,-3.2645,-3.3024,-3.3286,-3.3491,-3.3615,0.0,0.0,0.0,0.0,-3.5771,-3.6138,-3.6872,-3.8212,-3.8573,-3.8719,-3.8719,-3.8833,-3.8921,-3.9007,-3.9183,-3.9298,-3.9401,-3.9575,-3.9651,-3.9679,-3.9766,-3.9747,-3.9656,-3.9651,-3.9575,-3.9427,-3.9324,-3.9272,-3.9219,-3.9192,-3.9183,-3.9183,-3.9183,-3.9253,-3.9414,-0.5904,-0.667,-0.7298,-0.7484,-0.765,0.0,0.0,0.0,0.0,0.0,0.0,0.0,0.0,0.0,0.0,0.0,0.0,-1.0293,-1.1451,0.0,0.0,0.0,0.0,0.0,0.0,0.0,0.0,0.0,0.0,0.0,0.0,0.0,0.0,0.0,0.0,0.0,0.0,0.0,0.0,0.0,0.0,0.0,-1.9504,-1.8617,-1.7697,0.0,0.0,0.0,0.0,0.0,0.0,0.0,0.0,0.0,0.0,-2.0243,-2.1437,-2.2545,-2.3639,-2.4526,-2.532,-2.6087,-2.6275,-2.6394,-2.692,-2.672,-2.6452,-2.6435,-2.5727,-2.509,-2.509,-2.5746,-2.6724,-2.7997,-2.942,-3.0854,-3.2246,-3.2737,-3.3131,-3.3683,-3.3927,-3.4181,0.0,0.0,0.0,-3.6211,-3.656,-3.7312,-3.8634,-3.8707,-3.8707,-3.8707,-3.878,-3.8822,-3.8862,-3.9007,-3.9101,-3.9156,-3.9298,-3.935,-3.9376,-3.9452,-3.9452,-3.935,-3.9324,-3.9264,-3.9129,-3.9092,-3.9017,-3.8989,-3.8979,-3.895,-3.895,-3.895,-3.895,-3.8979,-0.5828,-0.6542,-0.7139,0.0,0.0,0.0,0.0,0.0,0.0,0.0,0.0,0.0,0.0,0.0,0.0,0.0,0.0,0.0,0.0,0.0,0.0,0.0,0.0,0.0,0.0,0.0,0.0,0.0,0.0,0.0,0.0,0.0,0.0,0.0,0.0,0.0,0.0,0.0,0.0,0.0,0.0,0.0,-1.8425,-1.7517,0.0,0.0,0.0,0.0,0.0,0.0,0.0,0.0,0.0,0.0,0.0,0.0,-2.2273,-2.3462,-2.511,-2.5725,-2.6121,-2.6855,-2.6943,-2.6876,-2.6842,-2.6133,-2.5446,-2.5363,-2.4695,-2.4113,-2.4113,0.0,-2.5832,-2.759,-2.8682,-2.9989,-3.1865,-3.2422,-3.3042,0.0,0.0,0.0,0.0,0.0,0.0,-3.6358,0.0,-3.7845,-3.867,-3.8707,-3.8707,-3.8707,-3.8762,-3.8792,-3.8792,-3.8939,-3.9007,-3.9073,-3.9073,-3.9073,-3.9073,-3.9101,-3.9101,-3.9073,-3.9007,-3.8997,-3.8979,-3.8851,-3.8792,-3.8792,-3.8719,-3.8707,-3.8707,-3.8707,-3.8707,-3.8738,0.0,0.0,0.0,0.0,0.0,0.0,0.0,0.0,0.0,0.0,0.0,0.0,0.0,0.0,0.0,0.0,0.0,0.0,0.0,0.0,0.0,0.0,0.0,0.0,0.0,0.0,0.0,0.0,0.0,0.0,0.0,0.0,0.0,0.0,0.0,0.0,0.0,0.0,0.0,0.0,0.0,0.0,-1.5978,0.0,0.0,0.0,0.0,0.0,0.0,0.0,0.0,0.0,0.0,0.0,-2.0863,0.0,0.0,-2.4763,-2.5848,-2.6337,-2.6673,-2.7402,-2.7148,-2.6539,-2.5966,-2.5547,-2.508,-2.4398,-2.3555,-2.2916,-2.2851,0.0,0.0,-2.5547,-2.7215,0.0,-3.0837,-3.2336,0.0,-3.3926,0.0,-3.5389,-3.5729,-3.6479,0.0,0.0,-3.7319,-3.7845,-3.867,-3.8707,-3.8707,-3.8707,-3.8738,-3.8738,-3.8738,-3.875,-3.878,-3.8792,-3.8833,-3.8862,-3.8862,-3.8921,-3.8921,-3.8862,-3.8881,-3.8822,-3.878,-3.8719,-3.8738,-3.8719,-3.8707,-3.8707,-3.8707,-3.8707,-3.8707,-3.8707,0.0,0.0,0.0,0.0,0.0,0.0,0.0,0.0,0.0,0.0,0.0,0.0,0.0,0.0,0.0,0.0,0.0,0.0,0.0,0.0,0.0,0.0,0.0,0.0,0.0,0.0,0.0,0.0,0.0,0.0,0.0,0.0,0.0,0.0,0.0,0.0,0.0,0.0,0.0,0.0,0.0,0.0,0.0,0.0,0.0,0.0,0.0,0.0,0.0,0.0,0.0,-1.8152,-1.9625,-2.0732,-2.1743,-2.2804,0.0,-2.5582,-2.6524,-2.7136,-2.753,-2.7702,-2.7145,-2.6353,-2.5631,-2.4512,-2.3438,-2.2931,-2.1792,0.0,-2.1247,-2.1697,0.0,0.0,0.0,0.0,-3.0295,-3.2121,-3.3419,0.0,-3.4978,0.0,-3.6306,-3.7045,-3.7548,0.0,-3.7918,-3.8212,-3.8689,-3.8707,-3.8707,-3.8707,-3.8707,-3.8707,-3.8707,-3.8707,-3.8707,-3.8707,-3.875,-3.875,-3.875,-3.881,-3.8792,-3.875,-3.875,-3.8719,-3.8707,-3.8707,-3.8707,-3.8707,-3.8707,-3.8707,-3.8707,-3.8707,-3.8707,-3.8707,0.0,0.0,0.0,0.0,0.0,0.0,0.0,0.0,0.0,0.0,0.0,0.0,0.0,0.0,0.0,0.0,0.0,0.0,0.0,0.0,0.0,0.0,0.0,0.0,0.0,0.0,0.0,0.0,0.0,0.0,0.0,0.0,0.0,0.0,0.0,0.0,0.0,0.0,0.0,0.0,0.0,0.0,0.0,0.0,0.0,0.0,0.0,0.0,0.0,0.0,-1.8967,-1.9783,-2.0652,-2.1561,-2.2611,-2.3963,-2.5118,-2.6176,-2.7139,-2.7914,-2.836,-2.7894,-2.7088,-2.6165,-2.5246,-2.3205,-2.1428,-2.1111,0.0,-1.9001,-1.9606,-2.054,-2.1907,-2.4149,0.0,-2.8027,-2.9824,-3.1685,-3.3179,-3.4073,-3.5196,-3.6253,-3.7079,-3.7523,-3.7915,-3.8223,-3.8501,-3.8658,-3.8707,-3.8707,-3.8707,-3.8707,-3.8707,-3.8707,-3.8707,-3.8707,-3.8707,-3.8707,-3.8707,-3.8707,-3.8707,-3.8707,-3.8707,-3.8707,-3.8707,-3.8707,-3.8707,-3.8707,-3.8707,-3.8707,-3.8707,-3.8707,-3.8707,-3.8707,-3.8707,-3.8707,0.0,0.0,0.0,0.0,0.0,0.0,0.0,-0.6878,-0.7088,0.0,0.0,0.0,0.0,0.0,0.0,0.0,0.0,0.0,0.0,0.0,0.0,0.0,0.0,0.0,0.0,0.0,0.0,0.0,0.0,0.0,0.0,0.0,0.0,0.0,0.0,0.0,0.0,0.0,0.0,0.0,0.0,0.0,0.0,0.0,0.0,0.0,0.0,0.0,0.0,0.0,-1.8439,-1.9123,-2.096,-2.2032,-2.2848,-2.3851,-2.5157,-2.6532,-2.7515,-2.8007,-2.8174,-2.8114,-2.7052,-2.5497,-2.3539,-2.2069,0.0,0.0,0.0,-1.8454,-1.8624,-1.9436,0.0,-2.1808,0.0,0.0,0.0,0.0,-3.3119,0.0,0.0,0.0,0.0,0.0,0.0,0.0,-3.8285,-3.8496,-3.8707,-3.8707,-3.8707,-3.8707,-3.8707,-3.8707,-3.8707,-3.8707,-3.8707,-3.8707,-3.8707,-3.8707,-3.8707,-3.8707,-3.8707,-3.8707,-3.8707,-3.8707,-3.8707,-3.8707,-3.8707,-3.8707,-3.8707,-3.8707,-3.8707,-3.8707,-3.8707,-3.8707,0.0,0.0,0.0,0.0,0.0,0.0,0.0,-0.6364,-0.6587,-0.6852,-0.7077,-0.7345,-0.762,-0.7679,0.0,0.0,0.0,0.0,0.0,0.0,0.0,0.0,0.0,0.0,0.0,0.0,0.0,0.0,0.0,0.0,0.0,0.0,0.0,0.0,0.0,0.0,0.0,0.0,0.0,0.0,0.0,0.0,0.0,0.0,0.0,0.0,0.0,0.0,0.0,0.0,-1.7106,-1.7991,-2.069,-2.2097,-2.2844,-2.355,-2.4863,-2.6243,-2.7192,-2.7508,-2.7632,-2.7867,-2.6477,-2.4567,-2.2833,0.0,0.0,0.0,0.0,-1.7254,-1.7743,0.0,0.0,0.0,0.0,0.0,0.0,0.0,0.0,0.0,0.0,0.0,0.0,0.0,0.0,-3.781,-3.8068,-3.835,-3.8559,-3.8658,-3.8707,-3.8707,-3.8707,-3.8707,-3.8707,-3.8707,-3.8707,-3.8707,-3.8707,-3.8707,-3.8707,-3.8707,-3.8707,-3.8707,-3.8707,-3.8707,-3.8707,-3.8707,-3.8707,-3.8707,-3.8707,-3.8707,-3.8707,-3.8707,-3.8707,-3.8707,0.0,0.0,0.0,0.0,0.0,0.0,0.0,-0.58,-0.6059,-0.6411,-0.6561,-0.6798,-0.7237,-0.7407,-0.7499,0.0,0.0,0.0,0.0,0.0,0.0,0.0,0.0,0.0,0.0,0.0,0.0,0.0,0.0,0.0,0.0,0.0,0.0,0.0,0.0,0.0,0.0,0.0,0.0,0.0,0.0,0.0,0.0,0.0,0.0,0.0,0.0,0.0,0.0,0.0,-1.5771,-1.6671,-1.955,-2.1183,-2.2195,-2.3057,-2.4312,-2.5555,-2.6397,-2.6808,-2.7015,-2.7166,-2.5607,-2.3665,-2.2189,-1.9973,0.0,0.0,-1.6276,-1.5966,-1.6657,0.0,0.0,0.0,0.0,0.0,0.0,0.0,0.0,0.0,0.0,0.0,0.0,0.0,0.0,-3.7504,-3.7862,-3.8201,-3.8528,-3.8658,-3.8707,-3.8707,-3.8707,-3.8707,-3.8707,-3.8707,-3.8707,-3.8707,-3.8707,-3.8707,-3.8707,-3.8707,-3.8707,-3.8707,-3.8707,-3.8707,-3.8707,-3.8707,-3.8707,-3.8707,-3.8707,-3.8707,-3.8707,-3.8707,-3.8707,-3.8707,0.0,0.0,0.0,0.0,0.0,0.0,0.0,-0.5242,-0.5515,-0.5918,-0.6088,-0.6271,-0.6561,-0.6914,-0.7171,0.0,0.0,0.0,0.0,0.0,0.0,0.0,0.0,0.0,0.0,0.0,0.0,0.0,0.0,0.0,0.0,0.0,0.0,0.0,0.0,0.0,0.0,0.0,0.0,0.0,0.0,0.0,0.0,0.0,0.0,0.0,0.0,0.0,0.0,0.0,0.0,-1.5404,-1.6862,-1.8488,-2.0265,-2.2204,0.0,0.0,-2.517,-2.6004,-2.6473,-2.5851,-2.4605,-2.3032,-2.0949,0.0,0.0,-1.5397,-1.4998,-1.4956,-1.5098,-1.6384,0.0,0.0,0.0,0.0,0.0,0.0,0.0,0.0,0.0,0.0,0.0,0.0,0.0,-3.6939,-3.7632,-3.8204,-3.8658,-3.8707,-3.8707,-3.8707,-3.8707,-3.8707,-3.8707,-3.8707,-3.8707,-3.8707,-3.8707,-3.8707,-3.8707,-3.8707,-3.8707,-3.8707,-3.8707,-3.8707,-3.8707,-3.8707,-3.8707,-3.8707,-3.8707,-3.8707,-3.8707,-3.8707,-3.8707,-3.8707,0.0,0.0,0.0,0.0,0.0,0.0,-0.4535,-0.4785,-0.5069,-0.5442,-0.5593,-0.5786,-0.6058,-0.6289,-0.6566,-0.6868,0.0,0.0,0.0,0.0,0.0,0.0,0.0,0.0,0.0,0.0,0.0,0.0,0.0,0.0,0.0,0.0,0.0,0.0,0.0,0.0,0.0,0.0,0.0,0.0,0.0,0.0,0.0,0.0,0.0,0.0,0.0,0.0,0.0,0.0,0.0,0.0,-1.4782,-1.5781,0.0,0.0,-2.1591,-2.3033,-2.3921,-2.45,-2.4767,-2.4737,-2.3661,-2.2087,-2.0081,0.0,-1.6547,-1.5176,-1.4851,-1.4824,-1.4878,-1.6118,-1.7408,0.0,0.0,0.0,0.0,0.0,0.0,0.0,0.0,0.0,0.0,0.0,-3.6509,-3.7034,-3.7541,-3.7984,-3.8336,-3.8496,-3.8609,-3.8707,-3.8707,-3.8707,-3.8707,-3.8707,-3.8707,-3.8707,-3.8707,-3.8707,-3.8707,-3.8707,-3.8707,-3.8707,-3.8707,-3.8707,-3.8707,-3.8707,-3.8707,-3.8707,-3.8707,-3.8707,-3.8707,-3.8707,-3.8707,-3.8707,0.0,0.0,0.0,0.0,0.0,-0.382,-0.413,-0.4394,-0.4675,-0.4981,-0.5156,-0.5347,-0.5619,-0.576,-0.5968,-0.6329,-0.6485,0.0,0.0,0.0,0.0,0.0,0.0,0.0,0.0,0.0,0.0,0.0,0.0,0.0,0.0,0.0,0.0,0.0,0.0,0.0,0.0,0.0,0.0,0.0,0.0,0.0,0.0,0.0,0.0,0.0,0.0,0.0,0.0,0.0,0.0,0.0,0.0,0.0,0.0,0.0,-1.9846,-2.1293,-2.2392,-2.2756,-2.2942,-2.3224,-2.242,-2.1054,0.0,0.0,-1.6383,-1.5024,-1.4755,-1.4782,-1.4824,-1.5853,-1.7029,0.0,-1.928,-2.0984,-2.3551,0.0,0.0,0.0,0.0,0.0,0.0,0.0,-3.6402,-3.6995,-3.7356,-3.765,-3.8,-3.8234,-3.8446,-3.8658,-3.8658,-3.8707,-3.8707,-3.8707,-3.8707,-3.8707,-3.8707,-3.8707,-3.8707,-3.8707,-3.8707,-3.8707,-3.8707,-3.8707,-3.8707,-3.8707,-3.8707,-3.8707,-3.8707,-3.8707,-3.8707,-3.8707,-3.8707,-3.8707,0.0,0.0,0.0,0.0,0.0,0.0,-0.3869,-0.4076,-0.4309,-0.4573,-0.4774,-0.501,-0.5272,-0.5358,-0.5472,-0.5603,-0.5968,0.0,0.0,0.0,0.0,0.0,0.0,0.0,0.0,0.0,0.0,0.0,0.0,0.0,0.0,0.0,0.0,0.0,0.0,0.0,0.0,0.0,0.0,0.0,0.0,0.0,-1.031,0.0,0.0,0.0,0.0,0.0,0.0,0.0,0.0,0.0,0.0,0.0,0.0,0.0,-1.8464,-1.9127,-2.0382,-2.0961,-2.1237,-2.1237,-2.0833,-2.0047,0.0,-1.7357,-1.6079,-1.4701,-1.4549,-1.4701,-1.4701,-1.5364,-1.6351,-1.779,-1.8191,0.0,-2.2389,0.0,0.0,0.0,0.0,0.0,0.0,0.0,-3.6174,-3.6591,-3.6913,0.0,-3.7792,-3.8,-3.8234,-3.8491,-3.864,-3.8707,-3.8707,-3.8707,-3.8707,-3.8707,-3.8707,-3.8707,-3.8707,-3.8707,-3.8707,-3.8707,-3.8707,-3.8707,-3.8707,-3.8707,-3.8707,-3.8707,-3.8707,-3.8707,-3.8707,-3.8707,-3.8707,-3.8707,0.0,0.0,0.0,0.0,0.0,0.0,0.0,-0.389,-0.4076,-0.4309,-0.4495,-0.4715,-0.4941,-0.5088,-0.5224,-0.532,-0.5603,0.0,0.0,0.0,0.0,0.0,0.0,0.0,0.0,0.0,0.0,0.0,0.0,0.0,0.0,0.0,0.0,0.0,0.0,0.0,0.0,0.0,0.0,0.0,0.0,-1.0097,-0.9944,0.0,0.0,0.0,0.0,0.0,0.0,0.0,0.0,0.0,0.0,0.0,0.0,0.0,0.0,0.0,-1.817,-1.8963,-1.9387,-1.9084,-1.8912,-1.8404,-1.7031,-1.579,-1.4805,-1.4398,-1.4114,-1.4112,-1.4611,-1.5321,-1.6292,-1.7711,0.0,0.0,0.0,0.0,0.0,0.0,0.0,0.0,0.0,0.0,-3.6019,-3.6385,-3.6615,-3.6935,-3.7429,-3.7792,-3.8104,-3.8415,-3.8465,-3.8528,-3.8559,-3.8559,-3.8609,-3.8707,-3.8707,-3.8707,-3.8707,-3.8707,-3.8707,-3.8707,-3.8707,-3.8707,-3.8707,-3.8707,-3.8707,-3.8707,-3.8707,-3.8707,-3.8707,-3.8707,-3.8707,-3.8707,0.0,0.0,0.0,0.0,0.0,0.0,0.0,-0.3744,-0.389,-0.4063,-0.4273,-0.4495,-0.4713,-0.4902,-0.503,-0.5078,-0.5243,0.0,0.0,0.0,0.0,0.0,0.0,0.0,0.0,0.0,0.0,0.0,0.0,0.0,0.0,0.0,0.0,0.0,0.0,0.0,0.0,0.0,0.0,0.0,-0.8884,-0.9206,-0.92,0.0,0.0,0.0,0.0,0.0,0.0,0.0,0.0,0.0,0.0,0.0,0.0,0.0,-1.2467,-1.4122,0.0,-1.6964,-1.7576,-1.7317,-1.7305,-1.7064,-1.5722,-1.4892,-1.4269,-1.3898,-1.3874,-1.405,-1.4572,-1.5473,-1.6518,-1.7629,-1.8346,0.0,0.0,0.0,0.0,0.0,0.0,0.0,0.0,-3.5711,-3.5844,-3.6174,-3.6426,-3.6753,-3.7203,-3.7594,-3.7951,-3.8252,-3.835,-3.8446,-3.851,-3.851,-3.8559,-3.8707,-3.8707,-3.8707,-3.8707,-3.8707,-3.8707,-3.8707,-3.8707,-3.8707,0.0,-3.8707,-3.8707,-3.8707,-3.8707,-3.8707,-3.8707,-3.8707,-3.8707,-3.8707,0.0,0.0,0.0,0.0,0.0,0.0,0.0,-0.3661,-0.3751,-0.389,-0.413,-0.4374,-0.4564,-0.4774,-0.4893,-0.4893,0.0,0.0,0.0,0.0,0.0,0.0,0.0,0.0,0.0,0.0,0.0,-0.7059,-0.7582,-0.8275,-0.9072,0.0,0.0,0.0,0.0,0.0,0.0,0.0,0.0,0.0,-0.7711,-0.7935,0.0,0.0,0.0,0.0,0.0,0.0,0.0,0.0,0.0,0.0,0.0,0.0,0.0,0.0,0.0,0.0,0.0,-1.4879,-1.5707,-1.5816,-1.6022,-1.5889,-1.4685,-1.445,0.0,-1.3249,-1.3711,-1.4394,-1.4635,-1.5772,-1.6936,-1.761,0.0,0.0,0.0,0.0,0.0,0.0,0.0,0.0,-3.5509,-3.5622,-3.5711,-3.5975,-3.6318,-3.669,-3.7069,-3.7429,-3.7721,-3.7984,-3.8252,-3.8415,-3.8491,-3.8491,-3.8559,-3.8707,-3.8707,-3.8707,-3.8707,-3.8707,-3.8707,-3.8707,-3.8707,-3.8707,-3.8707,-3.8707,-3.8707,-3.8707,-3.8707,-3.8707,-3.8707,-3.8707,-3.8707,-3.8707,0.0,0.0,0.0,0.0,0.0,0.0,0.0,0.0,0.0,0.0,-0.4097,-0.4301,-0.4495,-0.4704,-0.4823,0.0,0.0,0.0,0.0,0.0,0.0,0.0,0.0,0.0,0.0,0.0,0.0,-0.6729,-0.7103,-0.7814,-0.8785,-0.8428,0.0,0.0,0.0,0.0,0.0,0.0,0.0,0.0,-0.7271,-0.7427,0.0,0.0,0.0,0.0,-0.713,-0.7333,0.0,0.0,0.0,0.0,0.0,0.0,0.0,0.0,-0.9043,-0.9649,-1.0522,0.0,-1.3452,-1.4036,-1.4303,-1.4233,0.0,-1.3108,-1.2973,0.0,0.0,-1.3863,-1.508,-1.6099,-1.7029,0.0,0.0,0.0,0.0,0.0,0.0,0.0,0.0,0.0,-3.5509,-3.5667,-3.5817,-3.5975,-3.6318,-3.665,-3.7009,-3.7392,-3.7721,-3.7984,-3.8204,-3.8354,-3.8415,-3.8415,-3.8496,-3.8707,-3.8707,-3.8707,-3.8707,-3.8707,-3.8707,-3.8707,-3.8707,-3.8707,-3.8707,-3.8707,-3.8707,-3.8707,-3.8707,-3.8707,-3.8707,-3.8707,-3.8707,-3.8707,0.0,0.0,0.0,0.0,0.0,0.0,0.0,0.0,0.0,0.0,0.0,0.0,0.0,0.0,0.0,0.0,0.0,0.0,0.0,0.0,0.0,0.0,0.0,0.0,0.0,0.0,0.0,0.0,0.0,-0.7751,0.0,0.0,0.0,0.0,0.0,0.0,0.0,0.0,0.0,-0.6414,-0.6414,0.0,0.0,0.0,0.0,0.0,-0.6382,-0.6608,0.0,-0.7194,-0.7525,-0.7824,0.0,0.0,0.0,0.0,-0.8458,-0.8991,-0.9708,-1.1062,-1.2357,-1.2842,-1.3301,-1.3519,-1.3011,0.0,0.0,0.0,0.0,0.0,-1.5301,0.0,0.0,0.0,0.0,0.0,0.0,0.0,0.0,0.0,0.0,-3.465,0.0,-3.5728,-3.5861,-3.5975,-3.6318,-3.6667,-3.6987,-3.7317,-3.7685,-3.7984,-3.8138,-3.8285,-3.8446,-3.8446,-3.8528,-3.8707,-3.8707,-3.8707,-3.8707,-3.8707,-3.8707,-3.8707,-3.8707,-3.8707,-3.8707,-3.8707,-3.8707,-3.8707,-3.8707,-3.8707,-3.8707,-3.8707,-3.8707,-3.8707,0.0,0.0,0.0,0.0,0.0,0.0,0.0,0.0,0.0,0.0,0.0,0.0,0.0,0.0,0.0,0.0,0.0,0.0,0.0,0.0,0.0,0.0,0.0,0.0,0.0,0.0,0.0,0.0,0.0,0.0,0.0,0.0,-0.7869,0.0,0.0,0.0,0.0,0.0,0.0,-0.5982,-0.5522,0.0,0.0,0.0,0.0,0.0,0.0,0.0,0.0,-0.6756,-0.712,-0.7317,-0.7659,0.0,0.0,0.0,0.0,0.0,-0.9781,-1.0921,-1.1883,-1.237,-1.3019,-1.3432,0.0,0.0,0.0,0.0,0.0,0.0,0.0,0.0,0.0,0.0,0.0,0.0,0.0,0.0,0.0,0.0,0.0,0.0,-3.5188,-3.5372,-3.5521,-3.5634,-3.5973,-3.6319,-3.658,-3.6993,-3.7417,-3.7803,-3.8013,-3.8252,-3.851,-3.851,-3.8559,-3.8707,-3.8707,-3.8707,-3.8707,-3.8707,-3.8707,-3.8707,-3.8707,-3.8707,-3.8707,-3.8707,-3.8707,-3.8707,-3.8707,-3.8707,-3.8707,-3.8707,-3.8707,-3.8707,0.0,0.0,0.0,0.0,0.0,0.0,0.0,0.0,0.0,0.0,0.0,0.0,0.0,0.0,0.0,0.0,0.0,0.0,0.0,0.0,0.0,0.0,0.0,0.0,0.0,0.0,0.0,0.0,0.0,0.0,-0.7652,-0.7181,-0.6729,0.0,0.0,0.0,0.0,0.0,0.0,-0.5264,-0.5117,0.0,0.0,0.0,0.0,0.0,0.0,0.0,0.0,-0.5982,-0.6499,-0.7136,-0.7195,0.0,0.0,0.0,0.0,0.0,-0.9063,-1.0193,-1.1572,-1.3363,-1.3705,-1.3622,0.0,0.0,0.0,0.0,0.0,0.0,0.0,0.0,0.0,0.0,0.0,0.0,0.0,0.0,0.0,0.0,0.0,-3.3386,-3.3702,-3.3896,-3.4021,-3.4062,-3.4483,-3.4774,-3.4891,-3.5897,-3.6595,-3.689,-3.7794,-3.8336,-3.851,-3.851,-3.8559,-3.8707,-3.8707,-3.8707,-3.8707,-3.8707,-3.8707,-3.8707,-3.8707,-3.8707,-3.8707,-3.8707,-3.8707,-3.8707,-3.8707,-3.8707,-3.8707,-3.8707,-3.8707,-3.8707,0.0,0.0,0.0,0.0,0.0,0.0,0.0,0.0,0.0,0.0,0.0,0.0,0.0,0.0,0.0,0.0,0.0,0.0,0.0,0.0,0.0,0.0,0.0,0.0,0.0,0.0,0.0,0.0,0.0,-0.6868,-0.7042,-0.6653,-0.6164,-0.5566,0.0,0.0,0.0,0.0,0.0,-0.4872,0.0,0.0,0.0,0.0,0.0,0.0,0.0,0.0,0.0,0.0,-0.6103,-0.6658,-0.6968,0.0,0.0,0.0,0.0,0.0,-0.9307,-1.0304,-1.1668,-1.4131,-1.4472,-1.438,0.0,0.0,0.0,0.0,0.0,0.0,0.0,0.0,0.0,0.0,0.0,0.0,0.0,0.0,0.0,0.0,0.0,-3.2799,-3.3372,-3.3573,-3.3656,-3.3656,-3.4019,-3.4254,-3.4318,-3.508,-3.5599,-3.5876,-3.6504,-3.693,-3.7088,-3.718,-3.7699,-3.8707,-3.8707,-3.8707,-3.8707,-3.8707,-3.8707,-3.8707,-3.8707,-3.8707,-3.8707,-3.8707,-3.8707,-3.8707,-3.8707,-3.8707,-3.8707,-3.8707,-3.8707,-3.8707,0.0,0.0,0.0,0.0,0.0,0.0,0.0,0.0,0.0,0.0,0.0,0.0,0.0,0.0,0.0,0.0,0.0,0.0,0.0,0.0,0.0,0.0,0.0,0.0,0.0,0.0,-0.5665,-0.5858,-0.6249,-0.6442,-0.6392,-0.6199,-0.58,0.0,0.0,0.0,0.0,0.0,-0.4581,-0.4581,0.0,0.0,0.0,0.0,0.0,0.0,0.0,0.0,0.0,0.0,0.0,0.0,0.0,0.0,0.0,-0.7656,-0.787,-0.8304,-0.953,-1.0416,-1.168,-1.4415,0.0,0.0,0.0,0.0,0.0,0.0,0.0,0.0,0.0,0.0,0.0,0.0,0.0,0.0,0.0,-3.0339,-3.1153,-3.1789,-3.184,-3.2117,-3.2831,-3.2964,-3.3063,-3.3063,-3.3345,-3.3524,-3.3588,-3.4139,-3.4517,-3.4763,-3.5247,-3.557,-3.5779,-3.5933,-3.6705,-3.809,-3.8138,-3.8138,-3.8138,-3.8138,-3.8138,-3.8138,-3.8138,-3.8138,-3.8138,-3.8138,-3.8138,-3.8138,-3.8138,-3.8138,-3.8138,-3.8138,-3.8138,-3.8138,0.0,0.0,0.0,0.0,0.0,0.0,0.0,0.0,0.0,0.0,0.0,0.0,0.0,0.0,0.0,0.0,0.0,0.0,0.0,0.0,0.0,0.0,0.0,0.0,0.0,-0.5066,-0.5422,-0.599,-0.5828,-0.5779,-0.5773,-0.5862,-0.5568,-0.4936,0.0,0.0,0.0,0.0,0.0,-0.4248,-0.4293,0.0,0.0,0.0,0.0,0.0,0.0,0.0,0.0,0.0,0.0,0.0,0.0,0.0,-0.7143,-0.7645,-0.785,-0.8115,-0.9101,-1.0072,-1.1391,-1.3858,0.0,0.0,0.0,0.0,0.0,0.0,0.0,0.0,0.0,0.0,0.0,0.0,0.0,0.0,-2.966,0.0,-3.0929,-3.1043,-3.1099,-3.1156,-3.1343,-3.1443,-3.1465,-3.1465,-3.1658,-3.1788,-3.1788,-3.278,-3.3384,-3.3528,-3.457,-3.5238,-3.5424,-3.5702,-3.5975,-3.6278,-3.6421,-3.6468,-3.6468,-3.6468,-3.6468,-3.6468,-3.6468,-3.6468,-3.6468,-3.6468,-3.6468,-3.6468,-3.6468,-3.6468,-3.6468,-3.6468,-3.6468,-3.6468,0.0,0.0,0.0,0.0,0.0,0.0,0.0,0.0,0.0,0.0,0.0,0.0,0.0,0.0,0.0,0.0,0.0,0.0,0.0,0.0,0.0,0.0,0.0,-0.4284,-0.452,-0.4915,-0.5266,-0.5643,-0.5512,-0.5449,-0.5437,-0.5164,0.0,0.0,0.0,0.0,0.0,0.0,0.0,-0.4014,-0.4076,-0.4179,0.0,0.0,0.0,0.0,0.0,0.0,0.0,0.0,-0.4731,-0.519,-0.5566,-0.6232,-0.6948,-0.733,-0.7726,-0.839,-0.9752,-1.0618,-1.1751,-1.4482,0.0,0.0,0.0,0.0,0.0,0.0,0.0,0.0,0.0,0.0,0.0,0.0,0.0,0.0,-3.0365,-3.0864,-3.1112,-3.1112,-3.1112,-3.1151,-3.119,-3.1213,-3.1252,-3.1252,-3.1351,-3.1411,-3.1411,-3.1912,-3.2271,-3.2399,-3.2967,-3.3405,-3.361,-3.3888,-3.414,-3.4304,-3.5579,-3.619,-3.619,-3.6256,-3.6303,-3.6303,-3.6303,-3.6303,-3.6303,-3.6303,-3.6303,-3.6303,-3.6303,-3.6303,-3.6303,-3.6303,-3.6303,-3.6303,0.0,0.0,0.0,0.0,0.0,0.0,0.0,0.0,0.0,0.0,0.0,0.0,0.0,0.0,0.0,0.0,0.0,0.0,0.0,0.0,0.0,0.0,0.0,-0.4061,-0.4172,-0.4531,-0.4903,-0.5258,-0.5236,-0.5165,-0.5067,0.0,0.0,0.0,0.0,0.0,0.0,0.0,0.0,0.0,-0.3877,-0.396,0.0,0.0,0.0,0.0,0.0,0.0,0.0,0.0,-0.438,-0.4744,-0.5116,-0.5757,-0.6463,-0.7045,-0.7613,-0.8382,-1.0015,-1.0876,-1.2002,0.0,0.0,0.0,0.0,0.0,0.0,0.0,0.0,0.0,0.0,0.0,0.0,0.0,0.0,-2.9164,-3.0813,-3.1151,-3.119,-3.119,-3.119,-3.119,-3.119,-3.119,-3.119,-3.119,-3.1252,-3.1274,-3.1274,-3.1428,-3.1542,-3.1634,-3.1858,-3.2126,-3.2318,-3.2621,-3.288,-3.3117,-3.4504,-3.5239,-3.5345,-3.5467,-3.5514,-3.5514,-3.5514,-3.5514,-3.5514,-3.5514,-3.5514,-3.5514,-3.5514,-3.5514,-3.5514,-3.5514,-3.5514,-3.5514,0.0,0.0,0.0,0.0,0.0,0.0,0.0,0.0,0.0,0.0,0.0,0.0,0.0,0.0,0.0,0.0,0.0,0.0,0.0,0.0,0.0,0.0,0.0,-0.3961,-0.389,-0.3903,-0.4258,-0.4969,-0.5004,-0.4841,-0.4584,-0.4445,0.0,0.0,0.0,0.0,0.0,0.0,0.0,0.0,-0.3661,-0.3786,-0.389,0.0,0.0,0.0,0.0,0.0,0.0,0.0,-0.4084,-0.4304,-0.4901,-0.5223,-0.5643,-0.6935,-0.7457,-0.7999,-0.9728,-1.079,0.0,0.0,0.0,0.0,0.0,0.0,0.0,0.0,0.0,0.0,0.0,0.0,0.0,-2.8092,-2.8586,-2.9273,-3.0948,-3.119,-3.119,-3.119,-3.119,-3.119,-3.119,-3.119,-3.119,-3.119,-3.119,-3.119,-3.119,-3.1274,-3.1295,-3.1295,-3.1504,-3.1674,-3.1894,-3.2179,-3.2488,-3.2916,-3.3099,-3.3368,-3.3698,-3.378,-3.3807,-3.3807,-3.3807,-3.3807,-3.3807,-3.3807,-3.3807,-3.3807,-3.3807,-3.3807,-3.3807,-3.3807,-3.3807,-3.3807,0.0,0.0,0.0,0.0,0.0,0.0,0.0,0.0,0.0,0.0,0.0,0.0,0.0,0.0,0.0,0.0,0.0,0.0,0.0,0.0,0.0,0.0,0.0,0.0,0.0,0.0,-0.3584,-0.3791,-0.4083,-0.4135,0.0,0.0,0.0,-0.4323,0.0,0.0,0.0,0.0,0.0,0.0,0.0,-0.3654,-0.3696,0.0,0.0,0.0,0.0,0.0,0.0,0.0,0.0,0.0,-0.4311,-0.4794,-0.5475,-0.6547,-0.7623,-0.886,-1.0743,-1.2255,0.0,0.0,0.0,0.0,0.0,0.0,0.0,0.0,0.0,0.0,0.0,0.0,0.0,-2.8315,-2.8699,-2.9332,-3.0987,-3.119,-3.119,-3.119,-3.119,-3.119,-3.119,-3.119,-3.119,-3.119,-3.119,-3.119,-3.119,-3.123,-3.1213,-3.1213,-3.1351,-3.1504,-3.1691,-3.1984,-3.2335,-3.2705,-3.2943,-3.322,-3.3549,-3.3633,-3.3671,-3.3726,-3.3726,-3.3753,-3.3807,-3.3807,-3.3807,-3.3807,-3.3807,-3.3807,-3.3807,-3.3807,-3.3807,-3.3807,0.0,0.0,0.0,0.0,0.0,0.0,0.0,0.0,0.0,0.0,0.0,0.0,0.0,0.0,0.0,0.0,0.0,0.0,0.0,0.0,0.0,0.0,0.0,0.0,0.0,-0.3148,-0.299,0.0,0.0,0.0,0.0,0.0,0.0,-0.4224,0.0,-0.3944,0.0,0.0,0.0,0.0,-0.3541,-0.3556,-0.3556,0.0,0.0,0.0,0.0,0.0,0.0,0.0,0.0,0.0,-0.4014,-0.4538,-0.528,-0.634,-0.7678,-0.923,-1.1228,0.0,0.0,0.0,0.0,0.0,0.0,0.0,0.0,0.0,0.0,0.0,0.0,0.0,0.0,-2.8005,-2.83,-2.8831,-3.0142,-3.0311,-3.0311,-3.0311,-3.0311,-3.0311,-3.0311,-3.0311,-3.0311,-3.0311,-3.0311,-3.0311,-3.0311,-3.0311,-3.0446,-3.0751,-3.0811,-3.1006,-3.1504,-3.1765,-3.2091,-3.2454,-3.2705,-3.2961,-3.3316,-3.3491,-3.3605,-3.3671,-3.3726,-3.378,-3.3807,-3.3807,-3.3807,-3.3807,-3.3807,-3.3807,-3.3807,-3.3807,-3.3807,-3.3807,0.0,0.0,-0.0427,-0.0825,0.0,0.0,0.0,0.0,0.0,0.0,0.0,-0.2311,0.0,0.0,0.0,-0.2886,0.0,0.0,0.0,0.0,0.0,0.0,0.0,0.0,0.0,0.0,0.0,0.0,0.0,0.0,0.0,0.0,-0.3909,-0.4136,0.0,-0.3949,0.0,0.0,0.0,0.0,-0.3506,-0.3506,-0.3506,-0.3506,0.0,0.0,0.0,0.0,0.0,0.0,0.0,0.0,-0.3926,-0.4372,-0.5069,-0.6246,-0.7642,-0.929,0.0,0.0,0.0,0.0,0.0,0.0,0.0,0.0,0.0,0.0,0.0,0.0,0.0,0.0,-2.6366,-2.7439,-2.7664,-2.7988,-2.8873,-2.9011,-2.9011,-2.9011,-2.9011,-2.9011,-2.9011,-2.9011,-2.9011,-2.9011,-2.9011,-2.9011,-2.9011,-2.9011,-2.9296,-2.9989,-3.0006,-3.0349,-3.1091,-3.1298,-3.1595,-3.1969,-3.2247,-3.2517,-3.289,-3.328,-3.352,-3.3605,-3.3726,-3.378,-3.378,-3.378,-3.378,-3.378,-3.3807,-3.3807,-3.3807,-3.3807,-3.3807,-3.3807,0.0,0.0,-0.0427,-0.0825,0.0,0.0,0.0,0.0,0.0,-0.1986,-0.2132,-0.2241,-0.2311,-0.2546,0.0,-0.2816,-0.308,0.0,0.0,0.0,0.0,0.0,0.0,0.0,0.0,0.0,0.0,0.0,0.0,0.0,0.0,0.0,0.0,-0.4423,0.0,-0.4434,0.0,0.0,0.0,-0.3506,-0.3506,-0.3506,-0.3506,-0.3506,-0.3506,0.0,0.0,0.0,0.0,0.0,0.0,0.0,-0.38,-0.4075,-0.4624,-0.6041,-0.7708,-0.9646,0.0,0.0,0.0,0.0,0.0,0.0,0.0,0.0,0.0,0.0,0.0,0.0,0.0,-2.6118,-2.6528,-2.753,-2.7719,-2.806,-2.8873,-2.9011,-2.9011,-2.9011,-2.9011,-2.9011,-2.9011,-2.9011,-2.9011,-2.9011,-2.9011,-2.9011,-2.9011,-2.9011,-2.9059,-2.9211,-2.9228,-2.9353,-2.9581,-2.9723,-2.9954,-3.0264,-3.094,-3.1423,-3.1788,-3.2755,-3.3316,-3.352,-3.3671,-3.3671,-3.3577,-3.3633,-3.3587,-3.3577,-3.3671,-3.3726,-3.3726,-3.378,-3.3807,-3.3807,0.0,0.0,0.0,0.0,0.0,0.0,0.0,0.0,-0.1916,-0.1986,-0.2096,-0.218,-0.2285,-0.2507,0.0,0.0,-0.3009,-0.3187,0.0,0.0,0.0,0.0,0.0,0.0,0.0,0.0,0.0,0.0,0.0,0.0,0.0,0.0,0.0,-0.4399,0.0,-0.4564,0.0,0.0,0.0,-0.3506,-0.3506,-0.3506,-0.3506,-0.3506,-0.3506,-0.3506,-0.3506,0.0,0.0,0.0,0.0,0.0,0.0,0.0,-0.4606,-0.5694,-0.7386,-0.9345,0.0,0.0,0.0,0.0,0.0,0.0,0.0,0.0,0.0,0.0,0.0,0.0,0.0,-2.599,-2.6322,-2.6918,-2.7126,-2.7366,-2.7841,-2.7892,-2.7892,-2.7892,-2.7892,-2.7892,-2.7892,-2.7892,-2.7892,-2.7892,-2.7892,-2.7892,-2.7892,-2.7892,-2.8044,-2.8416,-2.8433,-2.8638,-2.9066,-2.9138,-2.9315,-2.9558,-3.0006,-3.0434,-3.0896,-3.2362,-3.3196,-3.3411,-3.3444,-3.3426,-3.3357,-3.3386,-3.3433,-3.3481,-3.3605,-3.3671,-3.3698,-3.378,-3.3807,-3.3807,0.0,0.0,0.0,0.0,0.0,0.0,0.0,0.0,0.0,-0.1964,-0.2034,-0.2118,-0.2245,-0.2451,-0.2626,0.0,0.0,0.0,-0.3117,0.0,0.0,0.0,0.0,0.0,0.0,0.0,0.0,0.0,0.0,0.0,0.0,0.0,0.0,-0.4489,0.0,0.0,0.0,0.0,-0.3841,-0.3506,-0.3506,-0.352,-0.352,-0.3527,-0.3527,-0.352,-0.352,-0.3506,-0.3506,-0.3506,0.0,0.0,0.0,0.0,-0.4615,-0.5303,-0.6884,-0.875,0.0,0.0,0.0,0.0,0.0,0.0,0.0,0.0,0.0,0.0,0.0,0.0,-2.5524,-2.5749,-2.5954,-2.6189,-2.6417,-2.6555,-2.6624,-2.6657,-2.6674,-2.6674,-2.6691,-2.6691,-2.6691,-2.6691,-2.6691,-2.6691,-2.6691,-2.6691,-2.6691,-2.6691,-2.6979,-2.757,-2.7621,-2.7943,-2.8621,-2.8659,-2.8765,-2.8956,-2.9197,-2.957,-3.0117,-3.1724,-3.2639,-3.3003,-3.3075,-3.3129,-3.3068,-3.3081,-3.3178,-3.3286,-3.3444,-3.3559,-3.3643,-3.3698,-3.3726,-3.3753,0.0,0.0,0.0,0.0,0.0,0.0,0.0,0.0,0.0,0.0,-0.1964,-0.2034,-0.2122,-0.2315,-0.249,-0.2609,-0.2751,-0.281,0.0,0.0,0.0,0.0,0.0,0.0,0.0,0.0,0.0,0.0,0.0,0.0,0.0,0.0,0.0,0.0,0.0,0.0,0.0,0.0,0.0,-0.3506,-0.3556,-0.3591,-0.3591,-0.364,-0.364,-0.3591,-0.3591,-0.3556,-0.3506,-0.3506,-0.3506,0.0,0.0,0.0,0.0,-0.4927,-0.6348,0.0,0.0,0.0,0.0,0.0,0.0,0.0,0.0,0.0,0.0,0.0,0.0,0.0,-2.5378,-2.5605,-2.5791,-2.5917,-2.617,-2.633,-2.6365,-2.6486,-2.6606,-2.6606,-2.664,-2.6691,-2.6691,-2.6691,-2.6691,-2.6691,-2.6691,-2.6691,-2.6691,-2.6691,-2.6742,-2.6843,-2.6843,-2.6894,-2.6996,-2.703,-2.708,-2.7248,-2.8082,-2.8868,-2.9607,-2.9967,-3.0768,-3.1858,-3.2559,-3.2766,-3.259,-3.2719,-3.2766,-3.2798,-3.3068,-3.3226,-3.3352,-3.3422,-3.3509,-3.3549,0.0,0.0,0.0,0.0,0.0,0.0,0.0,0.0,0.0,0.0,0.0,-0.1986,-0.2078,-0.2202,-0.2355,-0.2538,-0.2626,0.0,0.0,0.0,0.0,0.0,0.0,0.0,0.0,0.0,0.0,0.0,0.0,0.0,0.0,-0.4132,-0.4795,0.0,0.0,0.0,0.0,0.0,0.0,-0.3777,-0.3896,-0.3963,-0.4022,0.0,-0.4342,-0.4297,-0.4065,-0.3978,-0.3913,-0.3638,-0.3556,-0.3556,-0.3591,0.0,0.0,0.0,0.0,0.0,0.0,0.0,0.0,0.0,0.0,0.0,0.0,0.0,0.0,0.0,0.0,-2.3694,-2.4768,-2.5091,-2.5285,-2.5567,-2.5791,-2.5974,-2.6118,-2.6277,-2.6382,-2.6417,-2.6555,-2.6657,-2.6657,-2.6674,-2.6691,-2.6691,-2.6691,-2.6691,-2.6691,-2.6691,-2.6691,-2.6691,-2.6691,-2.6691,-2.6691,-2.6691,-2.6775,-2.6893,-2.7398,-2.7805,-2.8147,-2.8727,-2.9565,-3.061,-3.0926,-3.1019,-3.1005,-3.1493,-3.1784,-3.1969,-3.2638,-3.2993,-3.3135,-3.3196,-3.3256,-3.3268,0.0,0.0,0.0,0.0,0.0,0.0,0.0,0.0,0.0,0.0,0.0,-0.1894,-0.2008,0.0,0.0,0.0,-0.2456,0.0,0.0,0.0,0.0,0.0,0.0,0.0,0.0,0.0,0.0,0.0,0.0,0.0,-0.3501,-0.4267,-0.4909,0.0,-0.5486,0.0,0.0,0.0,0.0,-0.4159,-0.4396,-0.4573,-0.4701,-0.517,-0.5335,-0.5262,0.0,0.0,0.0,0.0,-0.375,-0.3715,0.0,0.0,0.0,0.0,0.0,0.0,0.0,0.0,0.0,0.0,0.0,0.0,0.0,0.0,0.0,0.0,0.0,-2.2252,-2.3634,-2.42,-2.4563,-2.4875,-2.5211,-2.5476,-2.5701,-2.5901,-2.6082,-2.6137,-2.6347,-2.6503,-2.6537,-2.6623,-2.6674,-2.6674,-2.6691,-2.6691,-2.6691,-2.6691,-2.6691,-2.6691,-2.6691,-2.6691,-2.6691,-2.6691,-2.6742,-2.6842,-2.694,-2.6989,-2.7006,-2.7669,-2.8368,-2.9036,-2.9451,-2.9642,-2.9728,-3.0265,-3.0783,-3.123,-3.1958,-3.2426,-3.2734,-3.2798,-3.2848,-3.2912,0.0,0.0,0.0,0.0,0.0,0.0,0.0,0.0,0.0,0.0,0.0,-0.1736,-0.1803,-0.1938,-0.203,-0.2122,-0.2122,0.0,0.0,0.0,0.0,0.0,0.0,0.0,0.0,0.0,0.0,0.0,0.0,0.0,-0.3238,-0.3859,-0.4722,-0.5767,-0.5769,-0.5744,-0.5651,0.0,0.0,0.0,-0.5101,-0.5444,-0.5692,-0.6277,-0.6455,-0.6353,0.0,0.0,0.0,0.0,0.0,0.0,0.0,-0.3563,-0.3654,0.0,0.0,0.0,0.0,0.0,0.0,0.0,0.0,0.0,0.0,0.0,0.0,0.0,-2.1304,-2.152,-2.1819,-2.2769,-2.3569,-2.3608,-2.4335,-2.4942,-2.4942,-2.5362,-2.568,-2.5738,-2.601,-2.6241,-2.6295,-2.6486,-2.6606,-2.6606,-2.664,-2.6691,-2.6691,-2.6691,-2.6691,-2.6691,-2.6691,-2.6691,-2.6691,-2.6691,-2.6691,-2.6691,-2.6725,-2.6725,-2.6725,-2.6759,-2.6809,-2.6962,-2.8665,-2.9385,-2.935,-2.9437,-2.9954,-3.075,-3.0855,-3.1359,-3.2039,-3.2074,-3.2197,-3.2352,0.0,0.0,0.0,0.0,0.0,0.0,0.0,0.0,0.0,0.0,0.0,0.0,0.0,-0.1872,-0.1964,-0.203,-0.1986,0.0,0.0,0.0,0.0,0.0,0.0,0.0,0.0,0.0,0.0,0.0,0.0,-0.2542,-0.322,-0.3829,-0.4618,-0.5527,-0.5529,-0.5734,-0.5981,-0.5133,0.0,0.0,-0.5651,-0.6285,0.0,-0.768,-0.8131,-0.8388,0.0,0.0,0.0,0.0,0.0,0.0,-0.4086,-0.3864,-0.3703,-0.3848,0.0,0.0,0.0,0.0,0.0,0.0,0.0,0.0,0.0,0.0,0.0,0.0,-1.9666,-1.9929,-2.0182,-2.1431,-2.2485,-2.2632,-2.2933,-2.3188,-2.3327,-2.3986,-2.4461,-2.4559,-2.5313,-2.5864,-2.5921,-2.6154,-2.6347,-2.64,-2.6555,-2.6623,-2.6623,-2.6674,-2.6691,-2.6691,-2.6691,-2.6691,-2.6691,-2.6691,-2.6691,-2.6691,-2.6691,-2.6691,-2.6691,-2.6691,-2.6691,-2.6725,-2.7403,-2.7692,-2.7794,-2.8288,-2.875,-2.9265,-3.023,-3.0835,-3.1218,-3.1702,-3.1912,-3.2001,0.0,0.0,0.0,0.0247,0.0,-0.0382,-0.0562,-0.0828,-0.105,-0.1185,0.0,0.0,0.0,0.0,-0.1894,-0.1938,-0.1894,0.0,0.0,0.0,0.0,0.0,0.0,0.0,0.0,0.0,0.0,0.0,0.0,0.0,0.0,0.0,-0.4182,-0.5039,-0.5067,-0.5435,0.0,0.0,0.0,-0.5916,0.0,0.0,-0.8425,0.0,-0.982,-1.0221,0.0,0.0,0.0,0.0,0.0,0.0,-0.4784,-0.4314,-0.3865,-0.3815,0.0,0.0,0.0,0.0,0.0,0.0,0.0,0.0,0.0,0.0,0.0,0.0,-1.8166,-1.8579,-1.9058,-2.0144,-2.112,-2.1606,-2.1896,-2.211,-2.2232,-2.2863,-2.3295,-2.334,-2.4127,-2.4692,-2.4749,-2.5092,-2.532,-2.5374,-2.5562,-2.5715,-2.5749,-2.5832,-2.5898,-2.5931,-2.6201,-2.6336,-2.6336,-2.6573,-2.6691,-2.6691,-2.6691,-2.6691,-2.6691,-2.6691,-2.6691,-2.6691,-2.6691,-2.6742,-2.6876,-2.7369,-2.7777,-2.822,-2.9194,-2.9829,-3.0225,-3.0962,-3.1236,-3.1291,0.1321,0.0983,0.0647,0.0449,0.009,-0.0225,-0.036,-0.0626,-0.0847,-0.0983,0.0,0.0,0.0,0.0,0.0,-0.1809,-0.1806,-0.1803,-0.1803,-0.1803,0.0,0.0,0.0,0.0,0.0,0.0,0.0,0.0,0.0,0.0,0.0,0.0,-0.3388,0.0,-0.4416,-0.4921,-0.5624,0.0,-0.5647,-0.6329,0.0,-0.8535,-0.9582,0.0,0.0,0.0,-1.1207,-1.0481,0.0,-0.8531,0.0,0.0,0.0,-0.4911,-0.4125,-0.375,-0.3986,0.0,0.0,0.0,0.0,0.0,0.0,0.0,0.0,0.0,0.0,0.0,-1.6943,-1.7539,-1.8398,-1.8959,-1.9582,-2.0497,-2.1278,-2.1762,-2.1762,-2.2002,-2.221,-2.2262,-2.2577,-2.2828,-2.2869,-2.324,-2.3533,-2.3568,-2.3769,-2.3918,-2.408,-2.4146,-2.4258,-2.4399,-2.5171,-2.5575,-2.5575,-2.6302,-2.6657,-2.6657,-2.6674,-2.6691,-2.6691,-2.6691,-2.6691,-2.6691,-2.6691,-2.6691,-2.6691,-2.6691,-2.7131,-2.7755,-2.7772,-2.8281,-2.9042,-2.9786,-3.0095,-3.0275,0.141,0.1208,0.0962,0.0607,0.0382,0.0135,-0.0135,-0.0359,-0.0584,0.0,0.0,0.0,-0.149,-0.173,-0.1895,-0.1947,-0.1845,-0.1803,-0.1803,-0.1803,-0.1803,-0.1803,-0.1803,-0.1803,0.0,0.0,0.0,0.0,0.0,0.0,0.0,0.0,0.0,0.0,-0.3964,-0.4242,-0.4588,-0.5069,0.0,0.0,-0.7553,-0.8958,0.0,0.0,0.0,0.0,0.0,-1.178,-1.1155,0.0,-0.9004,-0.7628,0.0,0.0,0.0,-0.4318,-0.4359,0.0,-0.5043,0.0,0.0,0.0,0.0,0.0,0.0,0.0,0.0,-1.4609,-1.5874,-1.6987,-1.7547,-1.8242,-1.8879,-1.9333,-1.9863,-2.0221,-2.0221,-2.0843,-2.1258,-2.128,-2.1934,-2.2399,-2.2465,-2.2776,-2.3028,0.0,-2.3414,-2.3635,-2.3652,-2.3902,-2.4114,-2.4258,-2.457,-2.4734,-2.4734,-2.5509,-2.5913,-2.5913,-2.6437,-2.6691,-2.6691,-2.6691,-2.6691,-2.6691,-2.6691,-2.6691,-2.6691,-2.6691,-2.6826,-2.7063,-2.757,-2.796,-2.8247,-2.9008,-2.9333,-2.935,0.1477,0.1343,0.1118,0.0739,0.0553,0.033,0.0024,-0.0219,-0.0421,0.0,0.0,0.0,0.0,-0.1868,-0.2002,-0.199,-0.193,-0.1848,-0.1806,-0.1803,-0.1803,-0.1803,-0.1803,-0.1803,0.0,0.0,0.0,0.0,0.0,0.0,0.0,0.0,0.0,0.0,0.0,-0.3726,-0.3948,-0.4756,0.0,0.0,-0.7801,0.0,0.0,-1.218,-1.3101,0.0,0.0,0.0,-1.223,-1.1543,-1.0193,0.0,0.0,-0.5912,-0.5217,-0.5068,-0.4872,0.0,0.0,0.0,0.0,0.0,0.0,0.0,-0.9576,-1.0694,0.0,0.0,-1.4337,-1.5453,-1.6121,-1.6837,-1.7432,-1.7887,-1.8323,-1.8796,-1.9384,-1.9901,-2.0266,-2.0355,-2.082,-2.1181,-2.1262,-2.1518,-2.1713,-2.1819,-2.2049,-2.2271,-2.2372,-2.2704,-2.293,-2.301,-2.3529,-2.3821,-2.39,-2.4717,-2.5103,-2.5152,-2.5879,-2.6234,-2.6251,-2.6556,-2.6691,-2.6691,-2.6691,-2.6691,-2.6691,-2.6691,-2.6691,-2.6742,-2.7182,-2.7351,-2.7452,-2.8213,-2.8501,-2.8552,0.0,0.141,0.1234,0.0904,0.0696,0.0479,0.0179,-0.0081,-0.0335,0.0,-0.0963,-0.1466,0.0,-0.2103,-0.2121,-0.207,-0.2038,-0.1954,-0.184,-0.1813,-0.1803,-0.1803,-0.1803,-0.1803,-0.1781,0.0,0.0,0.0,0.0,0.0,0.0,0.0,0.0,0.0,-0.3052,-0.3341,-0.3567,-0.44,-0.5314,-0.6401,-0.8036,-0.9696,0.0,0.0,-1.36,-1.4186,-1.401,-1.3558,-1.2975,-1.2457,-1.0988,0.0,0.0,-0.7053,-0.6136,-0.5978,-0.5586,0.0,-0.5928,-0.6206,0.0,0.0,-0.7422,0.0,-0.821,-0.9241,-1.0456,0.0,-1.2572,-1.3528,-1.4409,-1.5044,-1.5604,-1.6257,-1.6738,-1.7533,-1.8962,-1.9213,-1.9302,-1.9501,-1.9596,-1.969,-1.9726,-1.994,-2.0115,-2.0235,-2.0323,-2.0478,-2.0761,-2.1055,-2.1277,-2.1355,-2.2241,-2.2822,-2.3023,-2.3835,-2.4264,-2.4326,-2.5086,-2.5492,-2.5593,-2.6285,-2.6623,-2.6691,-2.6691,-2.6691,-2.6691,-2.6691,-2.6691,-2.6691,-2.6691,-2.6691,-2.6776,-2.7452,-2.7689,-2.7791,0.167,0.1588,0.1465,0.1243,0.1072,0.0847,0.0489,0.0194,-0.0084,-0.0391,-0.1131,0.0,0.0,0.0,-0.2418,-0.255,-0.2218,-0.1998,-0.1967,-0.1848,-0.1803,-0.1803,-0.1803,-0.1781,-0.1714,-0.1714,0.0,0.0,0.0,0.0,0.0,0.0,0.0,0.0,-0.2655,-0.288,-0.3023,-0.4,0.0,-0.6082,-0.8016,0.0,-1.1331,-1.2594,-1.3457,-1.401,-1.3763,-1.3616,-1.334,-1.2556,-1.1353,-1.005,0.0,-0.8188,-0.7075,-0.69,-0.6539,-0.63,-0.6628,-0.6544,-0.6528,-0.7055,-0.73,0.0,-0.787,-0.8701,-0.9546,0.0,-1.1394,-1.2452,-1.307,-1.376,-1.4386,-1.4837,-1.5448,-1.6533,-1.8246,-1.8745,-1.8936,-1.9026,-1.925,-1.9376,-1.9413,-1.9617,-1.9797,-1.9833,-2.003,-2.0239,-2.0478,-2.063,-2.0828,-2.0991,-2.1454,-2.1769,-2.1925,-2.2742,-2.3231,-2.3293,-2.4043,-2.4776,-2.5528,-2.5663,-2.6084,-2.6691,-2.6691,-2.6691,-2.6691,-2.6691,-2.6691,-2.6691,-2.6691,-2.6691,-2.6708,-2.686,-2.6911,-2.6945,0.1714,0.1673,0.1607,0.1417,0.1273,0.1061,0.0756,0.0362,-0.0031,-0.0417,0.0,0.0,0.0,0.0,0.0,0.0,-0.2751,-0.2499,-0.2221,-0.2032,-0.1931,-0.1854,-0.1781,-0.1736,-0.1689,-0.1673,-0.1632,0.0,0.0,0.0,0.0,0.0,0.0,0.0,0.0,-0.2962,-0.3225,0.0,-0.5273,-0.615,-0.7988,0.0,-1.1153,-1.2358,-1.318,-1.3668,-1.3573,-1.343,-1.3266,-1.276,-1.1962,0.0,-1.0643,-0.9615,-0.8531,0.0,-0.7947,-0.7407,-0.7638,-0.7482,-0.7252,-0.7304,0.0,0.0,0.0,-0.7931,-0.8604,-0.9087,-0.9973,-1.0734,-1.1057,-1.1615,-1.2229,-1.2705,-1.3416,-1.4373,-1.589,-1.7209,-1.8159,-1.8486,-1.8693,-1.886,-1.9026,-1.9199,-1.9347,-1.9472,-1.9762,-1.9925,-2.003,-2.0224,-2.0429,-2.063,-2.0893,-2.1135,-2.1404,-2.1871,-2.2159,-2.2266,-2.3056,-2.3716,-2.4243,-2.5012,-2.5614,-2.6051,-2.637,-2.6538,-2.6589,-2.6538,-2.6572,-2.6657,-2.6708,-2.6691,-2.6691,-2.6691,-2.6691,-2.6691,0.1711,0.1692,0.1656,0.1545,0.1377,0.1179,0.0961,0.0494,-0.0035,0.0,0.0,0.0,0.0,0.0,0.0,0.0,0.0,-0.3089,-0.2617,-0.2348,-0.2157,-0.1991,-0.1838,-0.1731,-0.1708,-0.1622,-0.1569,0.0,0.0,0.0,0.0,0.0,0.0,0.0,0.0,0.0,0.0,0.0,0.0,-0.6431,0.0,-0.9461,-1.0876,-1.2139,-1.29,-1.3324,-1.3334,-1.32,-1.3036,-1.2929,-1.2483,-1.192,-1.1687,-1.0822,0.0,0.0,0.0,-0.8386,0.0,-0.8384,-0.7989,-0.7621,0.0,-0.7556,0.0,0.0,0.0,-0.8229,-0.8728,0.0,0.0,0.0,0.0,0.0,0.0,0.0,0.0,-1.4888,0.0,-1.7407,-1.7644,-1.7907,-1.8341,-1.856,-1.8705,-1.8848,-1.922,-1.9424,-1.9474,-1.9829,-2.0115,-2.0308,-2.0478,-2.0712,-2.1038,-2.1119,-2.123,-2.137,-2.2098,-2.2554,-2.2861,-2.4083,-2.4896,-2.5313,-2.5794,-2.6144,-2.638,-2.6277,-2.6347,-2.6537,-2.664,-2.6691,-2.6691,-2.6691,-2.6691,-2.6691,0.1689,0.1655,0.1623,0.1672,0.1559,0.1373,0.1115,0.0663,-0.0038,0.0,0.0,0.0,0.0,0.0,0.0,0.0,0.0,0.0,-0.3199,0.0,-0.26,-0.2346,-0.2052,-0.1858,-0.1781,-0.1602,-0.148,-0.1433,0.0,0.0,0.0,0.0,-0.2192,-0.2536,-0.31,0.0,0.0,0.0,-0.6041,0.0,-0.7952,-0.9291,0.0,-1.2149,-1.2813,-1.3055,-1.3123,-1.3027,-1.2929,0.0,-1.2531,-1.2059,0.0,-1.1287,-1.0401,-1.0228,0.0,0.0,0.0,0.0,0.0,0.0,-0.8115,-0.783,-0.7648,0.0,-0.7777,-0.8008,0.0,0.0,0.0,0.0,0.0,0.0,0.0,0.0,-1.0608,-1.1376,-1.2739,-1.5069,-1.5566,-1.6029,-1.6883,-1.7445,-1.764,-1.7383,-1.7996,-1.8438,-1.8643,-1.934,-1.9833,-2.0025,-2.0235,-2.0392,-2.0478,-2.0561,-2.0695,-2.0893,-2.0972,-2.1519,-2.246,-2.2655,-2.3505,-2.4872,-2.4954,-2.533,-2.597,-2.6026,-2.6134,-2.6277,-2.6537,-2.6657,-2.6691,-2.6691,-2.6691,-2.6691,0.1692,0.1607,0.1579,0.1688,0.1538,0.1319,0.1191,0.0482,-0.0328,0.0,0.0,0.0,0.0,0.0,0.0,0.0,0.0,-0.4654,0.0,0.0,0.0,-0.2784,-0.2442,-0.213,-0.1912,-0.173,-0.157,-0.1457,-0.1547,0.0,0.0,0.0,-0.2247,-0.2706,-0.3306,0.0,-0.4493,0.0,-0.6457,0.0,0.0,0.0,0.0,-1.1593,-1.2407,-1.2978,-1.2978,-1.2929,-1.2881,0.0,-1.2754,0.0,0.0,0.0,0.0,-1.1286,0.0,0.0,0.0,0.0,0.0,0.0,0.0,0.0,-0.7489,-0.7335,-0.7321,0.0,0.0,0.0,0.0,0.0,0.0,0.0,-0.8168,0.0,0.0,0.0,-1.0422,0.0,0.0,0.0,-1.5505,-1.6128,-1.6418,-1.6423,-1.7269,-1.7892,-1.8158,-1.8972,-1.9581,-1.9797,-1.9904,-2.0045,-2.0239,-2.0239,-2.0357,-2.0509,-2.0561,-2.0854,-2.1372,-2.1869,-2.2517,-2.3268,-2.3987,-2.4535,-2.4931,-2.5314,-2.568,-2.6063,-2.6277,-2.6486,-2.6657,-2.6708,-2.6691,-2.6691,0.1761,0.0,0.0,0.1655,0.1437,0.1217,0.1021,0.0239,-0.0527,-0.1215,0.0,0.0,-0.3619,-0.4506,0.0,0.0,-0.583,-0.5655,0.0,0.0,-0.4182,-0.3382,-0.2942,-0.2547,-0.2228,-0.2017,-0.1808,-0.1573,-0.1645,0.0,0.0,0.0,0.0,-0.2826,0.0,-0.4149,-0.4965,0.0,-0.6887,-0.7474,-0.8925,-0.9885,-1.0527,-1.1424,-1.2253,-1.2881,-1.2881,-1.2881,-1.2881,-1.2881,-1.2881,0.0,-1.2881,-1.2627,-1.2274,0.0,0.0,0.0,-1.0308,0.0,0.0,0.0,0.0,-0.8041,-0.7396,-0.7118,-0.7047,-0.7227,0.0,0.0,0.0,0.0,0.0,0.0,0.0,-0.7334,0.0,-0.7577,0.0,0.0,0.0,0.0,0.0,-1.4254,-1.4729,-1.4933,-1.6095,-1.6968,-1.744,-1.8504,-1.925,-1.9545,-1.9581,-1.9726,-1.9975,-1.9975,-2.0045,-2.015,-2.022,-2.0308,-2.0478,-2.1111,-2.1579,-2.1922,-2.2807,-2.349,-2.3998,-2.4467,-2.507,-2.5696,-2.5974,-2.6241,-2.6521,-2.6657,-2.6691,-2.6691,0.1916,0.1578,0.0,0.0,0.1384,0.1031,0.0488,0.0,-0.0562,-0.1203,0.0,0.0,0.0,0.0,0.0,0.0,0.0,-0.6118,-0.5957,0.0,-0.481,-0.4269,-0.3643,-0.3132,-0.2798,-0.2575,-0.2236,-0.18,-0.1849,-0.1828,0.0,0.0,0.0,0.0,0.0,-0.4443,-0.563,-0.6587,-0.7419,-0.8191,-0.8788,-0.9831,-1.1187,0.0,-1.2666,-1.2881,-1.2881,0.0,0.0,-1.2881,-1.2881,-1.2881,-1.2881,0.0,0.0,0.0,0.0,0.0,0.0,-1.0411,-0.984,-0.9219,-0.8764,-0.8311,-0.756,-0.7196,-0.7101,-0.7439,-0.75,-0.7587,0.0,0.0,0.0,0.0,0.0,0.0,0.0,0.0,0.0,0.0,0.0,0.0,0.0,-1.158,-1.2319,0.0,-1.4098,-1.5383,-1.6316,-1.7815,-1.8784,-1.9101,-1.9302,-1.9501,-1.9611,-1.9705,-1.9762,-1.9797,-1.9797,-1.9904,-2.0115,-2.0131,-2.0569,-2.1322,-2.1353,-2.2123,-2.3341,-2.3561,-2.4225,-2.5169,-2.5551,-2.5957,-2.633,-2.659,-2.6691,-2.6691,0.0,0.0,0.0,0.0,0.0,0.074,0.0214,-0.0182,-0.0682,0.0,-0.2359,0.0,0.0,-0.5455,-0.6459,0.0,0.0,-0.7353,-0.7087,-0.6542,0.0,-0.5178,-0.4808,-0.431,-0.3602,-0.3344,-0.2923,-0.2271,-0.2208,-0.2107,0.0,0.0,0.0,0.0,0.0,-0.4352,0.0,0.0,0.0,0.0,0.0,-1.0246,-1.1286,0.0,-1.248,-1.2783,-1.2783,-1.2832,-1.2881,-1.2881,-1.2881,-1.2881,-1.2881,-1.2735,-1.2529,-1.2382,-1.1927,-1.1418,-1.1326,-1.0871,-1.0351,-0.9834,-0.9243,-0.8631,-0.8063,-0.7596,-0.737,-0.7681,-0.7743,-0.784,-0.8104,0.0,0.0,0.0,0.0,0.0,0.0,0.0,0.0,0.0,0.0,0.0,0.0,0.0,-1.0941,-1.1654,-1.293,0.0,-1.5691,-1.6896,-1.7911,-1.8731,-1.9003,-1.9242,-1.9465,-1.9574,-1.9669,-1.9726,-1.9726,-1.9797,-1.9904,-1.9904,-2.0112,-2.0462,-2.0816,-2.1531,-2.2476,-2.3078,-2.3966,-2.4934,-2.5323,-2.5717,-2.6099,-2.6486,-2.664,-2.6691,0.2344,0.0,0.0,0.0,0.0,0.0554,0.0045,-0.0389,0.0,0.0,-0.2696,0.0,-0.488,0.0,-0.7245,0.0,-0.83,-0.8208,-0.7876,-0.7353,0.0,-0.6043,-0.5766,-0.5264,-0.4486,-0.4165,-0.3622,-0.2777,-0.2591,-0.2402,0.0,0.0,0.0,0.0,0.0,0.0,-0.5136,0.0,-0.7282,0.0,0.0,-1.0348,0.0,0.0,-1.2126,-1.2627,0.0,-1.2783,-1.2881,-1.2881,-1.2881,-1.2881,-1.2881,-1.2832,-1.2676,-1.2578,-1.2274,-1.1877,-1.1828,-1.1427,-1.0931,-1.0466,-0.9851,-0.9213,-0.8693,-0.8276,-0.8048,-0.8328,-0.8346,-0.8447,-0.8657,0.0,0.0,0.0,0.0,0.0,0.0,-0.5605,0.0,0.0,0.0,0.0,0.0,0.0,-0.9552,-1.0665,-1.1834,0.0,0.0,-1.6124,-1.719,-1.8252,-1.8567,-1.8927,-1.9242,-1.9428,-1.956,-1.9654,-1.9654,-1.969,-1.9762,-1.9762,-1.9797,-1.9899,-2.0249,-2.0956,-2.1961,-2.2464,-2.3486,-2.467,-2.4989,-2.5378,-2.577,-2.6312,-2.6555,-2.664,0.2739,0.0,0.0,0.0,0.0909,0.0,0.0,0.0,-0.1192,0.0,-0.3084,-0.4244,-0.5393,-0.6551,-0.7519,-0.8297,-0.8646,-0.8719,-0.847,-0.7923,0.0,0.0,-0.6557,-0.6085,-0.5428,-0.5018,-0.4367,-0.3336,-0.3048,-0.2677,0.0,0.0,0.0,0.0,-0.3292,0.0,-0.5266,-0.6409,-0.746,-0.8474,-0.9406,-1.0138,-1.0667,-1.0972,-1.1669,-1.248,-1.2627,-1.2774,-1.2881,-1.2881,-1.2881,-1.2881,-1.2881,-1.2832,-1.2735,-1.2735,-1.2529,-1.2323,-1.2323,-1.2026,-1.1639,-1.116,-1.0624,-1.0091,-0.9517,-0.919,-0.908,-0.9219,-0.9244,-0.9291,-0.9408,0.0,0.0,0.0,0.0,0.0,0.0,0.0,0.0,0.0,0.0,0.0,0.0,0.0,-0.8178,-0.9626,-1.0788,0.0,0.0,-1.5396,-1.6492,-1.7572,-1.8014,-1.8475,-1.8955,-1.9153,-1.9376,-1.9574,-1.9574,-1.9647,-1.969,-1.969,-1.969,-1.969,-1.969,-2.0453,-2.1695,-2.1783,-2.2793,-2.4302,-2.4508,-2.491,-2.5454,-2.6066,-2.6417,-2.6572,0.2817,0.2277,0.1614,0.0,0.0403,0.0,0.0,0.0,0.0,0.0,-0.3559,-0.4668,-0.5667,-0.6971,-0.8064,-0.876,-0.8959,0.0,0.0,0.0,0.0,-0.816,-0.7738,-0.7267,-0.6805,-0.5849,-0.4963,-0.4115,-0.344,0.0,-0.2734,0.0,0.0,0.0,0.0,0.0,-0.4912,-0.6081,-0.741,-0.8752,-0.9054,-0.9517,-1.0079,0.0,-1.1226,-1.1819,-1.2234,-1.2627,-1.2881,-1.2881,-1.2881,-1.2881,-1.2881,-1.2881,-1.2832,-1.2832,-1.2735,-1.2578,-1.2578,-1.2382,-1.2098,-1.1889,-1.1305,-1.0724,-1.0488,-1.0018,-0.9741,-1.0051,-1.0076,-1.014,-1.0187,-0.9599,0.0,0.0,0.0,0.0,0.0,0.0,0.0,-0.5732,0.0,0.0,0.0,-0.6846,-0.7528,-0.8606,-0.9506,0.0,-1.2561,-1.385,-1.5119,-1.632,-1.7128,-1.7828,-1.84,-1.8644,-1.8936,-1.9228,-1.9376,-1.9501,-1.9647,-1.9705,-1.969,-1.969,-1.969,-2.0453,-2.1695,-2.1783,-2.2687,-2.4109,-2.4302,-2.4655,-2.5114,-2.5811,-2.6154,-2.6312,0.3122,0.0,0.0,0.0681,0.0,0.0,-0.0894,-0.1402,0.0,-0.2871,-0.3921,0.0,-0.5994,-0.7186,-0.8172,-0.8829,-0.9012,0.0,-0.9082,0.0,0.0,-0.8404,-0.8195,-0.7767,-0.729,-0.6385,0.0,-0.4525,0.0,0.0,-0.2907,0.0,0.0,0.0,0.0,-0.4056,0.0,-0.6293,-0.762,-0.8745,-0.8857,-0.9211,0.0,-1.0198,-1.0859,-1.161,-1.213,-1.2532,-1.2832,-1.2881,-1.2881,-1.2881,-1.2881,-1.2881,-1.2881,-1.2881,-1.2832,-1.2783,-1.2783,-1.2627,-1.248,-1.2382,-1.1951,-1.1535,-1.1389,-1.1077,-1.0789,-1.0957,-1.0902,-1.0871,-1.0787,-0.9987,0.0,0.0,0.0,0.0,0.0,0.0,0.0,0.0,-0.6041,0.0,-0.6418,-0.6572,-0.7055,-0.7976,-0.8609,-0.9688,0.0,-1.2635,-1.3938,-1.536,-1.6392,-1.7256,-1.7909,-1.8201,-1.85,-1.886,-1.9116,-1.9317,-1.9538,-1.9596,-1.9654,-1.969,-1.969,-2.0453,-2.1695,-2.1759,-2.2606,-2.3925,-2.4135,-2.4369,-2.4623,-2.5192,-2.5626,-2.601,0.342,0.0,0.0,0.0,0.0,0.0,0.0,-0.1862,0.0,-0.3266,0.0,-0.5173,-0.6168,-0.7091,-0.7882,-0.8549,-0.8781,-0.8856,-0.8833,-0.8697,-0.8477,-0.8269,-0.8224,-0.7848,-0.726,-0.6592,-0.5741,-0.4713,-0.392,-0.3312,0.0,0.0,0.0,0.0,0.0,0.0,0.0,-0.6657,-0.7836,-0.8521,-0.8732,-0.9116,-0.9635,-0.9948,-1.0666,-1.1609,-1.2096,-1.2525,-1.2849,-1.2998,-1.3047,-1.3047,-1.3047,-1.3047,-1.3037,-1.2978,-1.2959,-1.2949,-1.29,-1.2832,-1.2735,-1.2735,-1.2529,-1.2323,-1.2224,-1.2076,-1.1927,-1.1828,-1.1719,-1.1528,-1.1217,-1.022,0.0,0.0,0.0,0.0,0.0,0.0,0.0,0.0,0.0,0.0,-0.6439,-0.6332,-0.6593,-0.7395,-0.7806,-0.8717,0.0,0.0,-1.2946,-1.4505,-1.5734,-1.668,-1.731,-1.772,-1.8068,-1.85,-1.8774,-1.9093,-1.9339,-1.9501,-1.9611,-1.969,-1.969,-2.0453,-2.1695,-2.1695,-2.254,-2.3782,-2.3952,-2.4036,-2.412,-2.4426,-2.4918,-2.5551,0.3105,0.0,0.0,0.0,0.0,-0.084,-0.1875,-0.2322,-0.2752,-0.3345,-0.4172,-0.4989,-0.5668,-0.6479,-0.7157,-0.7639,-0.8078,0.0,0.0,0.0,0.0,-0.8706,-0.8194,-0.7791,-0.7554,-0.6425,-0.5536,-0.4857,-0.3967,-0.3356,0.0,0.0,0.0,0.0,0.0,0.0,-0.5427,-0.6545,0.0,-0.8055,-0.8616,-0.9042,-0.9508,-1.0142,-1.0778,-1.1384,-1.2049,-1.2851,-1.3565,-1.3705,-1.3811,-1.3916,-1.3916,-1.3916,-1.3795,-1.3496,-1.3398,-1.332,-1.2978,-1.2881,-1.2881,-1.2881,-1.2735,-1.2627,-1.2578,-1.248,-1.2382,-1.2382,-1.2323,-1.2175,-1.1678,-1.0212,-0.8837,0.0,0.0,0.0,0.0,0.0,0.0,0.0,0.0,-0.6243,-0.6163,-0.5852,-0.5826,-0.6199,-0.6721,-0.744,0.0,0.0,-1.2024,0.0,-1.4754,-1.5844,-1.6405,-1.7031,-1.7516,-1.7868,-1.8358,-1.876,-1.9069,-1.9317,-1.9487,-1.9611,-1.9705,-2.0453,-2.1695,-2.1695,-2.2443,-2.3653,-2.3681,-2.3739,-2.3867,-2.4051,-2.4302,-2.4614,0.0,0.0,0.0,0.0,0.0,0.0,0.0,-0.252,-0.3162,-0.3846,-0.4496,-0.5062,-0.5621,-0.618,-0.6736,-0.7089,-0.7418,-0.7658,-0.7688,-0.7755,-0.7839,-0.7787,-0.7486,-0.7206,-0.7002,-0.6187,-0.5458,-0.4927,-0.4042,-0.3514,0.0,0.0,0.0,0.0,0.0,-0.45,0.0,0.0,0.0,-0.8111,-0.8771,-0.9282,-0.9706,-1.0129,-1.0682,-1.1295,-1.1872,-1.2685,-1.3495,-1.3634,-1.3809,-1.4024,-1.4024,-1.4024,-1.4038,-1.3887,-1.3828,-1.3789,-1.3584,-1.3525,-1.3477,-1.3262,-1.3153,-1.3045,-1.2832,-1.2725,-1.2735,-1.2735,-1.2627,-1.2307,-1.1403,-1.0188,-0.9086,-0.8441,-0.7978,0.0,0.0,0.0,-0.7406,0.0,0.0,0.0,0.0,0.0,0.0,0.0,0.0,0.0,0.0,0.0,-1.1103,0.0,0.0,-1.5131,-1.5869,-1.6522,-1.7031,-1.7434,-1.7908,-1.8358,-1.8798,-1.9116,-1.9376,-1.9611,-1.9654,-2.0453,-2.1739,-2.2413,-2.3041,-2.3595,-2.3595,-2.3653,-2.3696,-2.3839,-2.4009,-2.4234,0.0,0.2631,0.0,0.0,0.0261,-0.0541,-0.1515,-0.2505,-0.337,-0.422,-0.4748,-0.5201,-0.5778,-0.6064,-0.6353,-0.6713,-0.6893,-0.7024,-0.7091,-0.7082,-0.7061,-0.6862,-0.6792,-0.6624,-0.6282,-0.5876,-0.537,-0.4846,-0.4154,-0.3757,0.0,0.0,-0.3149,-0.3239,0.0,0.0,0.0,0.0,-0.7524,-0.816,-0.8937,-0.9525,-0.9955,-1.0186,-1.0656,-1.1293,-1.1661,-1.2305,-1.3116,-1.3169,-1.3571,-1.4012,-1.4076,-1.4186,-1.4286,-1.4189,-1.4169,-1.415,-1.4053,-1.4077,-1.4,-1.3721,-1.3574,-1.3418,-1.3096,-1.2939,-1.2881,-1.2881,-1.2735,-1.2229,-1.1125,-1.0213,-0.9392,-0.8707,-0.8256,0.0,0.0,0.0,0.0,0.0,0.0,0.0,-0.6445,0.0,0.0,0.0,0.0,0.0,-0.7175,-0.8721,-1.0359,0.0,-1.3325,-1.4481,-1.5367,-1.6076,-1.6595,-1.7018,-1.7475,-1.8002,-1.8461,-1.8822,-1.9176,-1.9538,-1.9632,-2.0453,-2.1799,-2.3071,-2.3595,-2.3595,-2.3595,-2.3595,-2.3595,-2.3739,-2.3839,-2.4024,0.0,0.0,0.0,0.0,0.0,-0.0138,-0.1335,-0.2181,-0.3065,-0.4014,-0.4672,-0.5259,-0.578,-0.5932,-0.6081,-0.637,-0.6535,-0.6662,-0.6647,-0.6853,-0.6838,-0.6656,-0.6515,-0.6297,-0.597,-0.5616,-0.5193,-0.4743,-0.433,-0.3978,-0.3578,-0.3363,-0.336,-0.3598,-0.42,0.0,-0.5281,-0.6266,-0.7102,-0.7838,-0.892,-0.9583,-0.9986,-1.0498,-1.0864,-1.1142,-1.1516,-1.1965,-1.2413,-1.2525,-1.3399,-1.4477,-1.4594,-1.4779,-1.4839,-1.4402,-1.4279,-1.4259,-1.3968,-1.3917,-1.3961,-1.4029,-1.3789,-1.3496,-1.3457,-1.3154,-1.2881,-1.2881,-1.248,-1.1968,-1.1375,-1.0335,-0.9467,-0.9011,-0.8622,-0.8237,0.0,0.0,-0.7782,-0.7547,0.0,0.0,0.0,-0.5732,0.0,0.0,-0.5476,-0.5984,-0.6629,-0.8321,-0.9953,-1.1533,-1.2855,-1.3915,-1.4708,-1.5591,-1.6163,-1.6398,-1.7115,-1.7666,-1.8068,-1.8461,-1.8898,-1.9339,-1.9538,-2.0393,-2.1799,-2.3071,-2.3595,-2.3595,-2.3595,-2.3595,-2.3595,-2.3595,-2.3696,-2.3839,0.0,0.0,0.0,0.0,0.0,0.0,-0.0979,-0.1839,-0.2695,-0.3583,-0.4602,-0.5396,-0.5778,-0.609,-0.6242,-0.6318,-0.6338,-0.6339,-0.6239,-0.6306,-0.6306,-0.6139,-0.6064,-0.5964,-0.5747,-0.5515,-0.5265,-0.4927,-0.4538,-0.4284,-0.4155,-0.3863,-0.388,-0.4172,-0.4555,-0.4993,-0.5502,-0.6395,-0.7194,-0.7905,-0.8953,-0.9562,-0.9901,-1.0325,-1.0618,-1.0814,-1.1059,-1.1373,-1.174,-1.1926,-1.2842,-1.3932,-1.4121,-1.4309,-1.4519,-1.4461,-1.4415,-1.4436,-1.4383,-1.4459,-1.4515,-1.4424,-1.434,-1.4141,-1.3623,-1.3319,-1.3084,-1.2832,-1.2283,-1.1728,-1.1276,-1.0378,-0.9619,-0.9278,-0.8882,-0.8591,0.0,0.0,0.0,-0.7762,0.0,-0.6734,0.0,0.0,0.0,0.0,0.0,-0.599,-0.6912,-0.8144,-0.9658,-1.1446,-1.2484,-1.3465,-1.4466,-1.5322,-1.5901,-1.6262,-1.6876,-1.7406,-1.7828,-1.8305,-1.9099,-2.0064,-2.0608,-2.1386,-2.2353,-2.3236,-2.3595,-2.3595,-2.3595,-2.3595,-2.3595,-2.3595,-2.3739,-2.3925,0.2503,0.2026,0.1408,0.0617,0.0389,0.0078,-0.0625,-0.1426,-0.2162,-0.2881,-0.3997,-0.5007,-0.5637,-0.6022,-0.618,-0.618,-0.6261,-0.6213,-0.6105,-0.6098,-0.6027,-0.5874,-0.5867,0.0,-0.5654,-0.5545,-0.5396,-0.5199,-0.488,-0.4718,-0.458,-0.4314,-0.4328,-0.4591,-0.4807,-0.5139,-0.5597,-0.6337,-0.7056,-0.7696,-0.8681,-0.9274,-0.9606,-1.0053,-1.0371,-1.0561,-1.0681,-1.0933,-1.1178,-1.131,-1.2042,-1.2895,-1.3277,-1.364,-1.3881,-1.4043,-1.4103,-1.4172,-1.435,-1.4606,-1.4718,-1.4639,-1.4591,-1.4424,-1.37,-1.3284,-1.2972,-1.2457,-1.1927,-1.1368,-1.0854,-1.0233,-0.9666,-0.9309,-0.9008,-0.8804,-0.8804,-0.8377,0.0,-0.7895,-0.7468,-0.7001,-0.6627,-0.6751,0.0,0.0,0.0,-0.6332,-0.7147,-0.8297,-0.9705,-1.1402,-1.2313,-1.3245,-1.4269,-1.5142,-1.5736,-1.61,-1.6663,-1.7157,-1.7639,-1.8305,-1.9267,-2.0463,-2.1317,-2.2069,-2.2768,-2.334,-2.3595,-2.3595,-2.3595,-2.3595,-2.3595,-2.3595,-2.3782,-2.4024,0.2175,0.1592,0.0876,0.0167,0.0,-0.0085,-0.0253,-0.084,-0.1427,-0.1848,-0.2938,-0.4041,-0.519,-0.5631,-0.5941,-0.5941,-0.618,-0.6261,-0.6335,-0.6335,-0.619,-0.6034,-0.6027,-0.5956,-0.58,-0.5796,-0.565,-0.5425,-0.5418,-0.5125,-0.4687,-0.4684,-0.4684,-0.4694,-0.485,-0.5061,-0.5452,-0.5959,-0.6497,-0.6985,-0.8096,-0.8689,-0.9081,-0.9728,-1.0117,-1.0308,-1.0561,-1.0688,-1.0807,-1.0807,-1.1052,-1.149,-1.2236,-1.272,-1.3009,-1.3009,-1.3139,-1.339,-1.37,-1.401,-1.43,-1.4588,-1.4408,-1.3998,-1.3569,-1.3062,-1.2407,-1.1657,-1.1326,-1.0863,-1.0174,-0.9762,-0.9458,-0.9061,-0.891,-0.8804,-0.8804,-0.8557,0.0,-0.7915,-0.7649,-0.7278,-0.6647,-0.6725,0.0,0.0,-0.6869,-0.7099,-0.7181,-0.8774,-1.0168,-1.128,-1.2388,-1.3338,-1.4014,-1.4994,-1.5603,-1.5792,-1.6417,-1.696,-1.7434,-1.8422,-1.9358,-2.026,-2.1277,-2.2069,-2.2768,-2.334,-2.3595,-2.3595,-2.3595,-2.3595,-2.3595,-2.3595,-2.3782,-2.4024,0.0978,0.0745,0.0504,0.0085,0.0,-0.0086,-0.0253,-0.0589,-0.1009,-0.1429,-0.2185,-0.2925,-0.3619,-0.4691,-0.5413,-0.5643,-0.5867,-0.6099,-0.6261,-0.6338,-0.624,-0.619,-0.6186,-0.6115,-0.5962,-0.5959,-0.5861,-0.5661,-0.5562,-0.5335,-0.4992,-0.5098,-0.5091,-0.4996,-0.5152,-0.5432,-0.5709,-0.5981,-0.6411,-0.6969,-0.7658,-0.8133,-0.8512,-0.9332,-0.9786,-0.9996,-1.0434,-1.0624,-1.0681,-1.0681,-1.0807,-1.0989,-1.124,-1.1732,-1.2228,-1.2282,-1.2474,-1.2666,-1.3025,-1.3329,-1.37,-1.4001,-1.4031,-1.3952,-1.3498,-1.2733,-1.1835,-1.0937,-1.0608,-1.0352,-0.9814,-0.9517,-0.9263,-0.9061,-0.891,-0.8804,-0.8804,-0.8557,-0.8337,-0.8243,-0.7969,-0.7709,-0.7522,-0.7681,0.0,0.0,0.0,-0.8559,-0.8311,-0.9133,-1.0284,-1.1674,-1.2468,-1.3247,-1.3967,-1.4823,-1.5424,-1.5792,-1.6318,-1.6947,-1.7639,-1.8305,-1.9369,-2.07,-2.1311,-2.2185,-2.3255,-2.3477,-2.3595,-2.3595,-2.3595,-2.3595,-2.3595,-2.3595,-2.3696,-2.3882,0.0257,0.026,0.0175,0.0,0.0,0.0,-0.0173,-0.0345,-0.0604,-0.0948,-0.1465,-0.1976,-0.2384,-0.3441,-0.4353,-0.5091,-0.555,-0.5764,-0.5951,-0.6099,-0.618,-0.618,-0.6261,-0.6217,-0.6118,-0.6115,-0.604,-0.5888,-0.5742,-0.5569,-0.5386,-0.5481,-0.5474,-0.5386,-0.5484,-0.5648,-0.5804,-0.6021,-0.6287,-0.6655,-0.7246,-0.7743,-0.8137,-0.9008,-0.9561,-0.9904,-1.043,-1.0686,-1.0817,-1.0817,-1.0882,-1.1012,-1.1012,-1.133,-1.1675,-1.1681,-1.1802,-1.1988,-1.2351,-1.2658,-1.2972,-1.3346,-1.3407,-1.3305,-1.2806,-1.1927,-1.1067,-1.043,-1.0075,-0.9777,-0.9413,-0.9263,-0.9061,-0.8962,-0.8857,-0.8804,-0.8804,-0.8651,-0.8497,-0.839,-0.821,-0.8049,-0.7895,-0.8112,-0.821,0.0,0.0,-0.9361,-0.9414,-0.9993,-1.0823,-1.1846,-1.2652,-1.332,-1.3931,-1.4686,-1.5244,-1.5703,-1.6349,-1.6947,-1.7529,-1.8356,-1.947,-2.0754,-2.1389,-2.2344,-2.3407,-2.3523,-2.3566,-2.3595,-2.3595,-2.3595,-2.3595,-2.3595,-2.3696,-2.3797,0.0,0.0,0.0,0.0,0.0,0.0,0.0,-0.018,-0.0359,-0.0359,-0.0807,-0.1157,-0.1571,-0.2003,-0.2824,-0.4172,-0.4963,-0.5394,-0.5274,-0.5655,-0.5808,-0.5876,-0.6116,-0.6271,-0.6261,-0.6261,-0.619,-0.6047,-0.5905,-0.5827,-0.5817,-0.5817,-0.5813,-0.58,-0.58,-0.5806,-0.5817,-0.6039,-0.6122,-0.6201,-0.6897,-0.7388,-0.7744,-0.8714,-0.941,-0.9979,-1.0321,-1.0736,-1.1011,-1.108,-1.1217,-1.1354,-1.1423,-1.1423,-1.1384,-1.1134,-1.1213,-1.1331,-1.1685,-1.1996,-1.2305,-1.2621,-1.2552,-1.2265,-1.1615,-1.088,-1.0258,-1.0111,-0.9703,-0.9337,-0.9061,-0.9008,-0.8962,-0.8804,-0.8804,-0.8804,-0.8804,-0.8804,-0.8704,-0.8437,-0.8404,-0.8297,-0.7968,-0.8085,-0.8221,-0.8357,0.0,-0.962,-1.0391,-1.1158,-1.1649,-1.1912,-1.2885,-1.3515,-1.3773,-1.449,-1.5096,-1.5513,-1.6436,-1.7015,-1.7277,-1.8506,-1.953,-2.0442,-2.1442,-2.2396,-2.3275,-2.3422,-2.3538,-2.3595,-2.3595,-2.3595,-2.3595,-2.3595,-2.3696,-2.3797,0.0355,0.0268,0.0269,0.0,0.0,0.0,0.0,-0.009,-0.009,-0.009,-0.0359,-0.0626,-0.089,-0.1336,-0.185,-0.2313,-0.353,-0.4481,-0.4951,-0.5112,-0.5238,-0.5553,-0.563,-0.5817,-0.6022,-0.6018,-0.6083,-0.6207,-0.6169,-0.6091,-0.5976,-0.5976,-0.5915,-0.58,-0.58,-0.5867,-0.5976,-0.5976,-0.6122,-0.6294,-0.6763,-0.7078,-0.7358,-0.8355,-0.8855,-0.92,-0.9834,-1.0182,-1.0459,-1.0805,-1.1011,-1.1217,-1.1354,-1.1423,-1.1356,-1.1127,-1.1142,-1.1224,-1.1248,-1.1373,-1.1622,-1.1809,-1.1872,-1.1658,-1.1083,-1.0827,-1.0465,-0.9709,-0.9501,-0.9275,-0.8897,-0.8857,-0.8857,-0.8811,-0.8804,-0.8804,-0.8804,-0.8804,-0.8784,-0.8711,-0.8704,-0.8677,-0.8604,-0.87,-0.8892,-0.914,-0.9647,-1.024,-1.0881,-1.1585,-1.2076,-1.2329,-1.2871,-1.3306,-1.3621,-1.4129,-1.4823,-1.5748,-1.6306,-1.6964,-1.7604,-1.8243,-1.9263,-2.0521,-2.1245,-2.1999,-2.2889,-2.3216,-2.3407,-2.3538,-2.3566,-2.3595,-2.3595,-2.3595,-2.3595,-2.3653,0.0986,0.0718,0.0448,0.018,0.009,0.0,0.0,0.0,0.0,0.0,-0.009,-0.0269,-0.0538,-0.0807,-0.1071,-0.1412,-0.2589,-0.3477,-0.3859,-0.4191,-0.4502,-0.4777,-0.5022,-0.5292,-0.5404,-0.5644,-0.5852,-0.6099,-0.6099,-0.6136,-0.6135,-0.6135,-0.6091,-0.601,-0.601,-0.6057,-0.6135,-0.6135,-0.6183,-0.6331,-0.6619,-0.6885,-0.71,-0.7821,-0.829,-0.8729,-0.9306,-0.9813,-1.0252,-1.0683,-1.0969,-1.1255,-1.1469,-1.154,-1.1481,-1.1339,-1.1289,-1.1256,-1.1152,-1.1198,-1.1227,-1.122,-1.1247,-1.1135,-1.078,-1.0573,-1.0279,-0.9647,-0.9444,-0.92,-0.8858,-0.8804,-0.8804,-0.8804,-0.8804,-0.8804,-0.8804,-0.8804,-0.8804,-0.8804,-0.8804,-0.8804,-0.8804,-0.8857,-0.9008,-0.9316,-0.9725,-1.0293,-1.0972,-1.1628,-1.2175,-1.248,-1.2881,-1.321,-1.342,-1.4025,-1.4731,-1.5603,-1.6333,-1.7017,-1.7613,-1.852,-1.9416,-2.0321,-2.1153,-2.1907,-2.2586,-2.3038,-2.3319,-2.3509,-2.3566,-2.3595,-2.3595,-2.3595,-2.3595,-2.3595,0.1704,0.1166,0.0718,0.0448,0.018,0.009,0.009,0.0,0.0,0.0,0.0,-0.009,-0.0359,-0.0359,-0.0538,-0.0897,-0.1764,-0.2422,-0.2462,-0.3136,-0.3637,-0.3708,-0.4296,-0.4582,-0.4642,-0.5133,-0.5488,-0.5767,-0.5827,-0.5977,-0.6217,-0.6193,-0.6257,-0.6257,-0.6261,-0.6338,-0.6338,-0.6338,-0.6338,-0.6338,-0.6486,-0.6714,-0.6865,-0.733,-0.7791,-0.825,-0.8699,-0.9306,-0.9992,-1.0438,-1.0887,-1.1186,-1.1484,-1.1558,-1.1588,-1.1571,-1.1475,-1.1345,-1.1276,-1.122,-1.1111,-1.0819,-1.0744,-1.0744,-1.0624,-1.0367,-1.01,-0.9813,-0.9512,-0.9163,-0.8925,-0.8838,-0.8804,-0.8804,-0.8804,-0.8804,-0.8804,-0.8804,-0.8804,-0.8804,-0.8804,-0.8804,-0.8804,-0.8804,-0.891,-0.9159,-0.9562,-1.0079,-1.0769,-1.1519,-1.2076,-1.248,-1.2881,-1.3113,-1.3218,-1.4025,-1.472,-1.5266,-1.6353,-1.7094,-1.7493,-1.8891,-1.9707,-2.0088,-2.111,-2.1793,-2.237,-2.2814,-2.3187,-2.3466,-2.3566,-2.361,-2.3595,-2.3595,-2.3595,-2.3595,0.2418,0.1703,0.1076,0.0538,0.0359,0.0359,0.0359,0.018,0.0,0.0,0.0,0.0,-0.009,-0.009,-0.009,-0.018,-0.0537,-0.1069,-0.1866,-0.2043,-0.2377,-0.2851,-0.302,-0.333,-0.4006,-0.467,-0.4994,-0.5059,-0.537,-0.5565,-0.5642,-0.5843,-0.5941,-0.5941,-0.618,-0.6338,-0.6338,-0.6338,-0.6338,-0.6338,-0.6486,-0.6637,-0.6718,-0.7103,-0.7334,-0.7488,-0.8025,-0.8403,-0.878,-0.9544,-0.9922,-1.0218,-1.0738,-1.0962,-1.1025,-1.136,-1.139,-1.1392,-1.1365,-1.1176,-1.0987,-1.0698,-1.0618,-1.0624,-1.0624,-1.0584,-1.0408,-1.0107,-0.9813,-0.9526,-0.917,-0.8971,-0.8804,-0.8804,-0.8804,-0.8804,-0.8804,-0.8804,-0.8804,-0.8804,-0.8804,-0.8804,-0.8804,-0.8804,-0.8857,-0.9008,-0.9517,-0.9976,-1.0454,-1.1368,-1.2026,-1.2323,-1.2725,-1.3065,-1.3372,-1.3931,-1.4501,-1.496,-1.602,-1.694,-1.776,-1.8682,-1.957,-2.0343,-2.0894,-2.1423,-2.1949,-2.2463,-2.2873,-2.3172,-2.3407,-2.3538,-2.3595,-2.3595,-2.3595,-2.3595,0.3582,0.278,0.1974,0.1166,0.0718,0.0448,0.018,0.009,0.0,0.0,0.0,0.0,0.0,0.0,0.0,0.0,-0.009,-0.0359,-0.0808,-0.1166,-0.1518,-0.1855,-0.212,-0.2535,-0.3246,-0.3542,-0.3857,-0.4358,-0.4564,-0.4789,-0.5199,-0.547,-0.5606,-0.577,-0.6096,-0.6294,-0.6218,-0.6376,-0.6332,-0.6338,-0.6412,-0.6412,-0.649,-0.6644,-0.6799,-0.6949,-0.733,-0.7633,-0.8016,-0.8708,-0.9084,-0.9306,-0.983,-0.9981,-1.0056,-1.0438,-1.1009,-1.1499,-1.1526,-1.1268,-1.0962,-1.0828,-1.0739,-1.0624,-1.0624,-1.0624,-1.0474,-1.018,-1.0007,-0.978,-0.9269,-0.9077,-0.8985,-0.8831,-0.8804,-0.8804,-0.8804,-0.8804,-0.8804,-0.8804,-0.8804,-0.8804,-0.8804,-0.8804,-0.8857,-0.9008,-0.9361,-0.9769,-1.0249,-1.1116,-1.1719,-1.2076,-1.2627,-1.3017,-1.3248,-1.3658,-1.4082,-1.4547,-1.5925,-1.6882,-1.7545,-1.862,-1.9483,-2.0182,-2.0523,-2.1019,-2.1616,-2.2184,-2.2586,-2.2889,-2.3172,-2.3407,-2.3538,-2.3538,-2.3566,-2.3595,0.4746,0.4034,0.323,0.2241,0.1524,0.0897,0.0359,0.018,0.0,0.0,0.0,0.0,0.0,0.0,0.0,0.0,0.0,0.0,0.0,-0.0539,-0.0897,-0.0897,-0.1346,-0.1869,-0.2361,-0.2407,-0.2728,-0.3408,-0.3558,-0.3886,-0.4391,-0.4792,-0.5116,-0.5288,-0.5871,-0.6062,-0.6044,-0.6283,-0.6384,-0.6284,-0.6363,-0.6363,-0.6363,-0.6363,-0.6496,-0.6617,-0.6769,-0.7053,-0.7407,-0.7944,-0.825,-0.8399,-0.8846,-0.8917,-0.9074,-0.9458,-1.0376,-1.1232,-1.1384,-1.1214,-1.0876,-1.0943,-1.071,-1.0561,-1.0561,-1.0561,-1.0431,-1.0082,-0.9984,-0.986,-0.9361,-0.9223,-0.9134,-0.8904,-0.8858,-0.8884,-0.8818,-0.8804,-0.8804,-0.8804,-0.8804,-0.8804,-0.8804,-0.8804,-0.8857,-0.8962,-0.9211,-0.9569,-1.0043,-1.0812,-1.1418,-1.1927,-1.2529,-1.2929,-1.3085,-1.3382,-1.3705,-1.414,-1.5729,-1.6711,-1.7203,-1.8494,-1.9344,-1.9939,-2.0182,-2.0673,-2.1313,-2.1746,-2.2217,-2.2572,-2.2844,-2.3127,-2.3363,-2.3407,-2.3494,-2.3566,0.5819,0.5555,0.5196,0.4208,0.2959,0.1885,0.1346,0.0539,0.0,0.0,0.0,0.0,0.0,0.0,0.0,0.0,0.0,0.0,0.0,-0.009,-0.018,-0.0448,-0.0897,-0.1165,-0.1253,-0.1608,-0.1875,-0.1964,-0.2535,-0.2855,-0.2853,-0.3641,-0.411,-0.4446,-0.5116,-0.5449,-0.5693,-0.6108,-0.6268,-0.6341,-0.6585,-0.6668,-0.6668,-0.6668,-0.658,-0.6537,-0.6701,-0.6767,-0.6714,-0.718,-0.7334,-0.7411,-0.7783,-0.7936,-0.8012,-0.8627,-0.9372,-1.014,-1.0858,-1.0866,-1.0654,-1.073,-1.0516,-1.0301,-1.0301,-1.0301,-1.0238,-0.9907,-0.9693,-0.9566,-0.9407,-0.9366,-0.9323,-0.9036,-0.9101,-0.9057,-0.8844,-0.8804,-0.8804,-0.8804,-0.8804,-0.8804,-0.8804,-0.8804,-0.8804,-0.8804,-0.9159,-0.9465,-0.9614,-1.0454,-1.1276,-1.2076,-1.248,-1.2832,-1.3085,-1.319,-1.3409,-1.3831,-1.5146,-1.6109,-1.6796,-1.809,-1.8987,-1.9668,-1.9926,-2.0321,-2.0858,-2.1166,-2.1568,-2.2077,-2.237,-2.2632,-2.2934,-2.3083,-2.3275,-2.3509,0.6612,0.6523,0.6257,0.5371,0.4748,0.4121,0.3315,0.2422,0.1616,0.0987,0.0898,0.0718,0.0359,0.0269,0.018,0.0,0.0,0.0,0.0,0.0,-0.009,-0.018,-0.0359,-0.0539,-0.0628,-0.0807,-0.1076,-0.1345,-0.16,-0.186,-0.2126,-0.272,-0.3146,-0.3496,-0.4282,-0.4769,-0.4884,-0.5568,-0.5945,-0.6121,-0.637,-0.6536,-0.6702,-0.6702,-0.6664,-0.6614,-0.6699,-0.6742,-0.668,-0.6904,-0.695,-0.701,-0.7204,-0.7246,-0.7322,-0.7787,-0.8241,-0.8756,-0.9425,-1.0042,-1.0437,-1.0311,-1.0184,-1.0003,-0.9823,-0.9722,-0.9658,-0.9536,-0.9452,-0.9393,-0.9229,-0.9363,-0.9445,-0.9279,-0.9405,-0.9479,-0.9365,-0.9192,-0.9072,-0.9072,-0.8918,-0.8804,-0.8804,-0.8804,-0.8804,-0.8804,-0.9008,-0.9211,-0.9361,-1.0043,-1.0812,-1.1578,-1.1828,-1.2224,-1.2832,-1.2958,-1.3292,-1.3869,-1.483,-1.5687,-1.6461,-1.7483,-1.8333,-1.9133,-1.9303,-1.9759,-2.0422,-2.0623,-2.1019,-2.152,-2.1712,-2.2077,-2.2495,-2.2646,-2.2814,-2.3038,0.7285,0.736,0.7148,0.6507,0.6283,0.5816,0.4924,0.4306,0.3524,0.2382,0.2019,0.1745,0.1006,0.0818,0.0634,0.0363,0.0361,0.0269,0.018,0.009,0.0,0.0,0.0,-0.009,-0.0269,-0.0269,-0.0449,-0.0718,-0.0807,-0.1076,-0.1345,-0.1882,-0.2151,-0.251,-0.3314,-0.382,-0.4118,-0.4906,-0.5381,-0.5735,-0.599,-0.6248,-0.6502,-0.6502,-0.6557,-0.6686,-0.6686,-0.6656,-0.6685,-0.6746,-0.6792,-0.6764,-0.6759,-0.6751,-0.6865,-0.7099,-0.7407,-0.771,-0.8093,-0.8895,-0.961,-0.9811,-0.9714,-0.9487,-0.9302,-0.9133,-0.9011,-0.8753,-0.8882,-0.8896,-0.8788,-0.9196,-0.9549,-0.9398,-0.9643,-0.9786,-0.9699,-0.9506,-0.9379,-0.9379,-0.9205,-0.9045,-0.8951,-0.8945,-0.8905,-0.8811,-0.891,-0.9061,-0.9263,-0.9829,-1.0457,-1.1079,-1.1403,-1.1886,-1.2647,-1.2836,-1.3223,-1.378,-1.459,-1.5392,-1.6202,-1.6961,-1.7733,-1.8536,-1.8709,-1.9186,-1.9914,-2.0016,-2.0372,-2.0885,-2.1019,-2.141,-2.1902,-2.2044,-2.2263,-2.2572,0.7604,0.7838,0.8038,0.8038,0.7543,0.6795,0.5827,0.6135,0.576,0.4122,0.3468,0.2896,0.2097,0.1685,0.1389,0.1203,0.1181,0.0897,0.0448,0.018,0.0,0.0,0.0,0.0,0.0,0.0,0.0,0.0,-0.0269,-0.0359,-0.0448,-0.0897,-0.1166,-0.1436,-0.2151,-0.2777,-0.3226,-0.4293,-0.4828,-0.5008,-0.5542,-0.5811,-0.6083,-0.6083,-0.6265,-0.6579,-0.6579,-0.6658,-0.6705,-0.6702,-0.6702,-0.6675,-0.6522,-0.653,-0.6563,-0.6563,-0.6872,-0.7184,-0.7184,-0.7484,-0.804,-0.9186,-0.9141,-0.8794,-0.8789,-0.8667,-0.8296,-0.7652,-0.7847,-0.8172,-0.8052,-0.8818,-0.9503,-0.9383,-0.9823,-1.002,-0.9733,-0.9686,-0.9686,-0.9686,-0.9686,-0.9566,-0.9216,-0.919,-0.907,-0.8838,-0.8917,-0.9113,-0.9368,-0.9821,-1.026,-1.0686,-1.1257,-1.1888,-1.2483,-1.2917,-1.325,-1.3525,-1.4547,-1.5285,-1.5899,-1.6539,-1.719,-1.7909,-1.817,-1.8643,-1.9186,-1.9356,-1.972,-2.0233,-2.0321,-2.0723,-2.1229,-2.1326,-2.1746,-2.2184,0.7882,0.798,0.8038,0.8038,0.7892,0.7677,0.7388,0.7137,0.647,0.5032,0.451,0.3915,0.2949,0.2744,0.2547,0.2077,0.1878,0.1581,0.1193,0.0905,0.0808,0.0808,0.0269,0.0,0.0,0.0,0.0,0.0,-0.009,-0.009,-0.009,-0.0448,-0.0628,-0.0718,-0.1255,-0.1793,-0.2241,-0.2865,-0.358,-0.4295,-0.4565,-0.4921,-0.5366,-0.5549,-0.5706,-0.5761,-0.6113,-0.6265,-0.6303,-0.6547,-0.66,-0.6642,-0.6552,-0.652,-0.6544,-0.6443,-0.6493,-0.6567,-0.6718,-0.6868,-0.7134,-0.7851,-0.8006,-0.7985,-0.7697,-0.7653,-0.7497,-0.7166,-0.7396,-0.7782,-0.7982,-0.863,-0.9244,-0.9421,-0.9794,-1.0019,-0.9936,-0.9755,-0.9693,-0.9813,-0.963,-0.953,-0.9559,-0.9552,-0.9512,-0.9426,-0.9475,-0.9588,-0.975,-0.989,-1.0102,-1.0433,-1.0812,-1.1213,-1.1551,-1.2552,-1.334,-1.3921,-1.4436,-1.4988,-1.5568,-1.5985,-1.6513,-1.7145,-1.729,-1.7776,-1.8429,-1.8548,-1.8975,-1.95,-1.9759,-2.0118,-2.0523,-2.0772,-2.1006,-2.1237,0.8014,0.8038,0.8038,0.8038,0.8038,0.8038,0.8038,0.764,0.7,0.6105,0.5664,0.5057,0.4376,0.4153,0.3943,0.3369,0.2771,0.2367,0.2153,0.1835,0.1543,0.1453,0.0902,0.0449,0.018,0.009,0.0,0.0,0.0,0.0,0.0,-0.018,-0.0269,-0.0269,-0.0628,-0.0987,-0.1436,-0.1882,-0.2419,-0.3135,-0.3403,-0.376,-0.4206,-0.4387,-0.4654,-0.5013,-0.528,-0.5547,-0.5894,-0.6165,-0.6362,-0.6632,-0.6625,-0.6569,-0.6454,-0.6369,-0.6305,-0.6338,-0.6412,-0.649,-0.6542,-0.6897,-0.719,-0.7298,-0.7153,-0.7115,-0.7009,-0.663,-0.6989,-0.7423,-0.7545,-0.8177,-0.8753,-0.9069,-0.9396,-0.96,-0.96,-0.9523,-0.9544,-0.9675,-0.9518,-0.9433,-0.9445,-0.9491,-0.9446,-0.9395,-0.9505,-0.9621,-0.9679,-0.9904,-1.0082,-1.031,-1.0725,-1.1034,-1.1337,-1.2315,-1.3164,-1.3816,-1.444,-1.4994,-1.541,-1.571,-1.6066,-1.6524,-1.6673,-1.7056,-1.7667,-1.7897,-1.8333,-1.8869,-1.9133,-1.9448,-1.9811,-2.0003,-2.0144,-2.0359,0.8038,0.8038,0.8038,0.8038,0.8038,0.8038,0.8038,0.7743,0.7441,0.7135,0.6736,0.6439,0.6142,0.5847,0.5394,0.5003,0.4048,0.3431,0.3431,0.2809,0.2409,0.2134,0.1731,0.1263,0.0631,0.027,0.0,0.0,0.0,0.0,0.0,0.0,0.0,0.0,-0.0269,-0.0448,-0.0718,-0.1166,-0.1436,-0.1794,-0.1971,-0.2329,-0.2777,-0.2778,-0.3315,-0.4121,-0.4119,-0.4656,-0.5282,-0.5544,-0.6087,-0.6595,-0.6757,-0.6652,-0.6508,-0.6498,-0.6393,-0.6281,-0.6281,-0.6349,-0.6338,-0.6338,-0.6608,-0.6861,-0.6849,-0.6872,-0.671,-0.6263,-0.6704,-0.7124,-0.6941,-0.762,-0.8192,-0.8431,-0.8689,-0.8888,-0.8888,-0.9081,-0.921,-0.921,-0.9326,-0.9301,-0.9124,-0.91,-0.9059,-0.8936,-0.9219,-0.9408,-0.9408,-0.9893,-1.0215,-1.0404,-1.085,-1.1247,-1.1498,-1.2112,-1.274,-1.3402,-1.4421,-1.5079,-1.5352,-1.5546,-1.5846,-1.6056,-1.6181,-1.6513,-1.6955,-1.7301,-1.7744,-1.8224,-1.8452,-1.8762,-1.9133,-1.9133,-1.9291,-1.9552,0.8038,0.8038,0.8038,0.8038,0.8038,0.8038,0.8038,0.7939,0.7743,0.7543,0.7444,0.7144,0.6642,0.6517,0.6401,0.6098,0.5603,0.525,0.5054,0.4488,0.4158,0.4063,0.3294,0.263,0.2257,0.1003,0.0269,0.0269,0.009,0.0,0.0,0.0,0.0,0.0,-0.009,-0.0269,-0.0448,-0.0538,-0.0897,-0.1256,-0.1345,-0.1524,-0.1704,-0.1973,-0.2153,-0.242,-0.2957,-0.3405,-0.3851,-0.483,-0.5617,-0.6201,-0.6094,-0.6364,-0.6548,-0.6357,-0.6384,-0.6427,-0.6427,-0.6346,-0.6338,-0.6338,-0.6391,-0.6409,-0.6204,-0.6448,-0.6599,-0.6358,-0.6816,-0.718,-0.7133,-0.7504,-0.7855,-0.7882,-0.8052,-0.8242,-0.8242,-0.8242,-0.8371,-0.8619,-0.8683,-0.8796,-0.9,-0.9,-0.9105,-0.9229,-0.9349,-0.9549,-0.9687,-1.0052,-1.0273,-1.0335,-1.071,-1.0933,-1.0996,-1.1615,-1.2312,-1.3074,-1.4127,-1.4715,-1.4893,-1.5303,-1.5604,-1.5788,-1.5846,-1.6009,-1.6332,-1.6684,-1.7022,-1.7335,-1.7843,-1.8159,-1.8363,-1.8655,-1.8774,-1.8827,0.8237,0.8038,0.8038,0.8038,0.8038,0.8038,0.8038,0.8038,0.7939,0.7842,0.7743,0.7643,0.7441,0.7341,0.7241,0.7042,0.6583,0.6248,0.6147,0.5744,0.5396,0.53,0.449,0.3899,0.3523,0.2239,0.1194,0.0546,0.0361,0.009,0.0,0.0,0.0,0.0,0.0,-0.009,-0.018,-0.018,-0.0359,-0.0539,-0.0539,-0.0718,-0.0897,-0.1076,-0.1256,-0.1525,-0.1883,-0.2419,-0.3045,-0.4117,-0.483,-0.527,-0.5563,-0.5854,-0.6138,-0.6238,-0.6287,-0.6404,-0.6491,-0.6417,-0.6346,-0.6278,-0.6338,-0.624,-0.6159,-0.6366,-0.6543,-0.6379,-0.6707,-0.7017,-0.6913,-0.7082,-0.7192,-0.7158,-0.7197,-0.7269,-0.7269,-0.733,-0.7461,-0.7647,-0.7707,-0.7837,-0.7972,-0.8172,-0.8301,-0.8431,-0.8812,-0.9139,-0.9285,-0.9728,-0.9983,-1.0053,-1.0371,-1.0555,-1.0555,-1.124,-1.1794,-1.2351,-1.3571,-1.424,-1.4478,-1.5079,-1.5381,-1.5449,-1.5556,-1.572,-1.5951,-1.6171,-1.6389,-1.674,-1.7134,-1.7346,-1.7512,-1.7689,-1.7799,-1.7952,0.8531,0.8237,0.8038,0.8038,0.8038,0.8038,0.8038,0.8038,0.8038,0.8038,0.8038,0.8038,0.8038,0.8038,0.7942,0.7646,0.7244,0.7045,0.7045,0.6738,0.6388,0.6195,0.5716,0.5093,0.4616,0.3642,0.2465,0.1116,0.0731,0.0453,0.0182,0.0091,0.0091,0.009,0.0,0.0,0.0,0.0,0.0,0.0,0.0,-0.009,-0.0359,-0.0359,-0.0538,-0.0897,-0.0987,-0.1524,-0.2418,-0.3223,-0.3762,-0.4208,-0.4835,-0.5217,-0.5491,-0.5927,-0.6178,-0.6299,-0.6502,-0.6512,-0.6444,-0.6325,-0.6278,-0.6338,-0.6338,-0.649,-0.6524,-0.6389,-0.666,-0.6838,-0.6672,-0.6588,-0.6614,-0.6583,-0.6439,-0.6332,-0.6332,-0.6498,-0.6544,-0.6609,-0.6736,-0.6798,-0.6798,-0.7129,-0.733,-0.7396,-0.7907,-0.8366,-0.8571,-0.9075,-0.9396,-0.9606,-0.9983,-1.0174,-1.0244,-1.0863,-1.131,-1.1498,-1.285,-1.37,-1.413,-1.4734,-1.5029,-1.5088,-1.5186,-1.5362,-1.5556,-1.571,-1.5884,-1.6171,-1.64,-1.6581,-1.6694,-1.6705,-1.6864,-1.7022,0.9133,0.8733,0.8333,0.8333,0.8137,0.8038,0.8038,0.8038,0.8038,0.8038,0.8038,0.8038,0.8038,0.8038,0.7939,0.7939,0.7839,0.7839,0.7839,0.7624,0.7415,0.7419,0.6901,0.6294,0.5797,0.5214,0.3964,0.2182,0.142,0.104,0.1041,0.0568,0.0375,0.0369,0.0092,0.0,0.0,0.0,0.0,0.0,0.0,0.0,-0.009,-0.009,-0.009,-0.018,-0.0448,-0.0986,-0.1614,-0.1973,-0.251,-0.3135,-0.3405,-0.4109,-0.4898,-0.5346,-0.5703,-0.6031,-0.6439,-0.6341,-0.6231,-0.6451,-0.6349,-0.6338,-0.6338,-0.649,-0.6556,-0.6535,-0.6754,-0.6859,-0.6622,-0.6574,-0.6511,-0.6362,-0.6209,-0.6108,-0.6108,-0.6049,-0.6086,-0.6276,-0.6412,-0.6482,-0.6482,-0.6548,-0.6613,-0.6806,-0.7134,-0.7461,-0.7652,-0.8296,-0.8753,-0.8899,-0.9396,-0.9722,-1.0047,-1.0498,-1.0877,-1.1185,-1.1926,-1.272,-1.3631,-1.4121,-1.4428,-1.4597,-1.4588,-1.4706,-1.4834,-1.502,-1.5254,-1.5526,-1.5874,-1.6104,-1.6228,-1.6353,-1.641,-1.6467,1.0117,0.9517,0.9023,0.8832,0.8535,0.8233,0.8233,0.8137,0.8038,0.8038,0.8038,0.8038,0.8038,0.8038,0.8038,0.8038,0.8038,0.8038,0.8038,0.7842,0.7842,0.7842,0.7444,0.7045,0.6639,0.6189,0.5347,0.442,0.2982,0.2094,0.1619,0.1429,0.1138,0.0847,0.0753,0.0468,0.0186,0.0184,0.0091,0.0,0.0,0.0,0.0,0.0,0.0,0.0,-0.0269,-0.0628,-0.0897,-0.1256,-0.1614,-0.1973,-0.2511,-0.3045,-0.3578,-0.4385,-0.4889,-0.5277,-0.5648,-0.5724,-0.5776,-0.595,-0.587,-0.5887,-0.5889,-0.5948,-0.6099,-0.6412,-0.6486,-0.6542,-0.6478,-0.6314,-0.6229,-0.6159,-0.6018,-0.5892,-0.5807,-0.5805,-0.5727,-0.5767,-0.5822,-0.5822,-0.5822,-0.5888,-0.6013,-0.6079,-0.6408,-0.6741,-0.6872,-0.7456,-0.7912,-0.8172,-0.8753,-0.9274,-0.9594,-1.0174,-1.0561,-1.0814,-1.1365,-1.2042,-1.2842,-1.3511,-1.3881,-1.3932,-1.4121,-1.424,-1.43,-1.4488,-1.4606,-1.4775,-1.5001,-1.5177,-1.5352,-1.5604,-1.572,-1.5826]}]]